<?xml version='1.0' encoding='UTF-8'?>
<gpx version="1.1" creator="https://www.komoot.de" xmlns="http://www.topografix.com/GPX/1/1" xmlns:xsi="http://www.w3.org/2001/XMLSchema-instance" xsi:schemaLocation="http://www.topografix.com/GPX/1/1 http://www.topografix.com/GPX/1/1/gpx.xsd">
  <metadata>
    <name>Wortel rit 13</name>
    <author>
      <link href="https://www.komoot.de">
        <text>komoot</text>
        <type>text/html</type>
      </link>
    </author>
  </metadata>
  <trk>
    <name>Wortel rit 13</name>
    <trkseg>
      <trkpt lat="50.852727" lon="3.786714">
        <ele>67.400927</ele>
        <time>2025-03-18T13:43:15.925Z</time>
      </trkpt>
      <trkpt lat="50.852737" lon="3.786735">
        <ele>67.400927</ele>
        <time>2025-03-18T13:43:16.348Z</time>
      </trkpt>
      <trkpt lat="50.852886" lon="3.786942">
        <ele>67.400927</ele>
        <time>2025-03-18T13:43:21.407Z</time>
      </trkpt>
      <trkpt lat="50.852945" lon="3.786839">
        <ele>67.400927</ele>
        <time>2025-03-18T13:43:22.188Z</time>
      </trkpt>
      <trkpt lat="50.853156" lon="3.786613">
        <ele>67.400927</ele>
        <time>2025-03-18T13:43:24.343Z</time>
      </trkpt>
      <trkpt lat="50.853432" lon="3.786187">
        <ele>67.300263</ele>
        <time>2025-03-18T13:43:27.440Z</time>
      </trkpt>
      <trkpt lat="50.853470" lon="3.786055">
        <ele>67.087576</ele>
        <time>2025-03-18T13:43:28.156Z</time>
      </trkpt>
      <trkpt lat="50.853545" lon="3.785927">
        <ele>66.831555</ele>
        <time>2025-03-18T13:43:29.013Z</time>
      </trkpt>
      <trkpt lat="50.853784" lon="3.785650">
        <ele>66.143844</ele>
        <time>2025-03-18T13:43:32.321Z</time>
      </trkpt>
      <trkpt lat="50.853896" lon="3.785409">
        <ele>65.705125</ele>
        <time>2025-03-18T13:43:34.419Z</time>
      </trkpt>
      <trkpt lat="50.853922" lon="3.785105">
        <ele>65.255384</ele>
        <time>2025-03-18T13:43:36.590Z</time>
      </trkpt>
      <trkpt lat="50.853894" lon="3.784720">
        <ele>64.687234</ele>
        <time>2025-03-18T13:43:39.526Z</time>
      </trkpt>
      <trkpt lat="50.853835" lon="3.784407">
        <ele>64.208352</ele>
        <time>2025-03-18T13:43:42.183Z</time>
      </trkpt>
      <trkpt lat="50.853733" lon="3.784136">
        <ele>63.745809</ele>
        <time>2025-03-18T13:43:45.037Z</time>
      </trkpt>
      <trkpt lat="50.853479" lon="3.783670">
        <ele>63.220457</ele>
        <time>2025-03-18T13:43:52.025Z</time>
      </trkpt>
      <trkpt lat="50.853454" lon="3.783619">
        <ele>63.219557</ele>
        <time>2025-03-18T13:43:52.873Z</time>
      </trkpt>
      <trkpt lat="50.853005" lon="3.782670">
        <ele>63.203019</ele>
        <time>2025-03-18T13:44:08.595Z</time>
      </trkpt>
      <trkpt lat="50.852935" lon="3.782551">
        <ele>63.200750</ele>
        <time>2025-03-18T13:44:10.579Z</time>
      </trkpt>
      <trkpt lat="50.852849" lon="3.782499">
        <ele>63.198717</ele>
        <time>2025-03-18T13:44:12.344Z</time>
      </trkpt>
      <trkpt lat="50.852894" lon="3.782302">
        <ele>63.195796</ele>
        <time>2025-03-18T13:44:14.149Z</time>
      </trkpt>
      <trkpt lat="50.852951" lon="3.782194">
        <ele>63.193832</ele>
        <time>2025-03-18T13:44:15.301Z</time>
      </trkpt>
      <trkpt lat="50.853215" lon="3.781817">
        <ele>63.185981</ele>
        <time>2025-03-18T13:44:18.878Z</time>
      </trkpt>
      <trkpt lat="50.853852" lon="3.781316">
        <ele>60.628924</ele>
        <time>2025-03-18T13:44:24.532Z</time>
      </trkpt>
      <trkpt lat="50.854681" lon="3.780420">
        <ele>56.604894</ele>
        <time>2025-03-18T13:44:32.103Z</time>
      </trkpt>
      <trkpt lat="50.855074" lon="3.780035">
        <ele>54.802914</ele>
        <time>2025-03-18T13:44:35.650Z</time>
      </trkpt>
      <trkpt lat="50.856148" lon="3.779115">
        <ele>50.111064</ele>
        <time>2025-03-18T13:44:45.292Z</time>
      </trkpt>
      <trkpt lat="50.856297" lon="3.778964">
        <ele>49.431357</ele>
        <time>2025-03-18T13:44:46.729Z</time>
      </trkpt>
      <trkpt lat="50.856383" lon="3.778786">
        <ele>48.885077</ele>
        <time>2025-03-18T13:44:47.880Z</time>
      </trkpt>
      <trkpt lat="50.856409" lon="3.778516">
        <ele>48.212823</ele>
        <time>2025-03-18T13:44:49.273Z</time>
      </trkpt>
      <trkpt lat="50.856348" lon="3.778161">
        <ele>47.307250</ele>
        <time>2025-03-18T13:44:51.148Z</time>
      </trkpt>
      <trkpt lat="50.856356" lon="3.778046">
        <ele>47.022480</ele>
        <time>2025-03-18T13:44:51.734Z</time>
      </trkpt>
      <trkpt lat="50.856394" lon="3.777954">
        <ele>46.751869</ele>
        <time>2025-03-18T13:44:52.289Z</time>
      </trkpt>
      <trkpt lat="50.856687" lon="3.777667">
        <ele>45.408681</ele>
        <time>2025-03-18T13:44:55.023Z</time>
      </trkpt>
      <trkpt lat="50.857075" lon="3.777075">
        <ele>43.308240</ele>
        <time>2025-03-18T13:44:59.216Z</time>
      </trkpt>
      <trkpt lat="50.857489" lon="3.776668">
        <ele>41.355443</ele>
        <time>2025-03-18T13:45:02.949Z</time>
      </trkpt>
      <trkpt lat="50.857965" lon="3.776295">
        <ele>39.113148</ele>
        <time>2025-03-18T13:45:06.975Z</time>
      </trkpt>
      <trkpt lat="50.858223" lon="3.776020">
        <ele>37.800146</ele>
        <time>2025-03-18T13:45:09.348Z</time>
      </trkpt>
      <trkpt lat="50.859602" lon="3.774977">
        <ele>32.294832</ele>
        <time>2025-03-18T13:45:21.426Z</time>
      </trkpt>
      <trkpt lat="50.859860" lon="3.774755">
        <ele>31.433171</ele>
        <time>2025-03-18T13:45:23.869Z</time>
      </trkpt>
      <trkpt lat="50.860348" lon="3.774311">
        <ele>29.781598</ele>
        <time>2025-03-18T13:45:28.637Z</time>
      </trkpt>
      <trkpt lat="50.860705" lon="3.774041">
        <ele>28.810421</ele>
        <time>2025-03-18T13:45:32.103Z</time>
      </trkpt>
      <trkpt lat="50.861273" lon="3.773697">
        <ele>27.637388</ele>
        <time>2025-03-18T13:45:37.559Z</time>
      </trkpt>
      <trkpt lat="50.861599" lon="3.773427">
        <ele>26.927770</ele>
        <time>2025-03-18T13:45:40.822Z</time>
      </trkpt>
      <trkpt lat="50.861675" lon="3.773311">
        <ele>26.724193</ele>
        <time>2025-03-18T13:45:41.763Z</time>
      </trkpt>
      <trkpt lat="50.861664" lon="3.773141">
        <ele>26.516115</ele>
        <time>2025-03-18T13:45:42.721Z</time>
      </trkpt>
      <trkpt lat="50.861405" lon="3.772092">
        <ele>25.135217</ele>
        <time>2025-03-18T13:45:49.015Z</time>
      </trkpt>
      <trkpt lat="50.861318" lon="3.771581">
        <ele>24.479983</ele>
        <time>2025-03-18T13:45:51.939Z</time>
      </trkpt>
      <trkpt lat="50.861257" lon="3.771011">
        <ele>23.764245</ele>
        <time>2025-03-18T13:45:55.087Z</time>
      </trkpt>
      <trkpt lat="50.861269" lon="3.770795">
        <ele>23.495800</ele>
        <time>2025-03-18T13:45:56.276Z</time>
      </trkpt>
      <trkpt lat="50.861588" lon="3.770184">
        <ele>22.514145</ele>
        <time>2025-03-18T13:46:00.649Z</time>
      </trkpt>
      <trkpt lat="50.861607" lon="3.769957">
        <ele>22.230658</ele>
        <time>2025-03-18T13:46:01.931Z</time>
      </trkpt>
      <trkpt lat="50.861646" lon="3.769498">
        <ele>21.967244</ele>
        <time>2025-03-18T13:46:04.575Z</time>
      </trkpt>
      <trkpt lat="50.861677" lon="3.768149">
        <ele>21.292720</ele>
        <time>2025-03-18T13:46:12.856Z</time>
      </trkpt>
      <trkpt lat="50.861747" lon="3.768028">
        <ele>21.210704</ele>
        <time>2025-03-18T13:46:13.962Z</time>
      </trkpt>
      <trkpt lat="50.862439" lon="3.767381">
        <ele>21.056212</ele>
        <time>2025-03-18T13:46:23.484Z</time>
      </trkpt>
      <trkpt lat="50.862542" lon="3.767222">
        <ele>21.249499</ele>
        <time>2025-03-18T13:46:25.407Z</time>
      </trkpt>
      <trkpt lat="50.862263" lon="3.766225">
        <ele>22.174709</ele>
        <time>2025-03-18T13:46:36.058Z</time>
      </trkpt>
      <trkpt lat="50.862180" lon="3.765972">
        <ele>22.416603</ele>
        <time>2025-03-18T13:46:39.175Z</time>
      </trkpt>
      <trkpt lat="50.862139" lon="3.765825">
        <ele>22.552945</ele>
        <time>2025-03-18T13:46:40.989Z</time>
      </trkpt>
      <trkpt lat="50.862110" lon="3.765707">
        <ele>22.660372</ele>
        <time>2025-03-18T13:46:42.451Z</time>
      </trkpt>
      <trkpt lat="50.862067" lon="3.765643">
        <ele>22.739670</ele>
        <time>2025-03-18T13:46:43.532Z</time>
      </trkpt>
      <trkpt lat="50.861987" lon="3.765673">
        <ele>22.850166</ele>
        <time>2025-03-18T13:46:45.103Z</time>
      </trkpt>
      <trkpt lat="50.860830" lon="3.765416">
        <ele>25.728308</ele>
        <time>2025-03-18T13:47:09.004Z</time>
      </trkpt>
      <trkpt lat="50.860758" lon="3.765338">
        <ele>25.968218</ele>
        <time>2025-03-18T13:47:10.836Z</time>
      </trkpt>
      <trkpt lat="50.860595" lon="3.765032">
        <ele>26.663371</ele>
        <time>2025-03-18T13:47:16.143Z</time>
      </trkpt>
      <trkpt lat="50.860426" lon="3.764863">
        <ele>27.213062</ele>
        <time>2025-03-18T13:47:20.341Z</time>
      </trkpt>
      <trkpt lat="50.860259" lon="3.764772">
        <ele>27.698808</ele>
        <time>2025-03-18T13:47:24.074Z</time>
      </trkpt>
      <trkpt lat="50.859961" lon="3.764802">
        <ele>28.423510</ele>
        <time>2025-03-18T13:47:30.463Z</time>
      </trkpt>
      <trkpt lat="50.859828" lon="3.764782">
        <ele>28.702741</ele>
        <time>2025-03-18T13:47:33.364Z</time>
      </trkpt>
      <trkpt lat="50.859699" lon="3.764737">
        <ele>28.978821</ele>
        <time>2025-03-18T13:47:36.276Z</time>
      </trkpt>
      <trkpt lat="50.859508" lon="3.764613">
        <ele>29.410248</ele>
        <time>2025-03-18T13:47:40.790Z</time>
      </trkpt>
      <trkpt lat="50.859147" lon="3.764282">
        <ele>30.282029</ele>
        <time>2025-03-18T13:47:49.640Z</time>
      </trkpt>
      <trkpt lat="50.858806" lon="3.763599">
        <ele>31.430920</ele>
        <time>2025-03-18T13:47:59.327Z</time>
      </trkpt>
      <trkpt lat="50.858483" lon="3.763141">
        <ele>31.461987</ele>
        <time>2025-03-18T13:48:04.895Z</time>
      </trkpt>
      <trkpt lat="50.858357" lon="3.763061">
        <ele>31.205864</ele>
        <time>2025-03-18T13:48:06.312Z</time>
      </trkpt>
      <trkpt lat="50.858307" lon="3.763091">
        <ele>31.104983</ele>
        <time>2025-03-18T13:48:06.840Z</time>
      </trkpt>
      <trkpt lat="50.857979" lon="3.763722">
        <ele>30.131414</ele>
        <time>2025-03-18T13:48:11.451Z</time>
      </trkpt>
      <trkpt lat="50.857891" lon="3.763835">
        <ele>29.917677</ele>
        <time>2025-03-18T13:48:12.391Z</time>
      </trkpt>
      <trkpt lat="50.857763" lon="3.763851">
        <ele>29.675413</ele>
        <time>2025-03-18T13:48:13.440Z</time>
      </trkpt>
      <trkpt lat="50.857605" lon="3.763801">
        <ele>29.371404</ele>
        <time>2025-03-18T13:48:14.742Z</time>
      </trkpt>
      <trkpt lat="50.857470" lon="3.763802">
        <ele>29.116680</ele>
        <time>2025-03-18T13:48:15.811Z</time>
      </trkpt>
      <trkpt lat="50.857376" lon="3.763886">
        <ele>28.913046</ele>
        <time>2025-03-18T13:48:16.669Z</time>
      </trkpt>
      <trkpt lat="50.857254" lon="3.764074">
        <ele>28.591909</ele>
        <time>2025-03-18T13:48:18.032Z</time>
      </trkpt>
      <trkpt lat="50.857159" lon="3.764343">
        <ele>28.179107</ele>
        <time>2025-03-18T13:48:19.595Z</time>
      </trkpt>
      <trkpt lat="50.857090" lon="3.764449">
        <ele>27.965723</ele>
        <time>2025-03-18T13:48:20.380Z</time>
      </trkpt>
      <trkpt lat="50.856972" lon="3.764552">
        <ele>27.666620</ele>
        <time>2025-03-18T13:48:21.487Z</time>
      </trkpt>
      <trkpt lat="50.856871" lon="3.764594">
        <ele>27.434797</ele>
        <time>2025-03-18T13:48:22.342Z</time>
      </trkpt>
      <trkpt lat="50.856467" lon="3.764604">
        <ele>26.537784</ele>
        <time>2025-03-18T13:48:25.753Z</time>
      </trkpt>
      <trkpt lat="50.856396" lon="3.764662">
        <ele>26.360436</ele>
        <time>2025-03-18T13:48:26.435Z</time>
      </trkpt>
      <trkpt lat="50.856322" lon="3.764873">
        <ele>26.022159</ele>
        <time>2025-03-18T13:48:27.759Z</time>
      </trkpt>
      <trkpt lat="50.856179" lon="3.765580">
        <ele>24.981716</ele>
        <time>2025-03-18T13:48:31.999Z</time>
      </trkpt>
      <trkpt lat="50.856110" lon="3.765737">
        <ele>24.713615</ele>
        <time>2025-03-18T13:48:33.134Z</time>
      </trkpt>
      <trkpt lat="50.855955" lon="3.765826">
        <ele>24.458670</ele>
        <time>2025-03-18T13:48:34.708Z</time>
      </trkpt>
      <trkpt lat="50.855602" lon="3.765850">
        <ele>24.284850</ele>
        <time>2025-03-18T13:48:38.256Z</time>
      </trkpt>
      <trkpt lat="50.855292" lon="3.765738">
        <ele>24.128427</ele>
        <time>2025-03-18T13:48:41.614Z</time>
      </trkpt>
      <trkpt lat="50.855027" lon="3.765511">
        <ele>23.980218</ele>
        <time>2025-03-18T13:48:44.929Z</time>
      </trkpt>
      <trkpt lat="50.854872" lon="3.765229">
        <ele>23.864095</ele>
        <time>2025-03-18T13:48:47.608Z</time>
      </trkpt>
      <trkpt lat="50.854542" lon="3.764413">
        <ele>23.614275</ele>
        <time>2025-03-18T13:48:54.622Z</time>
      </trkpt>
      <trkpt lat="50.854217" lon="3.764042">
        <ele>23.655447</ele>
        <time>2025-03-18T13:48:59.235Z</time>
      </trkpt>
      <trkpt lat="50.853942" lon="3.763675">
        <ele>23.692404</ele>
        <time>2025-03-18T13:49:03.488Z</time>
      </trkpt>
      <trkpt lat="50.853812" lon="3.763563">
        <ele>23.707613</ele>
        <time>2025-03-18T13:49:05.295Z</time>
      </trkpt>
      <trkpt lat="50.853347" lon="3.763303">
        <ele>23.758294</ele>
        <time>2025-03-18T13:49:11.489Z</time>
      </trkpt>
      <trkpt lat="50.852767" lon="3.762893">
        <ele>23.944965</ele>
        <time>2025-03-18T13:49:19.921Z</time>
      </trkpt>
      <trkpt lat="50.852014" lon="3.762694">
        <ele>24.309650</ele>
        <time>2025-03-18T13:49:30.454Z</time>
      </trkpt>
      <trkpt lat="50.851253" lon="3.762469">
        <ele>24.669545</ele>
        <time>2025-03-18T13:49:40.792Z</time>
      </trkpt>
      <trkpt lat="50.850549" lon="3.762067">
        <ele>24.908625</ele>
        <time>2025-03-18T13:49:49.997Z</time>
      </trkpt>
      <trkpt lat="50.849592" lon="3.761417">
        <ele>25.248859</ele>
        <time>2025-03-18T13:50:03.064Z</time>
      </trkpt>
      <trkpt lat="50.849339" lon="3.761089">
        <ele>25.399426</ele>
        <time>2025-03-18T13:50:07.822Z</time>
      </trkpt>
      <trkpt lat="50.849182" lon="3.760818">
        <ele>25.506368</ele>
        <time>2025-03-18T13:50:11.346Z</time>
      </trkpt>
      <trkpt lat="50.849099" lon="3.760598">
        <ele>25.580885</ele>
        <time>2025-03-18T13:50:13.639Z</time>
      </trkpt>
      <trkpt lat="50.848770" lon="3.759419">
        <ele>25.955683</ele>
        <time>2025-03-18T13:50:24.795Z</time>
      </trkpt>
      <trkpt lat="50.848627" lon="3.759735">
        <ele>26.039404</ele>
        <time>2025-03-18T13:50:27.856Z</time>
      </trkpt>
      <trkpt lat="50.848424" lon="3.759917">
        <ele>25.953127</ele>
        <time>2025-03-18T13:50:30.667Z</time>
      </trkpt>
      <trkpt lat="50.847599" lon="3.760094">
        <ele>25.645203</ele>
        <time>2025-03-18T13:50:39.230Z</time>
      </trkpt>
      <trkpt lat="50.846712" lon="3.760276">
        <ele>25.397804</ele>
        <time>2025-03-18T13:50:48.698Z</time>
      </trkpt>
      <trkpt lat="50.845373" lon="3.760552">
        <ele>25.470449</ele>
        <time>2025-03-18T13:51:04.536Z</time>
      </trkpt>
      <trkpt lat="50.845008" lon="3.760676">
        <ele>25.629901</ele>
        <time>2025-03-18T13:51:09.920Z</time>
      </trkpt>
      <trkpt lat="50.844800" lon="3.760801">
        <ele>25.896354</ele>
        <time>2025-03-18T13:51:13.108Z</time>
      </trkpt>
      <trkpt lat="50.844713" lon="3.760468">
        <ele>26.168892</ele>
        <time>2025-03-18T13:51:16.456Z</time>
      </trkpt>
      <trkpt lat="50.844611" lon="3.759721">
        <ele>26.746872</ele>
        <time>2025-03-18T13:51:24.014Z</time>
      </trkpt>
      <trkpt lat="50.844453" lon="3.759136">
        <ele>27.228055</ele>
        <time>2025-03-18T13:51:30.607Z</time>
      </trkpt>
      <trkpt lat="50.844019" lon="3.757121">
        <ele>29.521057</ele>
        <time>2025-03-18T13:51:54.391Z</time>
      </trkpt>
      <trkpt lat="50.843694" lon="3.756230">
        <ele>30.742130</ele>
        <time>2025-03-18T13:52:06.402Z</time>
      </trkpt>
      <trkpt lat="50.843547" lon="3.756108">
        <ele>31.049204</ele>
        <time>2025-03-18T13:52:09.387Z</time>
      </trkpt>
      <trkpt lat="50.843510" lon="3.756099">
        <ele>31.110009</ele>
        <time>2025-03-18T13:52:10.055Z</time>
      </trkpt>
      <trkpt lat="50.843070" lon="3.756475">
        <ele>31.922116</ele>
        <time>2025-03-18T13:52:18.884Z</time>
      </trkpt>
      <trkpt lat="50.842923" lon="3.756657">
        <ele>32.225199</ele>
        <time>2025-03-18T13:52:22.043Z</time>
      </trkpt>
      <trkpt lat="50.842625" lon="3.757155">
        <ele>32.928905</ele>
        <time>2025-03-18T13:52:29.054Z</time>
      </trkpt>
      <trkpt lat="50.842334" lon="3.757813">
        <ele>33.752864</ele>
        <time>2025-03-18T13:52:37.360Z</time>
      </trkpt>
      <trkpt lat="50.842145" lon="3.758120">
        <ele>34.256230</ele>
        <time>2025-03-18T13:52:41.966Z</time>
      </trkpt>
      <trkpt lat="50.841445" lon="3.759095">
        <ele>36.151684</ele>
        <time>2025-03-18T13:52:58.359Z</time>
      </trkpt>
      <trkpt lat="50.841200" lon="3.759416">
        <ele>36.798220</ele>
        <time>2025-03-18T13:53:04.482Z</time>
      </trkpt>
      <trkpt lat="50.841110" lon="3.759496">
        <ele>37.008068</ele>
        <time>2025-03-18T13:53:06.511Z</time>
      </trkpt>
      <trkpt lat="50.840899" lon="3.759619">
        <ele>37.465226</ele>
        <time>2025-03-18T13:53:10.997Z</time>
      </trkpt>
      <trkpt lat="50.840773" lon="3.759616">
        <ele>37.769490</ele>
        <time>2025-03-18T13:53:13.585Z</time>
      </trkpt>
      <trkpt lat="50.840631" lon="3.759634">
        <ele>38.171057</ele>
        <time>2025-03-18T13:53:17.128Z</time>
      </trkpt>
      <trkpt lat="50.840220" lon="3.759562">
        <ele>39.336703</ele>
        <time>2025-03-18T13:53:27.626Z</time>
      </trkpt>
      <trkpt lat="50.839624" lon="3.759631">
        <ele>41.021267</ele>
        <time>2025-03-18T13:53:43.519Z</time>
      </trkpt>
      <trkpt lat="50.839308" lon="3.759807">
        <ele>41.965539</ele>
        <time>2025-03-18T13:53:51.855Z</time>
      </trkpt>
      <trkpt lat="50.838662" lon="3.760271">
        <ele>43.617802</ele>
        <time>2025-03-18T13:54:09.028Z</time>
      </trkpt>
      <trkpt lat="50.838466" lon="3.760345">
        <ele>44.033782</ele>
        <time>2025-03-18T13:54:13.755Z</time>
      </trkpt>
      <trkpt lat="50.837297" lon="3.760485">
        <ele>46.345723</ele>
        <time>2025-03-18T13:54:40.118Z</time>
      </trkpt>
      <trkpt lat="50.837056" lon="3.760591">
        <ele>46.100458</ele>
        <time>2025-03-18T13:54:45.252Z</time>
      </trkpt>
      <trkpt lat="50.836522" lon="3.760828">
        <ele>45.556652</ele>
        <time>2025-03-18T13:54:55.115Z</time>
      </trkpt>
      <trkpt lat="50.836013" lon="3.761031">
        <ele>45.041952</ele>
        <time>2025-03-18T13:55:02.131Z</time>
      </trkpt>
      <trkpt lat="50.835509" lon="3.760981">
        <ele>44.264094</ele>
        <time>2025-03-18T13:55:07.923Z</time>
      </trkpt>
      <trkpt lat="50.835204" lon="3.761035">
        <ele>42.750147</ele>
        <time>2025-03-18T13:55:11.254Z</time>
      </trkpt>
      <trkpt lat="50.834919" lon="3.761234">
        <ele>41.213607</ele>
        <time>2025-03-18T13:55:14.567Z</time>
      </trkpt>
      <trkpt lat="50.834775" lon="3.761402">
        <ele>40.331251</ele>
        <time>2025-03-18T13:55:16.440Z</time>
      </trkpt>
      <trkpt lat="50.834069" lon="3.762076">
        <ele>36.264476</ele>
        <time>2025-03-18T13:55:25.133Z</time>
      </trkpt>
      <trkpt lat="50.833712" lon="3.762251">
        <ele>35.514006</ele>
        <time>2025-03-18T13:55:29.318Z</time>
      </trkpt>
      <trkpt lat="50.833661" lon="3.762432">
        <ele>35.406601</ele>
        <time>2025-03-18T13:55:30.808Z</time>
      </trkpt>
      <trkpt lat="50.833492" lon="3.762844">
        <ele>35.140374</ele>
        <time>2025-03-18T13:55:34.817Z</time>
      </trkpt>
      <trkpt lat="50.833418" lon="3.762945">
        <ele>35.056545</ele>
        <time>2025-03-18T13:55:36.217Z</time>
      </trkpt>
      <trkpt lat="50.833335" lon="3.762933">
        <ele>34.985032</ele>
        <time>2025-03-18T13:55:37.446Z</time>
      </trkpt>
      <trkpt lat="50.833207" lon="3.762922">
        <ele>34.875041</ele>
        <time>2025-03-18T13:55:39.560Z</time>
      </trkpt>
      <trkpt lat="50.832994" lon="3.763054">
        <ele>34.678779</ele>
        <time>2025-03-18T13:55:43.855Z</time>
      </trkpt>
      <trkpt lat="50.832911" lon="3.763129">
        <ele>34.596780</ele>
        <time>2025-03-18T13:55:45.783Z</time>
      </trkpt>
      <trkpt lat="50.832755" lon="3.763311">
        <ele>34.430512</ele>
        <time>2025-03-18T13:55:50.032Z</time>
      </trkpt>
      <trkpt lat="50.832706" lon="3.763411">
        <ele>34.361923</ele>
        <time>2025-03-18T13:55:51.785Z</time>
      </trkpt>
      <trkpt lat="50.832149" lon="3.763657">
        <ele>34.516824</ele>
        <time>2025-03-18T13:56:04.095Z</time>
      </trkpt>
      <trkpt lat="50.831835" lon="3.763794">
        <ele>34.780317</ele>
        <time>2025-03-18T13:56:10.566Z</time>
      </trkpt>
      <trkpt lat="50.830891" lon="3.764165">
        <ele>35.567182</ele>
        <time>2025-03-18T13:56:27.233Z</time>
      </trkpt>
      <trkpt lat="50.830288" lon="3.764398">
        <ele>36.203921</ele>
        <time>2025-03-18T13:56:38.533Z</time>
      </trkpt>
      <trkpt lat="50.829771" lon="3.764662">
        <ele>36.786482</ele>
        <time>2025-03-18T13:56:49.625Z</time>
      </trkpt>
      <trkpt lat="50.829350" lon="3.764999">
        <ele>37.292394</ele>
        <time>2025-03-18T13:56:59.655Z</time>
      </trkpt>
      <trkpt lat="50.828278" lon="3.766010">
        <ele>38.263687</ele>
        <time>2025-03-18T13:57:23.590Z</time>
      </trkpt>
      <trkpt lat="50.827786" lon="3.766474">
        <ele>38.662382</ele>
        <time>2025-03-18T13:57:33.961Z</time>
      </trkpt>
      <trkpt lat="50.826851" lon="3.767352">
        <ele>38.376836</ele>
        <time>2025-03-18T13:57:51.509Z</time>
      </trkpt>
      <trkpt lat="50.826020" lon="3.768128">
        <ele>37.843063</ele>
        <time>2025-03-18T13:58:05.049Z</time>
      </trkpt>
      <trkpt lat="50.825534" lon="3.768754">
        <ele>36.758512</ele>
        <time>2025-03-18T13:58:13.186Z</time>
      </trkpt>
      <trkpt lat="50.825283" lon="3.769170">
        <ele>36.129480</ele>
        <time>2025-03-18T13:58:17.837Z</time>
      </trkpt>
      <trkpt lat="50.824956" lon="3.769779">
        <ele>35.255504</ele>
        <time>2025-03-18T13:58:24.268Z</time>
      </trkpt>
      <trkpt lat="50.824566" lon="3.770519">
        <ele>34.216652</ele>
        <time>2025-03-18T13:58:31.910Z</time>
      </trkpt>
      <trkpt lat="50.824281" lon="3.770951">
        <ele>33.552813</ele>
        <time>2025-03-18T13:58:36.850Z</time>
      </trkpt>
      <trkpt lat="50.824038" lon="3.771279">
        <ele>33.015556</ele>
        <time>2025-03-18T13:58:40.887Z</time>
      </trkpt>
      <trkpt lat="50.823061" lon="3.772597">
        <ele>31.636016</ele>
        <time>2025-03-18T13:58:58.112Z</time>
      </trkpt>
      <trkpt lat="50.823048" lon="3.772731">
        <ele>31.623880</ele>
        <time>2025-03-18T13:58:59.363Z</time>
      </trkpt>
      <trkpt lat="50.822924" lon="3.772788">
        <ele>31.605583</ele>
        <time>2025-03-18T13:59:00.724Z</time>
      </trkpt>
      <trkpt lat="50.822636" lon="3.773133">
        <ele>31.554404</ele>
        <time>2025-03-18T13:59:04.798Z</time>
      </trkpt>
      <trkpt lat="50.822371" lon="3.773312">
        <ele>31.513576</ele>
        <time>2025-03-18T13:59:08.476Z</time>
      </trkpt>
      <trkpt lat="50.822108" lon="3.773442">
        <ele>31.474534</ele>
        <time>2025-03-18T13:59:12.413Z</time>
      </trkpt>
      <trkpt lat="50.821725" lon="3.773536">
        <ele>31.880246</ele>
        <time>2025-03-18T13:59:18.587Z</time>
      </trkpt>
      <trkpt lat="50.821439" lon="3.773675">
        <ele>32.424769</ele>
        <time>2025-03-18T13:59:23.652Z</time>
      </trkpt>
      <trkpt lat="50.821341" lon="3.773685">
        <ele>32.603506</ele>
        <time>2025-03-18T13:59:25.353Z</time>
      </trkpt>
      <trkpt lat="50.821182" lon="3.773613">
        <ele>32.904506</ele>
        <time>2025-03-18T13:59:28.278Z</time>
      </trkpt>
      <trkpt lat="50.820675" lon="3.772726">
        <ele>34.279897</ele>
        <time>2025-03-18T13:59:42.256Z</time>
      </trkpt>
      <trkpt lat="50.820320" lon="3.772340">
        <ele>35.287531</ele>
        <time>2025-03-18T13:59:50.545Z</time>
      </trkpt>
      <trkpt lat="50.820071" lon="3.772187">
        <ele>36.096236</ele>
        <time>2025-03-18T13:59:55.768Z</time>
      </trkpt>
      <trkpt lat="50.819182" lon="3.771776">
        <ele>38.900313</ele>
        <time>2025-03-18T14:00:15.610Z</time>
      </trkpt>
      <trkpt lat="50.818460" lon="3.771481">
        <ele>41.305021</ele>
        <time>2025-03-18T14:00:33.741Z</time>
      </trkpt>
      <trkpt lat="50.816842" lon="3.771371">
        <ele>46.551421</ele>
        <time>2025-03-18T14:01:12.211Z</time>
      </trkpt>
      <trkpt lat="50.816638" lon="3.771355">
        <ele>46.720124</ele>
        <time>2025-03-18T14:01:15.573Z</time>
      </trkpt>
      <trkpt lat="50.816467" lon="3.771297">
        <ele>46.864571</ele>
        <time>2025-03-18T14:01:18.144Z</time>
      </trkpt>
      <trkpt lat="50.815322" lon="3.770480">
        <ele>47.901964</ele>
        <time>2025-03-18T14:01:32.764Z</time>
      </trkpt>
      <trkpt lat="50.814686" lon="3.770020">
        <ele>47.625593</ele>
        <time>2025-03-18T14:01:42.007Z</time>
      </trkpt>
      <trkpt lat="50.814401" lon="3.769863">
        <ele>47.497070</ele>
        <time>2025-03-18T14:01:45.942Z</time>
      </trkpt>
      <trkpt lat="50.814225" lon="3.769848">
        <ele>47.422003</ele>
        <time>2025-03-18T14:01:48.153Z</time>
      </trkpt>
      <trkpt lat="50.813763" lon="3.769927">
        <ele>47.224093</ele>
        <time>2025-03-18T14:01:52.937Z</time>
      </trkpt>
      <trkpt lat="50.813177" lon="3.770049">
        <ele>45.709566</ele>
        <time>2025-03-18T14:01:57.997Z</time>
      </trkpt>
      <trkpt lat="50.812879" lon="3.770054">
        <ele>44.680703</ele>
        <time>2025-03-18T14:02:00.371Z</time>
      </trkpt>
      <trkpt lat="50.811967" lon="3.769911">
        <ele>41.516728</ele>
        <time>2025-03-18T14:02:07.430Z</time>
      </trkpt>
      <trkpt lat="50.811312" lon="3.769808">
        <ele>39.500082</ele>
        <time>2025-03-18T14:02:12.608Z</time>
      </trkpt>
      <trkpt lat="50.810931" lon="3.769742">
        <ele>38.376416</ele>
        <time>2025-03-18T14:02:15.714Z</time>
      </trkpt>
      <trkpt lat="50.810787" lon="3.769720">
        <ele>37.952282</ele>
        <time>2025-03-18T14:02:16.897Z</time>
      </trkpt>
      <trkpt lat="50.810577" lon="3.769678">
        <ele>37.331718</ele>
        <time>2025-03-18T14:02:18.646Z</time>
      </trkpt>
      <trkpt lat="50.810479" lon="3.769651">
        <ele>37.040086</ele>
        <time>2025-03-18T14:02:19.490Z</time>
      </trkpt>
      <trkpt lat="50.810447" lon="3.769642">
        <ele>36.944800</ele>
        <time>2025-03-18T14:02:19.762Z</time>
      </trkpt>
      <trkpt lat="50.810233" lon="3.769553">
        <ele>36.296104</ele>
        <time>2025-03-18T14:02:21.681Z</time>
      </trkpt>
      <trkpt lat="50.810206" lon="3.769540">
        <ele>36.213364</ele>
        <time>2025-03-18T14:02:21.936Z</time>
      </trkpt>
      <trkpt lat="50.810060" lon="3.769473">
        <ele>35.767697</ele>
        <time>2025-03-18T14:02:23.293Z</time>
      </trkpt>
      <trkpt lat="50.809902" lon="3.769409">
        <ele>35.565137</ele>
        <time>2025-03-18T14:02:24.774Z</time>
      </trkpt>
      <trkpt lat="50.809686" lon="3.769422">
        <ele>35.393711</ele>
        <time>2025-03-18T14:02:26.786Z</time>
      </trkpt>
      <trkpt lat="50.809470" lon="3.769566">
        <ele>35.207828</ele>
        <time>2025-03-18T14:02:29.024Z</time>
      </trkpt>
      <trkpt lat="50.809194" lon="3.769080">
        <ele>34.880367</ele>
        <time>2025-03-18T14:02:34.837Z</time>
      </trkpt>
      <trkpt lat="50.809129" lon="3.768853">
        <ele>34.755473</ele>
        <time>2025-03-18T14:02:37.140Z</time>
      </trkpt>
      <trkpt lat="50.808910" lon="3.768050">
        <ele>34.317172</ele>
        <time>2025-03-18T14:02:45.852Z</time>
      </trkpt>
      <trkpt lat="50.808701" lon="3.767519">
        <ele>34.314331</ele>
        <time>2025-03-18T14:02:52.484Z</time>
      </trkpt>
      <trkpt lat="50.808670" lon="3.767442">
        <ele>34.328498</ele>
        <time>2025-03-18T14:02:53.460Z</time>
      </trkpt>
      <trkpt lat="50.808519" lon="3.767192">
        <ele>34.382158</ele>
        <time>2025-03-18T14:02:57.170Z</time>
      </trkpt>
      <trkpt lat="50.808414" lon="3.767108">
        <ele>34.411047</ele>
        <time>2025-03-18T14:02:59.188Z</time>
      </trkpt>
      <trkpt lat="50.807709" lon="3.766867">
        <ele>34.588149</ele>
        <time>2025-03-18T14:03:11.676Z</time>
      </trkpt>
      <trkpt lat="50.807487" lon="3.766700">
        <ele>34.648506</ele>
        <time>2025-03-18T14:03:15.876Z</time>
      </trkpt>
      <trkpt lat="50.807322" lon="3.766523">
        <ele>34.696722</ele>
        <time>2025-03-18T14:03:19.267Z</time>
      </trkpt>
      <trkpt lat="50.807172" lon="3.766296">
        <ele>34.745193</ele>
        <time>2025-03-18T14:03:22.787Z</time>
      </trkpt>
      <trkpt lat="50.807002" lon="3.765921">
        <ele>34.813302</ele>
        <time>2025-03-18T14:03:27.710Z</time>
      </trkpt>
      <trkpt lat="50.806815" lon="3.765343">
        <ele>34.909132</ele>
        <time>2025-03-18T14:03:34.623Z</time>
      </trkpt>
      <trkpt lat="50.806554" lon="3.764506">
        <ele>35.046876</ele>
        <time>2025-03-18T14:03:44.535Z</time>
      </trkpt>
      <trkpt lat="50.806297" lon="3.763842">
        <ele>35.236838</ele>
        <time>2025-03-18T14:03:52.880Z</time>
      </trkpt>
      <trkpt lat="50.806261" lon="3.763700">
        <ele>35.288037</ele>
        <time>2025-03-18T14:03:54.546Z</time>
      </trkpt>
      <trkpt lat="50.805754" lon="3.762271">
        <ele>35.836442</ele>
        <time>2025-03-18T14:04:13.053Z</time>
      </trkpt>
      <trkpt lat="50.805621" lon="3.761828">
        <ele>36.000566</ele>
        <time>2025-03-18T14:04:18.757Z</time>
      </trkpt>
      <trkpt lat="50.805690" lon="3.761760">
        <ele>36.043610</ele>
        <time>2025-03-18T14:04:20.283Z</time>
      </trkpt>
      <trkpt lat="50.805690" lon="3.761638">
        <ele>36.098113</ele>
        <time>2025-03-18T14:04:21.719Z</time>
      </trkpt>
      <trkpt lat="50.805625" lon="3.761571">
        <ele>36.158287</ele>
        <time>2025-03-18T14:04:23.164Z</time>
      </trkpt>
      <trkpt lat="50.805657" lon="3.760951">
        <ele>36.463226</ele>
        <time>2025-03-18T14:04:30.571Z</time>
      </trkpt>
      <trkpt lat="50.805678" lon="3.759470">
        <ele>37.189402</ele>
        <time>2025-03-18T14:04:47.989Z</time>
      </trkpt>
      <trkpt lat="50.805664" lon="3.758695">
        <ele>37.534467</ele>
        <time>2025-03-18T14:04:55.033Z</time>
      </trkpt>
      <trkpt lat="50.805676" lon="3.757963">
        <ele>37.788063</ele>
        <time>2025-03-18T14:05:01.532Z</time>
      </trkpt>
      <trkpt lat="50.805659" lon="3.757624">
        <ele>37.905836</ele>
        <time>2025-03-18T14:05:04.421Z</time>
      </trkpt>
      <trkpt lat="50.805586" lon="3.756983">
        <ele>38.131408</ele>
        <time>2025-03-18T14:05:09.820Z</time>
      </trkpt>
      <trkpt lat="50.805564" lon="3.756818">
        <ele>38.189810</ele>
        <time>2025-03-18T14:05:11.665Z</time>
      </trkpt>
      <trkpt lat="50.805442" lon="3.755289">
        <ele>38.934564</ele>
        <time>2025-03-18T14:05:29.061Z</time>
      </trkpt>
      <trkpt lat="50.805245" lon="3.754664">
        <ele>39.353907</ele>
        <time>2025-03-18T14:05:37.169Z</time>
      </trkpt>
      <trkpt lat="50.805149" lon="3.754184">
        <ele>39.656194</ele>
        <time>2025-03-18T14:05:43.304Z</time>
      </trkpt>
      <trkpt lat="50.805018" lon="3.753524">
        <ele>40.071553</ele>
        <time>2025-03-18T14:05:52.232Z</time>
      </trkpt>
      <trkpt lat="50.804909" lon="3.753274">
        <ele>40.369221</ele>
        <time>2025-03-18T14:05:56.321Z</time>
      </trkpt>
      <trkpt lat="50.804658" lon="3.752984">
        <ele>40.976473</ele>
        <time>2025-03-18T14:06:03.211Z</time>
      </trkpt>
      <trkpt lat="50.804547" lon="3.752738">
        <ele>41.349716</ele>
        <time>2025-03-18T14:06:07.577Z</time>
      </trkpt>
      <trkpt lat="50.804474" lon="3.752354">
        <ele>41.844873</ele>
        <time>2025-03-18T14:06:13.411Z</time>
      </trkpt>
      <trkpt lat="50.804422" lon="3.751882">
        <ele>42.436494</ele>
        <time>2025-03-18T14:06:20.405Z</time>
      </trkpt>
      <trkpt lat="50.804202" lon="3.751051">
        <ele>43.549027</ele>
        <time>2025-03-18T14:06:33.520Z</time>
      </trkpt>
      <trkpt lat="50.803960" lon="3.750047">
        <ele>44.714454</ele>
        <time>2025-03-18T14:06:48.673Z</time>
      </trkpt>
      <trkpt lat="50.803715" lon="3.749256">
        <ele>45.657872</ele>
        <time>2025-03-18T14:07:00.502Z</time>
      </trkpt>
      <trkpt lat="50.803003" lon="3.747540">
        <ele>47.727909</ele>
        <time>2025-03-18T14:07:27.607Z</time>
      </trkpt>
      <trkpt lat="50.802891" lon="3.747221">
        <ele>48.075045</ele>
        <time>2025-03-18T14:07:32.585Z</time>
      </trkpt>
      <trkpt lat="50.802727" lon="3.746413">
        <ele>48.882336</ele>
        <time>2025-03-18T14:07:44.427Z</time>
      </trkpt>
      <trkpt lat="50.802719" lon="3.746368">
        <ele>48.926804</ele>
        <time>2025-03-18T14:07:45.090Z</time>
      </trkpt>
      <trkpt lat="50.802502" lon="3.745137">
        <ele>49.327889</ele>
        <time>2025-03-18T14:08:01.260Z</time>
      </trkpt>
      <trkpt lat="50.802234" lon="3.744971">
        <ele>49.276323</ele>
        <time>2025-03-18T14:08:06.342Z</time>
      </trkpt>
      <trkpt lat="50.801526" lon="3.744611">
        <ele>49.143080</ele>
        <time>2025-03-18T14:08:14.350Z</time>
      </trkpt>
      <trkpt lat="50.800769" lon="3.744297">
        <ele>48.031732</ele>
        <time>2025-03-18T14:08:24.117Z</time>
      </trkpt>
      <trkpt lat="50.800675" lon="3.744241">
        <ele>47.818276</ele>
        <time>2025-03-18T14:08:25.342Z</time>
      </trkpt>
      <trkpt lat="50.800550" lon="3.744091">
        <ele>47.484871</ele>
        <time>2025-03-18T14:08:27.261Z</time>
      </trkpt>
      <trkpt lat="50.800428" lon="3.744104">
        <ele>47.225014</ele>
        <time>2025-03-18T14:08:28.748Z</time>
      </trkpt>
      <trkpt lat="50.800260" lon="3.744071">
        <ele>46.865246</ele>
        <time>2025-03-18T14:08:30.820Z</time>
      </trkpt>
      <trkpt lat="50.799915" lon="3.743946">
        <ele>46.113087</ele>
        <time>2025-03-18T14:08:35.124Z</time>
      </trkpt>
      <trkpt lat="50.799679" lon="3.743859">
        <ele>45.598115</ele>
        <time>2025-03-18T14:08:38.076Z</time>
      </trkpt>
      <trkpt lat="50.798772" lon="3.743393">
        <ele>44.519450</ele>
        <time>2025-03-18T14:08:50.380Z</time>
      </trkpt>
      <trkpt lat="50.798433" lon="3.743231">
        <ele>44.186925</ele>
        <time>2025-03-18T14:08:55.461Z</time>
      </trkpt>
      <trkpt lat="50.797788" lon="3.743048">
        <ele>43.581937</ele>
        <time>2025-03-18T14:09:05.978Z</time>
      </trkpt>
      <trkpt lat="50.796160" lon="3.742444">
        <ele>43.749812</ele>
        <time>2025-03-18T14:09:34.684Z</time>
      </trkpt>
      <trkpt lat="50.795390" lon="3.742210">
        <ele>43.359344</ele>
        <time>2025-03-18T14:09:42.725Z</time>
      </trkpt>
      <trkpt lat="50.794483" lon="3.741760">
        <ele>42.786667</ele>
        <time>2025-03-18T14:09:52.091Z</time>
      </trkpt>
      <trkpt lat="50.793394" lon="3.741373">
        <ele>42.590927</ele>
        <time>2025-03-18T14:10:04.761Z</time>
      </trkpt>
      <trkpt lat="50.792615" lon="3.741023">
        <ele>42.515655</ele>
        <time>2025-03-18T14:10:14.568Z</time>
      </trkpt>
      <trkpt lat="50.791865" lon="3.740702">
        <ele>42.710345</ele>
        <time>2025-03-18T14:10:24.413Z</time>
      </trkpt>
      <trkpt lat="50.791642" lon="3.740652">
        <ele>42.772476</ele>
        <time>2025-03-18T14:10:27.187Z</time>
      </trkpt>
      <trkpt lat="50.791594" lon="3.740674">
        <ele>42.786261</ele>
        <time>2025-03-18T14:10:27.782Z</time>
      </trkpt>
      <trkpt lat="50.791537" lon="3.740477">
        <ele>42.824041</ele>
        <time>2025-03-18T14:10:29.450Z</time>
      </trkpt>
      <trkpt lat="50.791490" lon="3.740509">
        <ele>42.838156</ele>
        <time>2025-03-18T14:10:30.294Z</time>
      </trkpt>
      <trkpt lat="50.791238" lon="3.740432">
        <ele>42.908956</ele>
        <time>2025-03-18T14:10:34.499Z</time>
      </trkpt>
      <trkpt lat="50.789592" lon="3.739708">
        <ele>45.161702</ele>
        <time>2025-03-18T14:11:05.962Z</time>
      </trkpt>
      <trkpt lat="50.787932" lon="3.744892">
        <ele>58.411182</ele>
        <time>2025-03-18T14:12:36.505Z</time>
      </trkpt>
      <trkpt lat="50.787447" lon="3.744108">
        <ele>60.852121</ele>
        <time>2025-03-18T14:12:55.667Z</time>
      </trkpt>
      <trkpt lat="50.786461" lon="3.742481">
        <ele>65.302051</ele>
        <time>2025-03-18T14:13:32.194Z</time>
      </trkpt>
      <trkpt lat="50.786298" lon="3.742211">
        <ele>65.998255</ele>
        <time>2025-03-18T14:13:38.292Z</time>
      </trkpt>
      <trkpt lat="50.785885" lon="3.741686">
        <ele>67.537041</ele>
        <time>2025-03-18T14:13:51.921Z</time>
      </trkpt>
      <trkpt lat="50.785510" lon="3.741388">
        <ele>68.755846</ele>
        <time>2025-03-18T14:14:02.756Z</time>
      </trkpt>
      <trkpt lat="50.784704" lon="3.740972">
        <ele>71.128943</ele>
        <time>2025-03-18T14:14:24.250Z</time>
      </trkpt>
      <trkpt lat="50.784459" lon="3.740853">
        <ele>71.750152</ele>
        <time>2025-03-18T14:14:30.536Z</time>
      </trkpt>
      <trkpt lat="50.784262" lon="3.740657">
        <ele>72.314260</ele>
        <time>2025-03-18T14:14:36.075Z</time>
      </trkpt>
      <trkpt lat="50.784110" lon="3.740428">
        <ele>72.823070</ele>
        <time>2025-03-18T14:14:41.040Z</time>
      </trkpt>
      <trkpt lat="50.782829" lon="3.737518">
        <ele>77.963138</ele>
        <time>2025-03-18T14:15:33.497Z</time>
      </trkpt>
      <trkpt lat="50.782530" lon="3.737007">
        <ele>78.932708</ele>
        <time>2025-03-18T14:15:43.611Z</time>
      </trkpt>
      <trkpt lat="50.782349" lon="3.736815">
        <ele>79.279541</ele>
        <time>2025-03-18T14:15:48.609Z</time>
      </trkpt>
      <trkpt lat="50.782145" lon="3.736674">
        <ele>79.611601</ele>
        <time>2025-03-18T14:15:53.703Z</time>
      </trkpt>
      <trkpt lat="50.781859" lon="3.736523">
        <ele>80.061321</ele>
        <time>2025-03-18T14:16:00.566Z</time>
      </trkpt>
      <trkpt lat="50.780768" lon="3.736010">
        <ele>81.702695</ele>
        <time>2025-03-18T14:16:23.254Z</time>
      </trkpt>
      <trkpt lat="50.780167" lon="3.735744">
        <ele>81.945010</ele>
        <time>2025-03-18T14:16:31.722Z</time>
      </trkpt>
      <trkpt lat="50.777158" lon="3.734568">
        <ele>82.837479</ele>
        <time>2025-03-18T14:17:10.026Z</time>
      </trkpt>
      <trkpt lat="50.776846" lon="3.734444">
        <ele>83.166238</ele>
        <time>2025-03-18T14:17:13.775Z</time>
      </trkpt>
      <trkpt lat="50.775640" lon="3.733970">
        <ele>84.436188</ele>
        <time>2025-03-18T14:17:32.022Z</time>
      </trkpt>
      <trkpt lat="50.774087" lon="3.733206">
        <ele>89.406842</ele>
        <time>2025-03-18T14:18:10.910Z</time>
      </trkpt>
      <trkpt lat="50.773762" lon="3.733113">
        <ele>90.156045</ele>
        <time>2025-03-18T14:18:17.957Z</time>
      </trkpt>
      <trkpt lat="50.773476" lon="3.733042">
        <ele>90.247678</ele>
        <time>2025-03-18T14:18:23.205Z</time>
      </trkpt>
      <trkpt lat="50.772621" lon="3.732856">
        <ele>90.520850</ele>
        <time>2025-03-18T14:18:33.498Z</time>
      </trkpt>
      <trkpt lat="50.772017" lon="3.732677">
        <ele>90.781040</ele>
        <time>2025-03-18T14:18:39.004Z</time>
      </trkpt>
      <trkpt lat="50.771434" lon="3.732571">
        <ele>91.520839</ele>
        <time>2025-03-18T14:18:45.528Z</time>
      </trkpt>
      <trkpt lat="50.771082" lon="3.732507">
        <ele>91.967510</ele>
        <time>2025-03-18T14:18:51.047Z</time>
      </trkpt>
      <trkpt lat="50.770620" lon="3.732349">
        <ele>92.563395</ele>
        <time>2025-03-18T14:19:00.343Z</time>
      </trkpt>
      <trkpt lat="50.769076" lon="3.731803">
        <ele>96.969471</ele>
        <time>2025-03-18T14:19:37.140Z</time>
      </trkpt>
      <trkpt lat="50.768215" lon="3.731520">
        <ele>99.001806</ele>
        <time>2025-03-18T14:19:54.932Z</time>
      </trkpt>
      <trkpt lat="50.767584" lon="3.731386">
        <ele>99.642491</ele>
        <time>2025-03-18T14:20:05.493Z</time>
      </trkpt>
      <trkpt lat="50.766517" lon="3.731194">
        <ele>100.527721</ele>
        <time>2025-03-18T14:20:18.030Z</time>
      </trkpt>
      <trkpt lat="50.765714" lon="3.730975">
        <ele>100.734243</ele>
        <time>2025-03-18T14:20:26.408Z</time>
      </trkpt>
      <trkpt lat="50.765929" lon="3.729869">
        <ele>100.928096</ele>
        <time>2025-03-18T14:20:39.981Z</time>
      </trkpt>
      <trkpt lat="50.765948" lon="3.729341">
        <ele>101.379850</ele>
        <time>2025-03-18T14:20:47.730Z</time>
      </trkpt>
      <trkpt lat="50.765912" lon="3.729029">
        <ele>101.650763</ele>
        <time>2025-03-18T14:20:52.834Z</time>
      </trkpt>
      <trkpt lat="50.765838" lon="3.728740">
        <ele>101.917093</ele>
        <time>2025-03-18T14:20:57.722Z</time>
      </trkpt>
      <trkpt lat="50.765693" lon="3.728408">
        <ele>102.261735</ele>
        <time>2025-03-18T14:21:03.727Z</time>
      </trkpt>
      <trkpt lat="50.765264" lon="3.727660">
        <ele>103.124264</ele>
        <time>2025-03-18T14:21:16.433Z</time>
      </trkpt>
      <trkpt lat="50.765108" lon="3.727207">
        <ele>103.370291</ele>
        <time>2025-03-18T14:21:21.480Z</time>
      </trkpt>
      <trkpt lat="50.765043" lon="3.726922">
        <ele>103.398009</ele>
        <time>2025-03-18T14:21:24.127Z</time>
      </trkpt>
      <trkpt lat="50.764646" lon="3.725187">
        <ele>103.566807</ele>
        <time>2025-03-18T14:21:40.761Z</time>
      </trkpt>
      <trkpt lat="50.764548" lon="3.724499">
        <ele>104.098929</ele>
        <time>2025-03-18T14:21:50.403Z</time>
      </trkpt>
      <trkpt lat="50.764321" lon="3.722370">
        <ele>108.111173</ele>
        <time>2025-03-18T14:22:30.335Z</time>
      </trkpt>
      <trkpt lat="50.764326" lon="3.722115">
        <ele>108.585280</ele>
        <time>2025-03-18T14:22:34.313Z</time>
      </trkpt>
      <trkpt lat="50.764366" lon="3.721767">
        <ele>109.011818</ele>
        <time>2025-03-18T14:22:39.096Z</time>
      </trkpt>
      <trkpt lat="50.764506" lon="3.721177">
        <ele>109.412871</ele>
        <time>2025-03-18T14:22:46.235Z</time>
      </trkpt>
      <trkpt lat="50.764906" lon="3.720270">
        <ele>110.116580</ele>
        <time>2025-03-18T14:22:57.449Z</time>
      </trkpt>
      <trkpt lat="50.765025" lon="3.719825">
        <ele>110.424064</ele>
        <time>2025-03-18T14:23:02.604Z</time>
      </trkpt>
      <trkpt lat="50.765066" lon="3.719504">
        <ele>110.632482</ele>
        <time>2025-03-18T14:23:06.473Z</time>
      </trkpt>
      <trkpt lat="50.765053" lon="3.718867">
        <ele>111.790451</ele>
        <time>2025-03-18T14:23:15.712Z</time>
      </trkpt>
      <trkpt lat="50.764868" lon="3.716845">
        <ele>115.996462</ele>
        <time>2025-03-18T14:23:53.684Z</time>
      </trkpt>
      <trkpt lat="50.764859" lon="3.716415">
        <ele>116.784473</ele>
        <time>2025-03-18T14:24:01.065Z</time>
      </trkpt>
      <trkpt lat="50.764910" lon="3.715951">
        <ele>117.463812</ele>
        <time>2025-03-18T14:24:08.583Z</time>
      </trkpt>
      <trkpt lat="50.765000" lon="3.715573">
        <ele>118.046420</ele>
        <time>2025-03-18T14:24:14.556Z</time>
      </trkpt>
      <trkpt lat="50.765175" lon="3.715134">
        <ele>118.794938</ele>
        <time>2025-03-18T14:24:21.586Z</time>
      </trkpt>
      <trkpt lat="50.766090" lon="3.713794">
        <ele>121.696343</ele>
        <time>2025-03-18T14:24:48.949Z</time>
      </trkpt>
      <trkpt lat="50.766630" lon="3.712977">
        <ele>123.499888</ele>
        <time>2025-03-18T14:25:07.399Z</time>
      </trkpt>
      <trkpt lat="50.766753" lon="3.712700">
        <ele>124.016436</ele>
        <time>2025-03-18T14:25:12.850Z</time>
      </trkpt>
      <trkpt lat="50.766886" lon="3.712201">
        <ele>124.842876</ele>
        <time>2025-03-18T14:25:21.648Z</time>
      </trkpt>
      <trkpt lat="50.767218" lon="3.709900">
        <ele>127.423372</ele>
        <time>2025-03-18T14:25:56.071Z</time>
      </trkpt>
      <trkpt lat="50.767265" lon="3.709656">
        <ele>127.697288</ele>
        <time>2025-03-18T14:25:59.488Z</time>
      </trkpt>
      <trkpt lat="50.767296" lon="3.709607">
        <ele>127.771716</ele>
        <time>2025-03-18T14:26:00.343Z</time>
      </trkpt>
      <trkpt lat="50.767223" lon="3.709530">
        <ele>127.920717</ele>
        <time>2025-03-18T14:26:01.663Z</time>
      </trkpt>
      <trkpt lat="50.766854" lon="3.708878">
        <ele>126.552423</ele>
        <time>2025-03-18T14:26:07.499Z</time>
      </trkpt>
      <trkpt lat="50.766709" lon="3.708703">
        <ele>125.977880</ele>
        <time>2025-03-18T14:26:09.088Z</time>
      </trkpt>
      <trkpt lat="50.766535" lon="3.708641">
        <ele>125.416102</ele>
        <time>2025-03-18T14:26:10.553Z</time>
      </trkpt>
      <trkpt lat="50.766447" lon="3.708686">
        <ele>125.124800</ele>
        <time>2025-03-18T14:26:11.300Z</time>
      </trkpt>
      <trkpt lat="50.766322" lon="3.708821">
        <ele>124.648013</ele>
        <time>2025-03-18T14:26:12.489Z</time>
      </trkpt>
      <trkpt lat="50.765592" lon="3.710015">
        <ele>120.561752</ele>
        <time>2025-03-18T14:26:20.264Z</time>
      </trkpt>
      <trkpt lat="50.765478" lon="3.710179">
        <ele>119.715554</ele>
        <time>2025-03-18T14:26:21.393Z</time>
      </trkpt>
      <trkpt lat="50.765392" lon="3.710251">
        <ele>119.181286</ele>
        <time>2025-03-18T14:26:22.115Z</time>
      </trkpt>
      <trkpt lat="50.765289" lon="3.710259">
        <ele>118.615115</ele>
        <time>2025-03-18T14:26:22.880Z</time>
      </trkpt>
      <trkpt lat="50.765194" lon="3.710199">
        <ele>118.053471</ele>
        <time>2025-03-18T14:26:23.639Z</time>
      </trkpt>
      <trkpt lat="50.765138" lon="3.710124">
        <ele>117.650538</ele>
        <time>2025-03-18T14:26:24.188Z</time>
      </trkpt>
      <trkpt lat="50.765087" lon="3.709987">
        <ele>117.098516</ele>
        <time>2025-03-18T14:26:24.943Z</time>
      </trkpt>
      <trkpt lat="50.764969" lon="3.709245">
        <ele>114.441684</ele>
        <time>2025-03-18T14:26:28.580Z</time>
      </trkpt>
      <trkpt lat="50.764930" lon="3.709113">
        <ele>113.935762</ele>
        <time>2025-03-18T14:26:29.270Z</time>
      </trkpt>
      <trkpt lat="50.764801" lon="3.708915">
        <ele>112.948672</ele>
        <time>2025-03-18T14:26:30.616Z</time>
      </trkpt>
      <trkpt lat="50.764633" lon="3.708841">
        <ele>111.840744</ele>
        <time>2025-03-18T14:26:31.919Z</time>
      </trkpt>
      <trkpt lat="50.764494" lon="3.708887">
        <ele>110.835837</ele>
        <time>2025-03-18T14:26:32.970Z</time>
      </trkpt>
      <trkpt lat="50.764389" lon="3.709000">
        <ele>109.937037</ele>
        <time>2025-03-18T14:26:33.904Z</time>
      </trkpt>
      <trkpt lat="50.764055" lon="3.709684">
        <ele>106.069449</ele>
        <time>2025-03-18T14:26:37.874Z</time>
      </trkpt>
      <trkpt lat="50.763907" lon="3.709858">
        <ele>104.764345</ele>
        <time>2025-03-18T14:26:39.196Z</time>
      </trkpt>
      <trkpt lat="50.763653" lon="3.709889">
        <ele>102.961647</ele>
        <time>2025-03-18T14:26:41.011Z</time>
      </trkpt>
      <trkpt lat="50.763085" lon="3.709873">
        <ele>98.752132</ele>
        <time>2025-03-18T14:26:44.993Z</time>
      </trkpt>
      <trkpt lat="50.762810" lon="3.709922">
        <ele>96.353275</ele>
        <time>2025-03-18T14:26:47.722Z</time>
      </trkpt>
      <trkpt lat="50.762691" lon="3.710017">
        <ele>95.197702</ele>
        <time>2025-03-18T14:26:49.035Z</time>
      </trkpt>
      <trkpt lat="50.762635" lon="3.710100">
        <ele>94.532318</ele>
        <time>2025-03-18T14:26:49.795Z</time>
      </trkpt>
      <trkpt lat="50.762550" lon="3.710310">
        <ele>93.165333</ele>
        <time>2025-03-18T14:26:51.354Z</time>
      </trkpt>
      <trkpt lat="50.762477" lon="3.710769">
        <ele>90.570317</ele>
        <time>2025-03-18T14:26:54.313Z</time>
      </trkpt>
      <trkpt lat="50.762402" lon="3.711048">
        <ele>88.908152</ele>
        <time>2025-03-18T14:26:56.215Z</time>
      </trkpt>
      <trkpt lat="50.762340" lon="3.711184">
        <ele>87.988978</ele>
        <time>2025-03-18T14:26:57.264Z</time>
      </trkpt>
      <trkpt lat="50.762230" lon="3.711332">
        <ele>86.736908</ele>
        <time>2025-03-18T14:26:58.691Z</time>
      </trkpt>
      <trkpt lat="50.761609" lon="3.711887">
        <ele>81.585102</ele>
        <time>2025-03-18T14:27:05.861Z</time>
      </trkpt>
      <trkpt lat="50.760998" lon="3.712433">
        <ele>77.225707</ele>
        <time>2025-03-18T14:27:13.246Z</time>
      </trkpt>
      <trkpt lat="50.760830" lon="3.712536">
        <ele>76.106498</ele>
        <time>2025-03-18T14:27:15.175Z</time>
      </trkpt>
      <trkpt lat="50.760738" lon="3.712535">
        <ele>75.535052</ele>
        <time>2025-03-18T14:27:16.160Z</time>
      </trkpt>
      <trkpt lat="50.760616" lon="3.712439">
        <ele>74.688600</ele>
        <time>2025-03-18T14:27:17.627Z</time>
      </trkpt>
      <trkpt lat="50.759520" lon="3.710404">
        <ele>66.001403</ele>
        <time>2025-03-18T14:27:35.966Z</time>
      </trkpt>
      <trkpt lat="50.759349" lon="3.710092">
        <ele>64.712439</ele>
        <time>2025-03-18T14:27:38.790Z</time>
      </trkpt>
      <trkpt lat="50.759264" lon="3.710002">
        <ele>64.207470</ele>
        <time>2025-03-18T14:27:39.886Z</time>
      </trkpt>
      <trkpt lat="50.759164" lon="3.709955">
        <ele>63.803488</ele>
        <time>2025-03-18T14:27:41.003Z</time>
      </trkpt>
      <trkpt lat="50.758997" lon="3.710008">
        <ele>63.169538</ele>
        <time>2025-03-18T14:27:42.841Z</time>
      </trkpt>
      <trkpt lat="50.758065" lon="3.710679">
        <ele>59.357961</ele>
        <time>2025-03-18T14:27:54.176Z</time>
      </trkpt>
      <trkpt lat="50.757951" lon="3.710902">
        <ele>58.682914</ele>
        <time>2025-03-18T14:27:56.288Z</time>
      </trkpt>
      <trkpt lat="50.756394" lon="3.714565">
        <ele>55.199801</ele>
        <time>2025-03-18T14:28:33.446Z</time>
      </trkpt>
      <trkpt lat="50.756242" lon="3.714855">
        <ele>55.358355</ele>
        <time>2025-03-18T14:28:37.714Z</time>
      </trkpt>
      <trkpt lat="50.755922" lon="3.715281">
        <ele>55.636776</ele>
        <time>2025-03-18T14:28:46.241Z</time>
      </trkpt>
      <trkpt lat="50.755877" lon="3.715227">
        <ele>55.674376</ele>
        <time>2025-03-18T14:28:47.564Z</time>
      </trkpt>
      <trkpt lat="50.755455" lon="3.714236">
        <ele>57.054865</ele>
        <time>2025-03-18T14:29:06.253Z</time>
      </trkpt>
      <trkpt lat="50.755207" lon="3.713586">
        <ele>58.644214</ele>
        <time>2025-03-18T14:29:20.067Z</time>
      </trkpt>
      <trkpt lat="50.755039" lon="3.713047">
        <ele>59.902335</ele>
        <time>2025-03-18T14:29:30.882Z</time>
      </trkpt>
      <trkpt lat="50.754511" lon="3.711026">
        <ele>64.338390</ele>
        <time>2025-03-18T14:30:07.329Z</time>
      </trkpt>
      <trkpt lat="50.754315" lon="3.710147">
        <ele>66.181902</ele>
        <time>2025-03-18T14:30:22.212Z</time>
      </trkpt>
      <trkpt lat="50.754240" lon="3.709666">
        <ele>67.161802</ele>
        <time>2025-03-18T14:30:30.342Z</time>
      </trkpt>
      <trkpt lat="50.754218" lon="3.709101">
        <ele>68.564068</ele>
        <time>2025-03-18T14:30:39.913Z</time>
      </trkpt>
      <trkpt lat="50.754220" lon="3.708875">
        <ele>69.179933</ele>
        <time>2025-03-18T14:30:43.871Z</time>
      </trkpt>
      <trkpt lat="50.754250" lon="3.708674">
        <ele>69.742653</ele>
        <time>2025-03-18T14:30:47.582Z</time>
      </trkpt>
      <trkpt lat="50.754236" lon="3.708369">
        <ele>70.575901</ele>
        <time>2025-03-18T14:30:53.188Z</time>
      </trkpt>
      <trkpt lat="50.754170" lon="3.707959">
        <ele>71.728667</ele>
        <time>2025-03-18T14:31:01.210Z</time>
      </trkpt>
      <trkpt lat="50.753748" lon="3.706024">
        <ele>76.817149</ele>
        <time>2025-03-18T14:31:43.137Z</time>
      </trkpt>
      <trkpt lat="50.753583" lon="3.705355">
        <ele>78.301897</ele>
        <time>2025-03-18T14:31:57.264Z</time>
      </trkpt>
      <trkpt lat="50.753472" lon="3.705045">
        <ele>79.038455</ele>
        <time>2025-03-18T14:32:03.978Z</time>
      </trkpt>
      <trkpt lat="50.753335" lon="3.704254">
        <ele>80.734264</ele>
        <time>2025-03-18T14:32:16.177Z</time>
      </trkpt>
      <trkpt lat="50.753335" lon="3.704250">
        <ele>80.742535</ele>
        <time>2025-03-18T14:32:16.219Z</time>
      </trkpt>
      <trkpt lat="50.753326" lon="3.704073">
        <ele>81.109715</ele>
        <time>2025-03-18T14:32:18.183Z</time>
      </trkpt>
      <trkpt lat="50.753398" lon="3.703476">
        <ele>79.705130</ele>
        <time>2025-03-18T14:32:23.504Z</time>
      </trkpt>
      <trkpt lat="50.753168" lon="3.703710">
        <ele>78.629519</ele>
        <time>2025-03-18T14:32:25.752Z</time>
      </trkpt>
      <trkpt lat="50.753163" lon="3.703719">
        <ele>78.599720</ele>
        <time>2025-03-18T14:32:25.812Z</time>
      </trkpt>
      <trkpt lat="50.753089" lon="3.703831">
        <ele>78.196830</ele>
        <time>2025-03-18T14:32:26.612Z</time>
      </trkpt>
      <trkpt lat="50.753001" lon="3.704034">
        <ele>77.584608</ele>
        <time>2025-03-18T14:32:27.814Z</time>
      </trkpt>
      <trkpt lat="50.752757" lon="3.704768">
        <ele>75.521763</ele>
        <time>2025-03-18T14:32:31.684Z</time>
      </trkpt>
      <trkpt lat="50.752522" lon="3.705431">
        <ele>73.363819</ele>
        <time>2025-03-18T14:32:35.142Z</time>
      </trkpt>
      <trkpt lat="50.752399" lon="3.705969">
        <ele>71.103688</ele>
        <time>2025-03-18T14:32:37.767Z</time>
      </trkpt>
      <trkpt lat="50.752266" lon="3.705767">
        <ele>69.951826</ele>
        <time>2025-03-18T14:32:39.687Z</time>
      </trkpt>
      <trkpt lat="50.752203" lon="3.705536">
        <ele>68.957969</ele>
        <time>2025-03-18T14:32:41.352Z</time>
      </trkpt>
      <trkpt lat="50.752078" lon="3.705295">
        <ele>67.726712</ele>
        <time>2025-03-18T14:32:43.424Z</time>
      </trkpt>
      <trkpt lat="50.752001" lon="3.704857">
        <ele>65.930622</ele>
        <time>2025-03-18T14:32:46.444Z</time>
      </trkpt>
      <trkpt lat="50.751928" lon="3.704780">
        <ele>65.382558</ele>
        <time>2025-03-18T14:32:47.368Z</time>
      </trkpt>
      <trkpt lat="50.751486" lon="3.704796">
        <ele>62.660280</ele>
        <time>2025-03-18T14:32:51.999Z</time>
      </trkpt>
      <trkpt lat="50.750587" lon="3.705013">
        <ele>57.928981</ele>
        <time>2025-03-18T14:33:01.472Z</time>
      </trkpt>
      <trkpt lat="50.750387" lon="3.705036">
        <ele>56.885724</ele>
        <time>2025-03-18T14:33:03.592Z</time>
      </trkpt>
      <trkpt lat="50.750248" lon="3.705001">
        <ele>56.153454</ele>
        <time>2025-03-18T14:33:05.098Z</time>
      </trkpt>
      <trkpt lat="50.749538" lon="3.704491">
        <ele>53.343496</ele>
        <time>2025-03-18T14:33:13.974Z</time>
      </trkpt>
      <trkpt lat="50.749293" lon="3.704403">
        <ele>53.201288</ele>
        <time>2025-03-18T14:33:17.346Z</time>
      </trkpt>
      <trkpt lat="50.748924" lon="3.704336">
        <ele>52.991057</ele>
        <time>2025-03-18T14:33:23.091Z</time>
      </trkpt>
      <trkpt lat="50.748210" lon="3.704608">
        <ele>52.575353</ele>
        <time>2025-03-18T14:33:36.501Z</time>
      </trkpt>
      <trkpt lat="50.748213" lon="3.703809">
        <ele>53.003680</ele>
        <time>2025-03-18T14:33:46.647Z</time>
      </trkpt>
      <trkpt lat="50.748121" lon="3.703155">
        <ele>53.673050</ele>
        <time>2025-03-18T14:33:55.100Z</time>
      </trkpt>
      <trkpt lat="50.748007" lon="3.702920">
        <ele>53.968905</ele>
        <time>2025-03-18T14:33:58.785Z</time>
      </trkpt>
      <trkpt lat="50.747841" lon="3.702736">
        <ele>54.289066</ele>
        <time>2025-03-18T14:34:02.814Z</time>
      </trkpt>
      <trkpt lat="50.747753" lon="3.702543">
        <ele>54.526746</ele>
        <time>2025-03-18T14:34:05.921Z</time>
      </trkpt>
      <trkpt lat="50.747643" lon="3.702068">
        <ele>55.032113</ele>
        <time>2025-03-18T14:34:12.970Z</time>
      </trkpt>
      <trkpt lat="50.747278" lon="3.700947">
        <ele>57.605582</ele>
        <time>2025-03-18T14:34:33.526Z</time>
      </trkpt>
      <trkpt lat="50.747020" lon="3.699981">
        <ele>60.066560</ele>
        <time>2025-03-18T14:34:52.930Z</time>
      </trkpt>
      <trkpt lat="50.746825" lon="3.699647">
        <ele>61.133209</ele>
        <time>2025-03-18T14:35:01.674Z</time>
      </trkpt>
      <trkpt lat="50.744828" lon="3.697290">
        <ele>71.484743</ele>
        <time>2025-03-18T14:36:17.977Z</time>
      </trkpt>
      <trkpt lat="50.744236" lon="3.696536">
        <ele>73.831058</ele>
        <time>2025-03-18T14:36:39.404Z</time>
      </trkpt>
      <trkpt lat="50.743552" lon="3.695710">
        <ele>75.507062</ele>
        <time>2025-03-18T14:36:57.612Z</time>
      </trkpt>
      <trkpt lat="50.743550" lon="3.695708">
        <ele>75.506237</ele>
        <time>2025-03-18T14:36:57.656Z</time>
      </trkpt>
      <trkpt lat="50.742514" lon="3.694566">
        <ele>75.065479</ele>
        <time>2025-03-18T14:37:15.274Z</time>
      </trkpt>
      <trkpt lat="50.743468" lon="3.693720">
        <ele>75.128565</ele>
        <time>2025-03-18T14:37:30.670Z</time>
      </trkpt>
      <trkpt lat="50.744112" lon="3.693076">
        <ele>75.263207</ele>
        <time>2025-03-18T14:37:44.511Z</time>
      </trkpt>
      <trkpt lat="50.744114" lon="3.693074">
        <ele>75.263625</ele>
        <time>2025-03-18T14:37:44.550Z</time>
      </trkpt>
      <trkpt lat="50.744974" lon="3.691767">
        <ele>77.813641</ele>
        <time>2025-03-18T14:38:11.974Z</time>
      </trkpt>
      <trkpt lat="50.745229" lon="3.691343">
        <ele>78.740373</ele>
        <time>2025-03-18T14:38:21.445Z</time>
      </trkpt>
      <trkpt lat="50.745302" lon="3.691159">
        <ele>79.084437</ele>
        <time>2025-03-18T14:38:25.046Z</time>
      </trkpt>
      <trkpt lat="50.745331" lon="3.691049">
        <ele>79.273227</ele>
        <time>2025-03-18T14:38:27.036Z</time>
      </trkpt>
      <trkpt lat="50.745399" lon="3.690288">
        <ele>80.905723</ele>
        <time>2025-03-18T14:38:40.272Z</time>
      </trkpt>
      <trkpt lat="50.745676" lon="3.688532">
        <ele>85.495059</ele>
        <time>2025-03-18T14:39:13.895Z</time>
      </trkpt>
      <trkpt lat="50.745792" lon="3.687355">
        <ele>88.388543</ele>
        <time>2025-03-18T14:39:36.913Z</time>
      </trkpt>
      <trkpt lat="50.745820" lon="3.686523">
        <ele>90.323021</ele>
        <time>2025-03-18T14:39:52.377Z</time>
      </trkpt>
      <trkpt lat="50.745833" lon="3.686385">
        <ele>90.646962</ele>
        <time>2025-03-18T14:39:54.868Z</time>
      </trkpt>
      <trkpt lat="50.745905" lon="3.686152">
        <ele>91.249007</ele>
        <time>2025-03-18T14:39:59.366Z</time>
      </trkpt>
      <trkpt lat="50.746205" lon="3.685495">
        <ele>93.130143</ele>
        <time>2025-03-18T14:40:12.598Z</time>
      </trkpt>
      <trkpt lat="50.746973" lon="3.684413">
        <ele>96.049333</ele>
        <time>2025-03-18T14:40:37.930Z</time>
      </trkpt>
      <trkpt lat="50.747253" lon="3.683993">
        <ele>97.098064</ele>
        <time>2025-03-18T14:40:47.275Z</time>
      </trkpt>
      <trkpt lat="50.747716" lon="3.683541">
        <ele>98.586510</ele>
        <time>2025-03-18T14:41:00.826Z</time>
      </trkpt>
      <trkpt lat="50.747771" lon="3.683414">
        <ele>98.883373</ele>
        <time>2025-03-18T14:41:03.307Z</time>
      </trkpt>
      <trkpt lat="50.747809" lon="3.683234">
        <ele>99.249401</ele>
        <time>2025-03-18T14:41:06.399Z</time>
      </trkpt>
      <trkpt lat="50.747843" lon="3.682794">
        <ele>100.104444</ele>
        <time>2025-03-18T14:41:13.671Z</time>
      </trkpt>
      <trkpt lat="50.747722" lon="3.681877">
        <ele>101.911347</ele>
        <time>2025-03-18T14:41:29.029Z</time>
      </trkpt>
      <trkpt lat="50.747749" lon="3.681224">
        <ele>103.173640</ele>
        <time>2025-03-18T14:41:39.663Z</time>
      </trkpt>
      <trkpt lat="50.747767" lon="3.681072">
        <ele>103.471932</ele>
        <time>2025-03-18T14:41:42.203Z</time>
      </trkpt>
      <trkpt lat="50.747934" lon="3.679622">
        <ele>106.927704</ele>
        <time>2025-03-18T14:42:07.792Z</time>
      </trkpt>
      <trkpt lat="50.748038" lon="3.678182">
        <ele>110.456550</ele>
        <time>2025-03-18T14:42:34.859Z</time>
      </trkpt>
      <trkpt lat="50.748307" lon="3.676015">
        <ele>115.745922</ele>
        <time>2025-03-18T14:43:16.301Z</time>
      </trkpt>
      <trkpt lat="50.748399" lon="3.674631">
        <ele>118.356405</ele>
        <time>2025-03-18T14:43:38.768Z</time>
      </trkpt>
      <trkpt lat="50.748777" lon="3.674790">
        <ele>119.063877</ele>
        <time>2025-03-18T14:43:45.983Z</time>
      </trkpt>
      <trkpt lat="50.749481" lon="3.675006">
        <ele>120.360942</ele>
        <time>2025-03-18T14:43:58.157Z</time>
      </trkpt>
      <trkpt lat="50.750271" lon="3.675420">
        <ele>120.612069</ele>
        <time>2025-03-18T14:44:10.288Z</time>
      </trkpt>
      <trkpt lat="50.750805" lon="3.675516">
        <ele>120.252179</ele>
        <time>2025-03-18T14:44:15.769Z</time>
      </trkpt>
      <trkpt lat="50.750813" lon="3.674825">
        <ele>119.959371</ele>
        <time>2025-03-18T14:44:21.518Z</time>
      </trkpt>
      <trkpt lat="50.750772" lon="3.674133">
        <ele>119.621740</ele>
        <time>2025-03-18T14:44:26.996Z</time>
      </trkpt>
      <trkpt lat="50.750746" lon="3.673991">
        <ele>119.525985</ele>
        <time>2025-03-18T14:44:28.145Z</time>
      </trkpt>
      <trkpt lat="50.750372" lon="3.673473">
        <ele>119.016870</ele>
        <time>2025-03-18T14:44:34.260Z</time>
      </trkpt>
      <trkpt lat="50.749901" lon="3.672819">
        <ele>118.375003</ele>
        <time>2025-03-18T14:44:42.896Z</time>
      </trkpt>
      <trkpt lat="50.749381" lon="3.671735">
        <ele>118.161965</ele>
        <time>2025-03-18T14:44:58.453Z</time>
      </trkpt>
      <trkpt lat="50.748873" lon="3.670945">
        <ele>118.617735</ele>
        <time>2025-03-18T14:45:12.820Z</time>
      </trkpt>
      <trkpt lat="50.748843" lon="3.670791">
        <ele>118.682935</ele>
        <time>2025-03-18T14:45:14.740Z</time>
      </trkpt>
      <trkpt lat="50.748783" lon="3.670460">
        <ele>118.822258</ele>
        <time>2025-03-18T14:45:18.819Z</time>
      </trkpt>
      <trkpt lat="50.748379" lon="3.668441">
        <ele>118.186684</ele>
        <time>2025-03-18T14:45:40.088Z</time>
      </trkpt>
      <trkpt lat="50.748234" lon="3.667872">
        <ele>117.841023</ele>
        <time>2025-03-18T14:45:45.454Z</time>
      </trkpt>
      <trkpt lat="50.748104" lon="3.667410">
        <ele>117.556101</ele>
        <time>2025-03-18T14:45:49.573Z</time>
      </trkpt>
      <trkpt lat="50.747890" lon="3.666817">
        <ele>116.290661</ele>
        <time>2025-03-18T14:45:54.838Z</time>
      </trkpt>
      <trkpt lat="50.747031" lon="3.664394">
        <ele>109.935398</ele>
        <time>2025-03-18T14:46:14.432Z</time>
      </trkpt>
      <trkpt lat="50.746921" lon="3.663906">
        <ele>108.847137</ele>
        <time>2025-03-18T14:46:18.096Z</time>
      </trkpt>
      <trkpt lat="50.746832" lon="3.663201">
        <ele>107.336935</ele>
        <time>2025-03-18T14:46:23.267Z</time>
      </trkpt>
      <trkpt lat="50.746721" lon="3.661492">
        <ele>104.152258</ele>
        <time>2025-03-18T14:46:36.466Z</time>
      </trkpt>
      <trkpt lat="50.746603" lon="3.659481">
        <ele>101.474428</ele>
        <time>2025-03-18T14:46:53.028Z</time>
      </trkpt>
      <trkpt lat="50.746671" lon="3.659274">
        <ele>101.165182</ele>
        <time>2025-03-18T14:46:54.870Z</time>
      </trkpt>
      <trkpt lat="50.746856" lon="3.658893">
        <ele>100.089765</ele>
        <time>2025-03-18T14:46:58.574Z</time>
      </trkpt>
      <trkpt lat="50.747784" lon="3.656467">
        <ele>92.556415</ele>
        <time>2025-03-18T14:47:18.791Z</time>
      </trkpt>
      <trkpt lat="50.748010" lon="3.655512">
        <ele>87.964813</ele>
        <time>2025-03-18T14:47:25.500Z</time>
      </trkpt>
      <trkpt lat="50.748076" lon="3.655038">
        <ele>85.779183</ele>
        <time>2025-03-18T14:47:28.590Z</time>
      </trkpt>
      <trkpt lat="50.748052" lon="3.654498">
        <ele>83.341420</ele>
        <time>2025-03-18T14:47:31.981Z</time>
      </trkpt>
      <trkpt lat="50.747788" lon="3.652947">
        <ele>75.617734</ele>
        <time>2025-03-18T14:47:41.931Z</time>
      </trkpt>
      <trkpt lat="50.747771" lon="3.652755">
        <ele>74.667958</ele>
        <time>2025-03-18T14:47:43.151Z</time>
      </trkpt>
      <trkpt lat="50.747773" lon="3.652413">
        <ele>72.992423</ele>
        <time>2025-03-18T14:47:45.312Z</time>
      </trkpt>
      <trkpt lat="50.747915" lon="3.651757">
        <ele>69.595810</ele>
        <time>2025-03-18T14:47:49.826Z</time>
      </trkpt>
      <trkpt lat="50.747951" lon="3.651509">
        <ele>68.349295</ele>
        <time>2025-03-18T14:47:51.543Z</time>
      </trkpt>
      <trkpt lat="50.747957" lon="3.651265">
        <ele>67.648490</ele>
        <time>2025-03-18T14:47:53.233Z</time>
      </trkpt>
      <trkpt lat="50.747873" lon="3.650511">
        <ele>66.922657</ele>
        <time>2025-03-18T14:47:58.942Z</time>
      </trkpt>
      <trkpt lat="50.747835" lon="3.649702">
        <ele>66.153564</ele>
        <time>2025-03-18T14:48:06.042Z</time>
      </trkpt>
      <trkpt lat="50.747794" lon="3.647165">
        <ele>64.759400</ele>
        <time>2025-03-18T14:48:34.557Z</time>
      </trkpt>
      <trkpt lat="50.747778" lon="3.646768">
        <ele>64.670306</ele>
        <time>2025-03-18T14:48:38.399Z</time>
      </trkpt>
      <trkpt lat="50.747749" lon="3.645606">
        <ele>64.286456</ele>
        <time>2025-03-18T14:48:48.436Z</time>
      </trkpt>
      <trkpt lat="50.747766" lon="3.645431">
        <ele>64.057580</ele>
        <time>2025-03-18T14:48:49.872Z</time>
      </trkpt>
      <trkpt lat="50.747837" lon="3.645184">
        <ele>63.706875</ele>
        <time>2025-03-18T14:48:52.037Z</time>
      </trkpt>
      <trkpt lat="50.747964" lon="3.644887">
        <ele>63.243485</ele>
        <time>2025-03-18T14:48:54.838Z</time>
      </trkpt>
      <trkpt lat="50.748059" lon="3.644501">
        <ele>62.708081</ele>
        <time>2025-03-18T14:48:58.090Z</time>
      </trkpt>
      <trkpt lat="50.748004" lon="3.643515">
        <ele>61.428528</ele>
        <time>2025-03-18T14:49:06.080Z</time>
      </trkpt>
      <trkpt lat="50.748030" lon="3.643260">
        <ele>61.094635</ele>
        <time>2025-03-18T14:49:08.119Z</time>
      </trkpt>
      <trkpt lat="50.748129" lon="3.643044">
        <ele>60.737671</ele>
        <time>2025-03-18T14:49:10.195Z</time>
      </trkpt>
      <trkpt lat="50.748224" lon="3.642918">
        <ele>60.207118</ele>
        <time>2025-03-18T14:49:11.685Z</time>
      </trkpt>
      <trkpt lat="50.748432" lon="3.642833">
        <ele>59.288036</ele>
        <time>2025-03-18T14:49:14.218Z</time>
      </trkpt>
      <trkpt lat="50.748570" lon="3.642709">
        <ele>58.608934</ele>
        <time>2025-03-18T14:49:16.050Z</time>
      </trkpt>
      <trkpt lat="50.748638" lon="3.642621">
        <ele>58.232953</ele>
        <time>2025-03-18T14:49:17.043Z</time>
      </trkpt>
      <trkpt lat="50.748730" lon="3.642337">
        <ele>57.369335</ele>
        <time>2025-03-18T14:49:19.308Z</time>
      </trkpt>
      <trkpt lat="50.748728" lon="3.641942">
        <ele>56.300127</ele>
        <time>2025-03-18T14:49:22.058Z</time>
      </trkpt>
      <trkpt lat="50.748617" lon="3.641004">
        <ele>53.717151</ele>
        <time>2025-03-18T14:49:28.515Z</time>
      </trkpt>
      <trkpt lat="50.748567" lon="3.640526">
        <ele>52.346101</ele>
        <time>2025-03-18T14:49:31.727Z</time>
      </trkpt>
      <trkpt lat="50.748428" lon="3.638502">
        <ele>46.337876</ele>
        <time>2025-03-18T14:49:45.559Z</time>
      </trkpt>
      <trkpt lat="50.748382" lon="3.638099">
        <ele>45.129359</ele>
        <time>2025-03-18T14:49:48.519Z</time>
      </trkpt>
      <trkpt lat="50.748068" lon="3.636422">
        <ele>43.530499</ele>
        <time>2025-03-18T14:50:02.530Z</time>
      </trkpt>
      <trkpt lat="50.747974" lon="3.635456">
        <ele>42.828132</ele>
        <time>2025-03-18T14:50:12.470Z</time>
      </trkpt>
      <trkpt lat="50.747916" lon="3.635075">
        <ele>42.734081</ele>
        <time>2025-03-18T14:50:17.020Z</time>
      </trkpt>
      <trkpt lat="50.747832" lon="3.634751">
        <ele>43.019721</ele>
        <time>2025-03-18T14:50:21.339Z</time>
      </trkpt>
      <trkpt lat="50.747651" lon="3.634391">
        <ele>43.394829</ele>
        <time>2025-03-18T14:50:27.324Z</time>
      </trkpt>
      <trkpt lat="50.747016" lon="3.633296">
        <ele>44.606535</ele>
        <time>2025-03-18T14:50:47.452Z</time>
      </trkpt>
      <trkpt lat="50.746769" lon="3.632651">
        <ele>45.154962</ele>
        <time>2025-03-18T14:50:57.371Z</time>
      </trkpt>
      <trkpt lat="50.746559" lon="3.631852">
        <ele>45.685479</ele>
        <time>2025-03-18T14:51:08.434Z</time>
      </trkpt>
      <trkpt lat="50.746555" lon="3.631676">
        <ele>45.793468</ele>
        <time>2025-03-18T14:51:10.133Z</time>
      </trkpt>
      <trkpt lat="50.746655" lon="3.631336">
        <ele>46.023372</ele>
        <time>2025-03-18T14:51:13.699Z</time>
      </trkpt>
      <trkpt lat="50.746681" lon="3.631272">
        <ele>46.070008</ele>
        <time>2025-03-18T14:51:14.411Z</time>
      </trkpt>
      <trkpt lat="50.746915" lon="3.630692">
        <ele>46.491796</ele>
        <time>2025-03-18T14:51:20.571Z</time>
      </trkpt>
      <trkpt lat="50.747211" lon="3.629968">
        <ele>46.705306</ele>
        <time>2025-03-18T14:51:27.557Z</time>
      </trkpt>
      <trkpt lat="50.747422" lon="3.629549">
        <ele>46.714377</ele>
        <time>2025-03-18T14:51:31.704Z</time>
      </trkpt>
      <trkpt lat="50.748305" lon="3.628258">
        <ele>46.810219</ele>
        <time>2025-03-18T14:51:45.074Z</time>
      </trkpt>
      <trkpt lat="50.748768" lon="3.627351">
        <ele>47.436118</ele>
        <time>2025-03-18T14:51:57.954Z</time>
      </trkpt>
      <trkpt lat="50.749552" lon="3.625322">
        <ele>48.749111</ele>
        <time>2025-03-18T14:52:28.984Z</time>
      </trkpt>
      <trkpt lat="50.749656" lon="3.624995">
        <ele>48.961754</ele>
        <time>2025-03-18T14:52:33.704Z</time>
      </trkpt>
      <trkpt lat="50.749698" lon="3.624934">
        <ele>49.014133</ele>
        <time>2025-03-18T14:52:34.882Z</time>
      </trkpt>
      <trkpt lat="50.749769" lon="3.624891">
        <ele>49.083954</ele>
        <time>2025-03-18T14:52:36.384Z</time>
      </trkpt>
      <trkpt lat="50.749723" lon="3.624512">
        <ele>49.308171</ele>
        <time>2025-03-18T14:52:41.172Z</time>
      </trkpt>
      <trkpt lat="50.749747" lon="3.624313">
        <ele>49.425874</ele>
        <time>2025-03-18T14:52:43.592Z</time>
      </trkpt>
      <trkpt lat="50.749768" lon="3.624223">
        <ele>49.481607</ele>
        <time>2025-03-18T14:52:44.699Z</time>
      </trkpt>
      <trkpt lat="50.749893" lon="3.623652">
        <ele>49.832658</ele>
        <time>2025-03-18T14:52:51.440Z</time>
      </trkpt>
      <trkpt lat="50.749908" lon="3.623245">
        <ele>49.796801</ele>
        <time>2025-03-18T14:52:55.689Z</time>
      </trkpt>
      <trkpt lat="50.749866" lon="3.622480">
        <ele>49.412994</ele>
        <time>2025-03-18T14:53:03.277Z</time>
      </trkpt>
      <trkpt lat="50.749799" lon="3.622086">
        <ele>49.209072</ele>
        <time>2025-03-18T14:53:06.967Z</time>
      </trkpt>
      <trkpt lat="50.749719" lon="3.621790">
        <ele>49.048189</ele>
        <time>2025-03-18T14:53:09.783Z</time>
      </trkpt>
      <trkpt lat="50.749548" lon="3.621335">
        <ele>48.783670</ele>
        <time>2025-03-18T14:53:14.237Z</time>
      </trkpt>
      <trkpt lat="50.748850" lon="3.619739">
        <ele>47.609645</ele>
        <time>2025-03-18T14:53:30.263Z</time>
      </trkpt>
      <trkpt lat="50.748785" lon="3.619591">
        <ele>47.492863</ele>
        <time>2025-03-18T14:53:31.813Z</time>
      </trkpt>
      <trkpt lat="50.748345" lon="3.619695">
        <ele>47.037076</ele>
        <time>2025-03-18T14:53:38.131Z</time>
      </trkpt>
      <trkpt lat="50.748207" lon="3.619752">
        <ele>46.890948</ele>
        <time>2025-03-18T14:53:40.262Z</time>
      </trkpt>
      <trkpt lat="50.748026" lon="3.619919">
        <ele>46.676230</ele>
        <time>2025-03-18T14:53:43.471Z</time>
      </trkpt>
      <trkpt lat="50.747541" lon="3.620694">
        <ele>46.511691</ele>
        <time>2025-03-18T14:53:54.788Z</time>
      </trkpt>
      <trkpt lat="50.747141" lon="3.621425">
        <ele>46.377581</ele>
        <time>2025-03-18T14:54:04.494Z</time>
      </trkpt>
      <trkpt lat="50.746955" lon="3.621870">
        <ele>46.303572</ele>
        <time>2025-03-18T14:54:09.563Z</time>
      </trkpt>
      <trkpt lat="50.746909" lon="3.621962">
        <ele>46.287301</ele>
        <time>2025-03-18T14:54:10.665Z</time>
      </trkpt>
      <trkpt lat="50.746650" lon="3.622387">
        <ele>46.326993</ele>
        <time>2025-03-18T14:54:16.183Z</time>
      </trkpt>
      <trkpt lat="50.746602" lon="3.622433">
        <ele>46.339858</ele>
        <time>2025-03-18T14:54:17.007Z</time>
      </trkpt>
      <trkpt lat="50.745971" lon="3.623068">
        <ele>46.511291</ele>
        <time>2025-03-18T14:54:28.454Z</time>
      </trkpt>
      <trkpt lat="50.745132" lon="3.624123">
        <ele>46.868636</ele>
        <time>2025-03-18T14:54:49.525Z</time>
      </trkpt>
      <trkpt lat="50.744819" lon="3.624646">
        <ele>47.118804</ele>
        <time>2025-03-18T14:54:58.589Z</time>
      </trkpt>
      <trkpt lat="50.744709" lon="3.624901">
        <ele>47.226056</ele>
        <time>2025-03-18T14:55:01.470Z</time>
      </trkpt>
      <trkpt lat="50.744644" lon="3.624765">
        <ele>47.285286</ele>
        <time>2025-03-18T14:55:03.462Z</time>
      </trkpt>
      <trkpt lat="50.744488" lon="3.624549">
        <ele>47.399195</ele>
        <time>2025-03-18T14:55:07.264Z</time>
      </trkpt>
      <trkpt lat="50.744357" lon="3.624048">
        <ele>47.587584</ele>
        <time>2025-03-18T14:55:13.029Z</time>
      </trkpt>
      <trkpt lat="50.744231" lon="3.623731">
        <ele>47.546159</ele>
        <time>2025-03-18T14:55:16.486Z</time>
      </trkpt>
      <trkpt lat="50.743953" lon="3.623027">
        <ele>46.897634</ele>
        <time>2025-03-18T14:55:23.488Z</time>
      </trkpt>
      <trkpt lat="50.743850" lon="3.622687">
        <ele>46.603039</ele>
        <time>2025-03-18T14:55:26.621Z</time>
      </trkpt>
      <trkpt lat="50.743470" lon="3.622376">
        <ele>46.074523</ele>
        <time>2025-03-18T14:55:32.287Z</time>
      </trkpt>
      <trkpt lat="50.742961" lon="3.622023">
        <ele>45.388949</ele>
        <time>2025-03-18T14:55:39.552Z</time>
      </trkpt>
      <trkpt lat="50.741258" lon="3.621126">
        <ele>43.219443</ele>
        <time>2025-03-18T14:56:03.839Z</time>
      </trkpt>
      <trkpt lat="50.741036" lon="3.621722">
        <ele>42.797590</ele>
        <time>2025-03-18T14:56:10.127Z</time>
      </trkpt>
      <trkpt lat="50.740945" lon="3.621836">
        <ele>42.685654</ele>
        <time>2025-03-18T14:56:11.832Z</time>
      </trkpt>
      <trkpt lat="50.740872" lon="3.621876">
        <ele>42.611179</ele>
        <time>2025-03-18T14:56:12.948Z</time>
      </trkpt>
      <trkpt lat="50.740788" lon="3.621860">
        <ele>42.529624</ele>
        <time>2025-03-18T14:56:14.200Z</time>
      </trkpt>
      <trkpt lat="50.740102" lon="3.620746">
        <ele>41.581465</ele>
        <time>2025-03-18T14:56:27.996Z</time>
      </trkpt>
      <trkpt lat="50.739720" lon="3.620417">
        <ele>41.049852</ele>
        <time>2025-03-18T14:56:33.768Z</time>
      </trkpt>
      <trkpt lat="50.739584" lon="3.620351">
        <ele>40.870366</ele>
        <time>2025-03-18T14:56:35.658Z</time>
      </trkpt>
      <trkpt lat="50.739513" lon="3.620379">
        <ele>40.778046</ele>
        <time>2025-03-18T14:56:36.625Z</time>
      </trkpt>
      <trkpt lat="50.738919" lon="3.620616">
        <ele>40.005140</ele>
        <time>2025-03-18T14:56:44.759Z</time>
      </trkpt>
      <trkpt lat="50.738849" lon="3.620615">
        <ele>39.916825</ele>
        <time>2025-03-18T14:56:45.695Z</time>
      </trkpt>
      <trkpt lat="50.738794" lon="3.620589">
        <ele>39.844399</ele>
        <time>2025-03-18T14:56:46.454Z</time>
      </trkpt>
      <trkpt lat="50.738698" lon="3.620457">
        <ele>39.683852</ele>
        <time>2025-03-18T14:56:48.149Z</time>
      </trkpt>
      <trkpt lat="50.738496" lon="3.620082">
        <ele>39.290676</ele>
        <time>2025-03-18T14:56:52.387Z</time>
      </trkpt>
      <trkpt lat="50.738188" lon="3.619457">
        <ele>39.300057</ele>
        <time>2025-03-18T14:56:59.373Z</time>
      </trkpt>
      <trkpt lat="50.737951" lon="3.618673">
        <ele>39.350617</ele>
        <time>2025-03-18T14:57:07.426Z</time>
      </trkpt>
      <trkpt lat="50.737714" lon="3.617889">
        <ele>39.401177</ele>
        <time>2025-03-18T14:57:17.223Z</time>
      </trkpt>
      <trkpt lat="50.737602" lon="3.617731">
        <ele>39.414983</ele>
        <time>2025-03-18T14:57:20.282Z</time>
      </trkpt>
      <trkpt lat="50.737554" lon="3.617891">
        <ele>39.534333</ele>
        <time>2025-03-18T14:57:22.656Z</time>
      </trkpt>
      <trkpt lat="50.737184" lon="3.619391">
        <ele>42.592380</ele>
        <time>2025-03-18T14:57:48.301Z</time>
      </trkpt>
      <trkpt lat="50.737164" lon="3.619627">
        <ele>43.044670</ele>
        <time>2025-03-18T14:57:52.671Z</time>
      </trkpt>
      <trkpt lat="50.737179" lon="3.622253">
        <ele>49.107176</ele>
        <time>2025-03-18T14:58:40.230Z</time>
      </trkpt>
      <trkpt lat="50.737165" lon="3.622395">
        <ele>49.471433</ele>
        <time>2025-03-18T14:58:42.844Z</time>
      </trkpt>
      <trkpt lat="50.736742" lon="3.623522">
        <ele>53.010088</ele>
        <time>2025-03-18T14:59:06.863Z</time>
      </trkpt>
      <trkpt lat="50.736741" lon="3.623525">
        <ele>53.021114</ele>
        <time>2025-03-18T14:59:06.938Z</time>
      </trkpt>
      <trkpt lat="50.736546" lon="3.624389">
        <ele>56.004077</ele>
        <time>2025-03-18T14:59:24.929Z</time>
      </trkpt>
      <trkpt lat="50.736408" lon="3.624758">
        <ele>57.397882</ele>
        <time>2025-03-18T14:59:33.952Z</time>
      </trkpt>
      <trkpt lat="50.736159" lon="3.625177">
        <ele>59.266970</ele>
        <time>2025-03-18T14:59:46.575Z</time>
      </trkpt>
      <trkpt lat="50.735608" lon="3.625781">
        <ele>62.517628</ele>
        <time>2025-03-18T15:00:10.732Z</time>
      </trkpt>
      <trkpt lat="50.735228" lon="3.626577">
        <ele>65.322834</ele>
        <time>2025-03-18T15:00:31.603Z</time>
      </trkpt>
      <trkpt lat="50.735069" lon="3.626829">
        <ele>66.323977</ele>
        <time>2025-03-18T15:00:38.161Z</time>
      </trkpt>
      <trkpt lat="50.734450" lon="3.627407">
        <ele>69.359553</ele>
        <time>2025-03-18T15:00:57.231Z</time>
      </trkpt>
      <trkpt lat="50.734204" lon="3.627744">
        <ele>69.908837</ele>
        <time>2025-03-18T15:01:05.171Z</time>
      </trkpt>
      <trkpt lat="50.733255" lon="3.629325">
        <ele>72.235422</ele>
        <time>2025-03-18T15:01:36.687Z</time>
      </trkpt>
      <trkpt lat="50.733005" lon="3.629551">
        <ele>71.268471</ele>
        <time>2025-03-18T15:01:40.518Z</time>
      </trkpt>
      <trkpt lat="50.732802" lon="3.629439">
        <ele>70.393287</ele>
        <time>2025-03-18T15:01:42.290Z</time>
      </trkpt>
      <trkpt lat="50.732598" lon="3.629276">
        <ele>69.462820</ele>
        <time>2025-03-18T15:01:44.096Z</time>
      </trkpt>
      <trkpt lat="50.731922" lon="3.628588">
        <ele>66.189885</ele>
        <time>2025-03-18T15:01:50.005Z</time>
      </trkpt>
      <trkpt lat="50.730338" lon="3.627321">
        <ele>56.722223</ele>
        <time>2025-03-18T15:02:03.162Z</time>
      </trkpt>
      <trkpt lat="50.730159" lon="3.627123">
        <ele>55.501226</ele>
        <time>2025-03-18T15:02:04.795Z</time>
      </trkpt>
      <trkpt lat="50.729930" lon="3.626774">
        <ele>53.974889</ele>
        <time>2025-03-18T15:02:07.157Z</time>
      </trkpt>
      <trkpt lat="50.729686" lon="3.626594">
        <ele>52.785359</ele>
        <time>2025-03-18T15:02:09.149Z</time>
      </trkpt>
      <trkpt lat="50.729610" lon="3.626489">
        <ele>52.339383</ele>
        <time>2025-03-18T15:02:09.898Z</time>
      </trkpt>
      <trkpt lat="50.729565" lon="3.626364">
        <ele>51.937304</ele>
        <time>2025-03-18T15:02:10.579Z</time>
      </trkpt>
      <trkpt lat="50.729516" lon="3.625887">
        <ele>50.586138</ele>
        <time>2025-03-18T15:02:12.871Z</time>
      </trkpt>
      <trkpt lat="50.729407" lon="3.625268">
        <ele>48.789654</ele>
        <time>2025-03-18T15:02:15.998Z</time>
      </trkpt>
      <trkpt lat="50.729235" lon="3.624624">
        <ele>46.964074</ele>
        <time>2025-03-18T15:02:19.593Z</time>
      </trkpt>
      <trkpt lat="50.729107" lon="3.624675">
        <ele>46.902428</ele>
        <time>2025-03-18T15:02:21.250Z</time>
      </trkpt>
      <trkpt lat="50.728971" lon="3.624666">
        <ele>46.838863</ele>
        <time>2025-03-18T15:02:23.023Z</time>
      </trkpt>
      <trkpt lat="50.728363" lon="3.624365">
        <ele>46.541322</ele>
        <time>2025-03-18T15:02:32.278Z</time>
      </trkpt>
      <trkpt lat="50.728116" lon="3.624322">
        <ele>46.425279</ele>
        <time>2025-03-18T15:02:36.579Z</time>
      </trkpt>
      <trkpt lat="50.727953" lon="3.624222">
        <ele>46.343622</ele>
        <time>2025-03-18T15:02:39.734Z</time>
      </trkpt>
      <trkpt lat="50.727577" lon="3.623961">
        <ele>46.151834</ele>
        <time>2025-03-18T15:02:47.540Z</time>
      </trkpt>
      <trkpt lat="50.727094" lon="3.623333">
        <ele>47.076373</ele>
        <time>2025-03-18T15:03:00.101Z</time>
      </trkpt>
      <trkpt lat="50.726757" lon="3.622928">
        <ele>47.738905</ele>
        <time>2025-03-18T15:03:09.023Z</time>
      </trkpt>
      <trkpt lat="50.726563" lon="3.622744">
        <ele>48.092958</ele>
        <time>2025-03-18T15:03:14.090Z</time>
      </trkpt>
      <trkpt lat="50.726049" lon="3.622397">
        <ele>48.955533</ele>
        <time>2025-03-18T15:03:27.113Z</time>
      </trkpt>
      <trkpt lat="50.725898" lon="3.622359">
        <ele>48.988009</ele>
        <time>2025-03-18T15:03:30.634Z</time>
      </trkpt>
      <trkpt lat="50.725817" lon="3.622405">
        <ele>49.006291</ele>
        <time>2025-03-18T15:03:32.581Z</time>
      </trkpt>
      <trkpt lat="50.725226" lon="3.623045">
        <ele>49.158481</ele>
        <time>2025-03-18T15:03:46.696Z</time>
      </trkpt>
      <trkpt lat="50.724738" lon="3.623392">
        <ele>49.272147</ele>
        <time>2025-03-18T15:03:54.471Z</time>
      </trkpt>
      <trkpt lat="50.724068" lon="3.624015">
        <ele>48.684004</ele>
        <time>2025-03-18T15:04:04.399Z</time>
      </trkpt>
      <trkpt lat="50.723933" lon="3.624091">
        <ele>48.488775</ele>
        <time>2025-03-18T15:04:06.179Z</time>
      </trkpt>
      <trkpt lat="50.723842" lon="3.624063">
        <ele>48.362483</ele>
        <time>2025-03-18T15:04:07.343Z</time>
      </trkpt>
      <trkpt lat="50.723783" lon="3.623975">
        <ele>48.251946</ele>
        <time>2025-03-18T15:04:08.347Z</time>
      </trkpt>
      <trkpt lat="50.723728" lon="3.623784">
        <ele>48.070995</ele>
        <time>2025-03-18T15:04:10.009Z</time>
      </trkpt>
      <trkpt lat="50.723665" lon="3.623148">
        <ele>47.515856</ele>
        <time>2025-03-18T15:04:15.333Z</time>
      </trkpt>
      <trkpt lat="50.723620" lon="3.622959">
        <ele>47.341722</ele>
        <time>2025-03-18T15:04:17.094Z</time>
      </trkpt>
      <trkpt lat="50.723509" lon="3.622811">
        <ele>47.143851</ele>
        <time>2025-03-18T15:04:19.160Z</time>
      </trkpt>
      <trkpt lat="50.723355" lon="3.622729">
        <ele>46.922471</ele>
        <time>2025-03-18T15:04:21.567Z</time>
      </trkpt>
      <trkpt lat="50.723263" lon="3.622732">
        <ele>46.924471</ele>
        <time>2025-03-18T15:04:22.985Z</time>
      </trkpt>
      <trkpt lat="50.723148" lon="3.622807">
        <ele>46.999138</ele>
        <time>2025-03-18T15:04:24.953Z</time>
      </trkpt>
      <trkpt lat="50.722665" lon="3.623313">
        <ele>47.346962</ele>
        <time>2025-03-18T15:04:34.794Z</time>
      </trkpt>
      <trkpt lat="50.722370" lon="3.622871">
        <ele>47.590979</ele>
        <time>2025-03-18T15:04:42.210Z</time>
      </trkpt>
      <trkpt lat="50.721986" lon="3.622326">
        <ele>47.900793</ele>
        <time>2025-03-18T15:04:52.519Z</time>
      </trkpt>
      <trkpt lat="50.721646" lon="3.621937">
        <ele>48.471827</ele>
        <time>2025-03-18T15:05:01.574Z</time>
      </trkpt>
      <trkpt lat="50.721324" lon="3.621454">
        <ele>49.191156</ele>
        <time>2025-03-18T15:05:11.441Z</time>
      </trkpt>
      <trkpt lat="50.720882" lon="3.621094">
        <ele>49.996735</ele>
        <time>2025-03-18T15:05:22.713Z</time>
      </trkpt>
      <trkpt lat="50.719862" lon="3.620038">
        <ele>51.076107</ele>
        <time>2025-03-18T15:05:47.631Z</time>
      </trkpt>
      <trkpt lat="50.719730" lon="3.619840">
        <ele>51.129362</ele>
        <time>2025-03-18T15:05:50.748Z</time>
      </trkpt>
      <trkpt lat="50.719019" lon="3.618403">
        <ele>51.164753</ele>
        <time>2025-03-18T15:06:08.138Z</time>
      </trkpt>
      <trkpt lat="50.719443" lon="3.618099">
        <ele>50.640681</ele>
        <time>2025-03-18T15:06:12.565Z</time>
      </trkpt>
      <trkpt lat="50.720204" lon="3.616987">
        <ele>49.473876</ele>
        <time>2025-03-18T15:06:22.272Z</time>
      </trkpt>
      <trkpt lat="50.720279" lon="3.616878">
        <ele>49.354744</ele>
        <time>2025-03-18T15:06:23.218Z</time>
      </trkpt>
      <trkpt lat="50.721046" lon="3.616163">
        <ele>48.143558</ele>
        <time>2025-03-18T15:06:31.628Z</time>
      </trkpt>
      <trkpt lat="50.721769" lon="3.615125">
        <ele>46.754427</ele>
        <time>2025-03-18T15:06:40.836Z</time>
      </trkpt>
      <trkpt lat="50.722014" lon="3.614721">
        <ele>46.029167</ele>
        <time>2025-03-18T15:06:44.038Z</time>
      </trkpt>
      <trkpt lat="50.722447" lon="3.614044">
        <ele>44.781591</ele>
        <time>2025-03-18T15:06:49.373Z</time>
      </trkpt>
      <trkpt lat="50.723562" lon="3.612469">
        <ele>41.613941</ele>
        <time>2025-03-18T15:07:02.068Z</time>
      </trkpt>
      <trkpt lat="50.720315" lon="3.609569">
        <ele>34.413992</ele>
        <time>2025-03-18T15:07:49.100Z</time>
      </trkpt>
      <trkpt lat="50.720100" lon="3.609197">
        <ele>33.931135</ele>
        <time>2025-03-18T15:07:53.406Z</time>
      </trkpt>
      <trkpt lat="50.719884" lon="3.608825">
        <ele>33.447255</ele>
        <time>2025-03-18T15:07:57.784Z</time>
      </trkpt>
      <trkpt lat="50.719781" lon="3.608540">
        <ele>33.132663</ele>
        <time>2025-03-18T15:08:00.688Z</time>
      </trkpt>
      <trkpt lat="50.719749" lon="3.608364">
        <ele>32.993518</ele>
        <time>2025-03-18T15:08:02.335Z</time>
      </trkpt>
      <trkpt lat="50.719774" lon="3.608004">
        <ele>32.832663</ele>
        <time>2025-03-18T15:08:05.626Z</time>
      </trkpt>
      <trkpt lat="50.719939" lon="3.607353">
        <ele>32.521210</ele>
        <time>2025-03-18T15:08:11.990Z</time>
      </trkpt>
      <trkpt lat="50.719911" lon="3.606997">
        <ele>32.361875</ele>
        <time>2025-03-18T15:08:15.203Z</time>
      </trkpt>
      <trkpt lat="50.719774" lon="3.606676">
        <ele>32.189932</ele>
        <time>2025-03-18T15:08:18.675Z</time>
      </trkpt>
      <trkpt lat="50.718983" lon="3.605648">
        <ele>31.840858</ele>
        <time>2025-03-18T15:08:33.888Z</time>
      </trkpt>
      <trkpt lat="50.717769" lon="3.604065">
        <ele>32.432592</ele>
        <time>2025-03-18T15:08:54.273Z</time>
      </trkpt>
      <trkpt lat="50.717473" lon="3.603744">
        <ele>33.057316</ele>
        <time>2025-03-18T15:09:00.046Z</time>
      </trkpt>
      <trkpt lat="50.717293" lon="3.603763">
        <ele>33.371197</ele>
        <time>2025-03-18T15:09:03.117Z</time>
      </trkpt>
      <trkpt lat="50.717082" lon="3.603854">
        <ele>33.751757</ele>
        <time>2025-03-18T15:09:07.024Z</time>
      </trkpt>
      <trkpt lat="50.716950" lon="3.603844">
        <ele>33.981688</ele>
        <time>2025-03-18T15:09:09.490Z</time>
      </trkpt>
      <trkpt lat="50.716875" lon="3.603783">
        <ele>34.128467</ele>
        <time>2025-03-18T15:09:11.096Z</time>
      </trkpt>
      <trkpt lat="50.716693" lon="3.603550">
        <ele>34.536093</ele>
        <time>2025-03-18T15:09:15.687Z</time>
      </trkpt>
      <trkpt lat="50.715749" lon="3.602008">
        <ele>37.042022</ele>
        <time>2025-03-18T15:09:42.267Z</time>
      </trkpt>
      <trkpt lat="50.715612" lon="3.601872">
        <ele>37.347670</ele>
        <time>2025-03-18T15:09:45.242Z</time>
      </trkpt>
      <trkpt lat="50.715477" lon="3.601813">
        <ele>37.612252</ele>
        <time>2025-03-18T15:09:47.722Z</time>
      </trkpt>
      <trkpt lat="50.715340" lon="3.602622">
        <ele>38.613811</ele>
        <time>2025-03-18T15:09:56.264Z</time>
      </trkpt>
      <trkpt lat="50.715282" lon="3.602997">
        <ele>38.756005</ele>
        <time>2025-03-18T15:09:59.708Z</time>
      </trkpt>
      <trkpt lat="50.715251" lon="3.603200">
        <ele>38.828174</ele>
        <time>2025-03-18T15:10:01.447Z</time>
      </trkpt>
      <trkpt lat="50.715153" lon="3.603563">
        <ele>38.964555</ele>
        <time>2025-03-18T15:10:04.766Z</time>
      </trkpt>
      <trkpt lat="50.714894" lon="3.604155">
        <ele>39.213243</ele>
        <time>2025-03-18T15:10:10.682Z</time>
      </trkpt>
      <trkpt lat="50.714666" lon="3.604521">
        <ele>39.390690</ele>
        <time>2025-03-18T15:10:14.673Z</time>
      </trkpt>
      <trkpt lat="50.712717" lon="3.606299">
        <ele>40.597859</ele>
        <time>2025-03-18T15:10:44.994Z</time>
      </trkpt>
      <trkpt lat="50.712355" lon="3.606661">
        <ele>40.905923</ele>
        <time>2025-03-18T15:10:51.329Z</time>
      </trkpt>
      <trkpt lat="50.712031" lon="3.606842">
        <ele>41.153019</ele>
        <time>2025-03-18T15:10:56.407Z</time>
      </trkpt>
      <trkpt lat="50.711799" lon="3.606837">
        <ele>41.319839</ele>
        <time>2025-03-18T15:11:00.807Z</time>
      </trkpt>
      <trkpt lat="50.711558" lon="3.606735">
        <ele>41.499230</ele>
        <time>2025-03-18T15:11:05.538Z</time>
      </trkpt>
      <trkpt lat="50.710385" lon="3.605882">
        <ele>42.061199</ele>
        <time>2025-03-18T15:11:28.473Z</time>
      </trkpt>
      <trkpt lat="50.710282" lon="3.605779">
        <ele>42.093040</ele>
        <time>2025-03-18T15:11:30.513Z</time>
      </trkpt>
      <trkpt lat="50.710219" lon="3.605669">
        <ele>42.117571</ele>
        <time>2025-03-18T15:11:32.082Z</time>
      </trkpt>
      <trkpt lat="50.710120" lon="3.605419">
        <ele>42.166338</ele>
        <time>2025-03-18T15:11:35.190Z</time>
      </trkpt>
      <trkpt lat="50.710068" lon="3.605155">
        <ele>42.212065</ele>
        <time>2025-03-18T15:11:38.110Z</time>
      </trkpt>
      <trkpt lat="50.710063" lon="3.605043">
        <ele>42.230635</ele>
        <time>2025-03-18T15:11:39.298Z</time>
      </trkpt>
      <trkpt lat="50.710077" lon="3.604726">
        <ele>42.283192</ele>
        <time>2025-03-18T15:11:42.638Z</time>
      </trkpt>
      <trkpt lat="50.710073" lon="3.604539">
        <ele>42.314137</ele>
        <time>2025-03-18T15:11:44.566Z</time>
      </trkpt>
      <trkpt lat="50.710016" lon="3.604093">
        <ele>42.446322</ele>
        <time>2025-03-18T15:11:49.136Z</time>
      </trkpt>
      <trkpt lat="50.709812" lon="3.603445">
        <ele>42.666925</ele>
        <time>2025-03-18T15:11:56.068Z</time>
      </trkpt>
      <trkpt lat="50.709695" lon="3.603102">
        <ele>42.785692</ele>
        <time>2025-03-18T15:11:59.944Z</time>
      </trkpt>
      <trkpt lat="50.709308" lon="3.601975">
        <ele>43.176516</ele>
        <time>2025-03-18T15:12:14.883Z</time>
      </trkpt>
      <trkpt lat="50.708129" lon="3.603887">
        <ele>47.899786</ele>
        <time>2025-03-18T15:12:49.739Z</time>
      </trkpt>
      <trkpt lat="50.706095" lon="3.607145">
        <ele>62.163644</ele>
        <time>2025-03-18T15:14:08.463Z</time>
      </trkpt>
      <trkpt lat="50.705934" lon="3.607443">
        <ele>63.601072</ele>
        <time>2025-03-18T15:14:16.422Z</time>
      </trkpt>
      <trkpt lat="50.705845" lon="3.607717">
        <ele>64.731101</ele>
        <time>2025-03-18T15:14:22.825Z</time>
      </trkpt>
      <trkpt lat="50.705429" lon="3.609777">
        <ele>74.594927</ele>
        <time>2025-03-18T15:15:11.733Z</time>
      </trkpt>
      <trkpt lat="50.705346" lon="3.610030">
        <ele>75.995614</ele>
        <time>2025-03-18T15:15:18.522Z</time>
      </trkpt>
      <trkpt lat="50.705258" lon="3.610194">
        <ele>77.052291</ele>
        <time>2025-03-18T15:15:23.683Z</time>
      </trkpt>
      <trkpt lat="50.705042" lon="3.610403">
        <ele>79.018696</ele>
        <time>2025-03-18T15:15:33.555Z</time>
      </trkpt>
      <trkpt lat="50.704881" lon="3.610445">
        <ele>80.285359</ele>
        <time>2025-03-18T15:15:39.883Z</time>
      </trkpt>
      <trkpt lat="50.704782" lon="3.610416">
        <ele>81.063826</ele>
        <time>2025-03-18T15:15:43.766Z</time>
      </trkpt>
      <trkpt lat="50.704652" lon="3.610327">
        <ele>82.135408</ele>
        <time>2025-03-18T15:15:49.194Z</time>
      </trkpt>
      <trkpt lat="50.704291" lon="3.609818">
        <ele>85.795595</ele>
        <time>2025-03-18T15:16:07.338Z</time>
      </trkpt>
      <trkpt lat="50.704243" lon="3.609751">
        <ele>86.280110</ele>
        <time>2025-03-18T15:16:09.764Z</time>
      </trkpt>
      <trkpt lat="50.703983" lon="3.609332">
        <ele>89.089700</ele>
        <time>2025-03-18T15:16:23.307Z</time>
      </trkpt>
      <trkpt lat="50.703732" lon="3.608979">
        <ele>91.631731</ele>
        <time>2025-03-18T15:16:35.269Z</time>
      </trkpt>
      <trkpt lat="50.703482" lon="3.608626">
        <ele>94.168126</ele>
        <time>2025-03-18T15:16:46.669Z</time>
      </trkpt>
      <trkpt lat="50.703306" lon="3.608525">
        <ele>95.353734</ele>
        <time>2025-03-18T15:16:52.716Z</time>
      </trkpt>
      <trkpt lat="50.703117" lon="3.608555">
        <ele>96.470439</ele>
        <time>2025-03-18T15:16:58.877Z</time>
      </trkpt>
      <trkpt lat="50.702692" lon="3.609127">
        <ele>99.753484</ele>
        <time>2025-03-18T15:17:16.698Z</time>
      </trkpt>
      <trkpt lat="50.702161" lon="3.609859">
        <ele>103.897543</ele>
        <time>2025-03-18T15:17:37.750Z</time>
      </trkpt>
      <trkpt lat="50.701833" lon="3.610244">
        <ele>105.873085</ele>
        <time>2025-03-18T15:17:49.162Z</time>
      </trkpt>
      <trkpt lat="50.701351" lon="3.610761">
        <ele>108.056132</ele>
        <time>2025-03-18T15:18:04.296Z</time>
      </trkpt>
      <trkpt lat="50.701542" lon="3.611435">
        <ele>109.808199</ele>
        <time>2025-03-18T15:18:17.257Z</time>
      </trkpt>
      <trkpt lat="50.701583" lon="3.611677">
        <ele>110.402610</ele>
        <time>2025-03-18T15:18:21.526Z</time>
      </trkpt>
      <trkpt lat="50.701809" lon="3.613487">
        <ele>113.181848</ele>
        <time>2025-03-18T15:18:48.833Z</time>
      </trkpt>
      <trkpt lat="50.702356" lon="3.614665">
        <ele>114.750131</ele>
        <time>2025-03-18T15:19:06.746Z</time>
      </trkpt>
      <trkpt lat="50.702434" lon="3.614886">
        <ele>115.064915</ele>
        <time>2025-03-18T15:19:09.827Z</time>
      </trkpt>
      <trkpt lat="50.702460" lon="3.615085">
        <ele>115.367359</ele>
        <time>2025-03-18T15:19:12.291Z</time>
      </trkpt>
      <trkpt lat="50.702318" lon="3.617825">
        <ele>119.655104</ele>
        <time>2025-03-18T15:19:54.160Z</time>
      </trkpt>
      <trkpt lat="50.702260" lon="3.619372">
        <ele>123.362689</ele>
        <time>2025-03-18T15:20:23.181Z</time>
      </trkpt>
      <trkpt lat="50.702216" lon="3.619648">
        <ele>124.043601</ele>
        <time>2025-03-18T15:20:28.636Z</time>
      </trkpt>
      <trkpt lat="50.702158" lon="3.619832">
        <ele>124.535318</ele>
        <time>2025-03-18T15:20:32.558Z</time>
      </trkpt>
      <trkpt lat="50.701881" lon="3.620487">
        <ele>126.213041</ele>
        <time>2025-03-18T15:20:46.933Z</time>
      </trkpt>
      <trkpt lat="50.701672" lon="3.621213">
        <ele>127.313618</ele>
        <time>2025-03-18T15:21:00.539Z</time>
      </trkpt>
      <trkpt lat="50.700784" lon="3.622994">
        <ele>129.392214</ele>
        <time>2025-03-18T15:21:31.149Z</time>
      </trkpt>
      <trkpt lat="50.700735" lon="3.623035">
        <ele>129.298492</ele>
        <time>2025-03-18T15:21:31.989Z</time>
      </trkpt>
      <trkpt lat="50.701295" lon="3.623573">
        <ele>128.190644</ele>
        <time>2025-03-18T15:21:38.051Z</time>
      </trkpt>
      <trkpt lat="50.701628" lon="3.624076">
        <ele>127.411798</ele>
        <time>2025-03-18T15:21:41.806Z</time>
      </trkpt>
      <trkpt lat="50.701666" lon="3.624113">
        <ele>127.336348</ele>
        <time>2025-03-18T15:21:42.156Z</time>
      </trkpt>
      <trkpt lat="50.702131" lon="3.625220">
        <ele>125.908998</ele>
        <time>2025-03-18T15:21:51.676Z</time>
      </trkpt>
      <trkpt lat="50.702190" lon="3.625571">
        <ele>125.517895</ele>
        <time>2025-03-18T15:21:54.444Z</time>
      </trkpt>
      <trkpt lat="50.702193" lon="3.626200">
        <ele>124.840462</ele>
        <time>2025-03-18T15:21:59.556Z</time>
      </trkpt>
      <trkpt lat="50.702211" lon="3.626373">
        <ele>124.651649</ele>
        <time>2025-03-18T15:22:01.087Z</time>
      </trkpt>
      <trkpt lat="50.702567" lon="3.627115">
        <ele>123.818049</ele>
        <time>2025-03-18T15:22:10.733Z</time>
      </trkpt>
      <trkpt lat="50.702850" lon="3.627633">
        <ele>124.285604</ele>
        <time>2025-03-18T15:22:19.673Z</time>
      </trkpt>
      <trkpt lat="50.703294" lon="3.628333">
        <ele>124.962701</ele>
        <time>2025-03-18T15:22:33.922Z</time>
      </trkpt>
      <trkpt lat="50.703747" lon="3.629117">
        <ele>125.688018</ele>
        <time>2025-03-18T15:22:47.190Z</time>
      </trkpt>
      <trkpt lat="50.703899" lon="3.629341">
        <ele>125.489668</ele>
        <time>2025-03-18T15:22:50.615Z</time>
      </trkpt>
      <trkpt lat="50.703903" lon="3.629347">
        <ele>125.484126</ele>
        <time>2025-03-18T15:22:50.706Z</time>
      </trkpt>
      <trkpt lat="50.704137" lon="3.629602">
        <ele>125.198535</ele>
        <time>2025-03-18T15:22:54.943Z</time>
      </trkpt>
      <trkpt lat="50.704160" lon="3.629630">
        <ele>125.169363</ele>
        <time>2025-03-18T15:22:55.349Z</time>
      </trkpt>
      <trkpt lat="50.705397" lon="3.630962">
        <ele>124.089513</ele>
        <time>2025-03-18T15:23:14.634Z</time>
      </trkpt>
      <trkpt lat="50.706009" lon="3.631482">
        <ele>124.728889</ele>
        <time>2025-03-18T15:23:25.569Z</time>
      </trkpt>
      <trkpt lat="50.706501" lon="3.631974">
        <ele>125.264660</ele>
        <time>2025-03-18T15:23:38.579Z</time>
      </trkpt>
      <trkpt lat="50.707709" lon="3.633094">
        <ele>128.071396</ele>
        <time>2025-03-18T15:24:17.047Z</time>
      </trkpt>
      <trkpt lat="50.707719" lon="3.633103">
        <ele>128.097871</ele>
        <time>2025-03-18T15:24:17.336Z</time>
      </trkpt>
      <trkpt lat="50.708085" lon="3.633437">
        <ele>129.070167</ele>
        <time>2025-03-18T15:24:26.478Z</time>
      </trkpt>
      <trkpt lat="50.708381" lon="3.633691">
        <ele>129.683438</ele>
        <time>2025-03-18T15:24:31.977Z</time>
      </trkpt>
      <trkpt lat="50.708514" lon="3.633752">
        <ele>129.692811</ele>
        <time>2025-03-18T15:24:34.028Z</time>
      </trkpt>
      <trkpt lat="50.708549" lon="3.633662">
        <ele>129.697338</ele>
        <time>2025-03-18T15:24:34.992Z</time>
      </trkpt>
      <trkpt lat="50.708629" lon="3.633229">
        <ele>129.716669</ele>
        <time>2025-03-18T15:24:39.002Z</time>
      </trkpt>
      <trkpt lat="50.708703" lon="3.632322">
        <ele>129.755864</ele>
        <time>2025-03-18T15:24:47.233Z</time>
      </trkpt>
      <trkpt lat="50.710076" lon="3.628344">
        <ele>131.817573</ele>
        <time>2025-03-18T15:25:41.615Z</time>
      </trkpt>
      <trkpt lat="50.710162" lon="3.628184">
        <ele>131.957072</ele>
        <time>2025-03-18T15:25:44.449Z</time>
      </trkpt>
      <trkpt lat="50.710296" lon="3.628144">
        <ele>132.100220</ele>
        <time>2025-03-18T15:25:47.346Z</time>
      </trkpt>
      <trkpt lat="50.710496" lon="3.628321">
        <ele>132.340876</ele>
        <time>2025-03-18T15:25:52.136Z</time>
      </trkpt>
      <trkpt lat="50.710860" lon="3.628830">
        <ele>132.851226</ele>
        <time>2025-03-18T15:25:59.826Z</time>
      </trkpt>
      <trkpt lat="50.710955" lon="3.628866">
        <ele>132.953776</ele>
        <time>2025-03-18T15:26:01.312Z</time>
      </trkpt>
      <trkpt lat="50.711100" lon="3.629166">
        <ele>133.204634</ele>
        <time>2025-03-18T15:26:05.872Z</time>
      </trkpt>
      <trkpt lat="50.712844" lon="3.631576">
        <ele>134.205643</ele>
        <time>2025-03-18T15:26:45.204Z</time>
      </trkpt>
      <trkpt lat="50.712955" lon="3.631727">
        <ele>134.306817</ele>
        <time>2025-03-18T15:26:47.787Z</time>
      </trkpt>
      <trkpt lat="50.714306" lon="3.633623">
        <ele>135.634765</ele>
        <time>2025-03-18T15:27:22.281Z</time>
      </trkpt>
      <trkpt lat="50.715005" lon="3.634621">
        <ele>136.408603</ele>
        <time>2025-03-18T15:27:41.559Z</time>
      </trkpt>
      <trkpt lat="50.716882" lon="3.637532">
        <ele>134.666105</ele>
        <time>2025-03-18T15:28:21.343Z</time>
      </trkpt>
      <trkpt lat="50.717135" lon="3.637829">
        <ele>133.919338</ele>
        <time>2025-03-18T15:28:25.061Z</time>
      </trkpt>
      <trkpt lat="50.717573" lon="3.638306">
        <ele>132.658987</ele>
        <time>2025-03-18T15:28:31.266Z</time>
      </trkpt>
      <trkpt lat="50.717810" lon="3.638580">
        <ele>131.963205</ele>
        <time>2025-03-18T15:28:34.613Z</time>
      </trkpt>
      <trkpt lat="50.718195" lon="3.638937">
        <ele>130.160124</ele>
        <time>2025-03-18T15:28:39.579Z</time>
      </trkpt>
      <trkpt lat="50.718498" lon="3.639192">
        <ele>128.664925</ele>
        <time>2025-03-18T15:28:43.455Z</time>
      </trkpt>
      <trkpt lat="50.718712" lon="3.639318">
        <ele>127.670305</ele>
        <time>2025-03-18T15:28:46.097Z</time>
      </trkpt>
      <trkpt lat="50.719630" lon="3.639877">
        <ele>123.153450</ele>
        <time>2025-03-18T15:28:56.823Z</time>
      </trkpt>
      <trkpt lat="50.719721" lon="3.639936">
        <ele>122.552431</ele>
        <time>2025-03-18T15:28:57.553Z</time>
      </trkpt>
      <trkpt lat="50.720417" lon="3.641144">
        <ele>116.234297</ele>
        <time>2025-03-18T15:29:05.092Z</time>
      </trkpt>
      <trkpt lat="50.720677" lon="3.641617">
        <ele>113.811244</ele>
        <time>2025-03-18T15:29:07.958Z</time>
      </trkpt>
      <trkpt lat="50.720920" lon="3.642304">
        <ele>111.316444</ele>
        <time>2025-03-18T15:29:11.568Z</time>
      </trkpt>
      <trkpt lat="50.721167" lon="3.643215">
        <ele>108.437903</ele>
        <time>2025-03-18T15:29:16.195Z</time>
      </trkpt>
      <trkpt lat="50.721413" lon="3.644329">
        <ele>105.011003</ele>
        <time>2025-03-18T15:29:22.157Z</time>
      </trkpt>
      <trkpt lat="50.722048" lon="3.646442">
        <ele>102.804822</ele>
        <time>2025-03-18T15:29:36.710Z</time>
      </trkpt>
      <trkpt lat="50.722306" lon="3.647255">
        <ele>102.178742</ele>
        <time>2025-03-18T15:29:42.193Z</time>
      </trkpt>
      <trkpt lat="50.722371" lon="3.647513">
        <ele>102.078518</ele>
        <time>2025-03-18T15:29:43.823Z</time>
      </trkpt>
      <trkpt lat="50.722493" lon="3.648233">
        <ele>101.809498</ele>
        <time>2025-03-18T15:29:48.152Z</time>
      </trkpt>
      <trkpt lat="50.722555" lon="3.648438">
        <ele>101.727496</ele>
        <time>2025-03-18T15:29:49.505Z</time>
      </trkpt>
      <trkpt lat="50.722015" lon="3.649674">
        <ele>101.383798</ele>
        <time>2025-03-18T15:30:00.851Z</time>
      </trkpt>
      <trkpt lat="50.721635" lon="3.650440">
        <ele>101.917743</ele>
        <time>2025-03-18T15:30:11.355Z</time>
      </trkpt>
      <trkpt lat="50.721582" lon="3.650685">
        <ele>102.059800</ele>
        <time>2025-03-18T15:30:14.338Z</time>
      </trkpt>
      <trkpt lat="50.721658" lon="3.650872">
        <ele>102.181725</ele>
        <time>2025-03-18T15:30:16.934Z</time>
      </trkpt>
      <trkpt lat="50.722421" lon="3.652103">
        <ele>101.966302</ele>
        <time>2025-03-18T15:30:32.010Z</time>
      </trkpt>
      <trkpt lat="50.722617" lon="3.652521">
        <ele>101.161965</ele>
        <time>2025-03-18T15:30:34.926Z</time>
      </trkpt>
      <trkpt lat="50.722683" lon="3.652835">
        <ele>100.650366</ele>
        <time>2025-03-18T15:30:36.670Z</time>
      </trkpt>
      <trkpt lat="50.722700" lon="3.653240">
        <ele>100.022742</ele>
        <time>2025-03-18T15:30:38.731Z</time>
      </trkpt>
      <trkpt lat="50.722641" lon="3.653820">
        <ele>99.114386</ele>
        <time>2025-03-18T15:30:41.636Z</time>
      </trkpt>
      <trkpt lat="50.722599" lon="3.654295">
        <ele>98.315981</ele>
        <time>2025-03-18T15:30:43.989Z</time>
      </trkpt>
      <trkpt lat="50.722613" lon="3.654590">
        <ele>97.402832</ele>
        <time>2025-03-18T15:30:45.432Z</time>
      </trkpt>
      <trkpt lat="50.722829" lon="3.655660">
        <ele>93.936158</ele>
        <time>2025-03-18T15:30:53.249Z</time>
      </trkpt>
      <trkpt lat="50.722857" lon="3.656476">
        <ele>91.413678</ele>
        <time>2025-03-18T15:30:58.829Z</time>
      </trkpt>
      <trkpt lat="50.722867" lon="3.657380">
        <ele>88.621350</ele>
        <time>2025-03-18T15:31:04.911Z</time>
      </trkpt>
      <trkpt lat="50.722905" lon="3.657962">
        <ele>86.812749</ele>
        <time>2025-03-18T15:31:07.641Z</time>
      </trkpt>
      <trkpt lat="50.723028" lon="3.659025">
        <ele>83.472411</ele>
        <time>2025-03-18T15:31:12.752Z</time>
      </trkpt>
      <trkpt lat="50.723188" lon="3.660517">
        <ele>79.447284</ele>
        <time>2025-03-18T15:31:20.310Z</time>
      </trkpt>
      <trkpt lat="50.723251" lon="3.660891">
        <ele>78.625796</ele>
        <time>2025-03-18T15:31:22.345Z</time>
      </trkpt>
      <trkpt lat="50.723905" lon="3.662990">
        <ele>73.399721</ele>
        <time>2025-03-18T15:31:34.378Z</time>
      </trkpt>
      <trkpt lat="50.724045" lon="3.663530">
        <ele>71.889432</ele>
        <time>2025-03-18T15:31:37.275Z</time>
      </trkpt>
      <trkpt lat="50.724305" lon="3.664824">
        <ele>68.375674</ele>
        <time>2025-03-18T15:31:43.876Z</time>
      </trkpt>
      <trkpt lat="50.724827" lon="3.667389">
        <ele>61.373298</ele>
        <time>2025-03-18T15:31:56.906Z</time>
      </trkpt>
      <trkpt lat="50.724945" lon="3.668728">
        <ele>59.069288</ele>
        <time>2025-03-18T15:32:04.105Z</time>
      </trkpt>
      <trkpt lat="50.724997" lon="3.668963">
        <ele>58.771034</ele>
        <time>2025-03-18T15:32:05.555Z</time>
      </trkpt>
      <trkpt lat="50.725150" lon="3.669166">
        <ele>58.392882</ele>
        <time>2025-03-18T15:32:07.467Z</time>
      </trkpt>
      <trkpt lat="50.725690" lon="3.669632">
        <ele>57.228336</ele>
        <time>2025-03-18T15:32:13.394Z</time>
      </trkpt>
      <trkpt lat="50.725857" lon="3.669820">
        <ele>56.840232</ele>
        <time>2025-03-18T15:32:15.346Z</time>
      </trkpt>
      <trkpt lat="50.725770" lon="3.669993">
        <ele>56.496813</ele>
        <time>2025-03-18T15:32:17.218Z</time>
      </trkpt>
      <trkpt lat="50.725617" lon="3.670209">
        <ele>55.863544</ele>
        <time>2025-03-18T15:32:19.861Z</time>
      </trkpt>
      <trkpt lat="50.724981" lon="3.671036">
        <ele>53.321305</ele>
        <time>2025-03-18T15:32:29.604Z</time>
      </trkpt>
      <trkpt lat="50.723537" lon="3.672228">
        <ele>49.063429</ele>
        <time>2025-03-18T15:32:47.786Z</time>
      </trkpt>
      <trkpt lat="50.722909" lon="3.672720">
        <ele>47.483497</ele>
        <time>2025-03-18T15:32:57.177Z</time>
      </trkpt>
      <trkpt lat="50.722741" lon="3.672787">
        <ele>47.098374</ele>
        <time>2025-03-18T15:33:00.291Z</time>
      </trkpt>
      <trkpt lat="50.722320" lon="3.672871">
        <ele>48.116730</ele>
        <time>2025-03-18T15:33:09.594Z</time>
      </trkpt>
      <trkpt lat="50.722231" lon="3.672926">
        <ele>48.346078</ele>
        <time>2025-03-18T15:33:11.935Z</time>
      </trkpt>
      <trkpt lat="50.722057" lon="3.673033">
        <ele>48.794176</ele>
        <time>2025-03-18T15:33:16.638Z</time>
      </trkpt>
      <trkpt lat="50.721730" lon="3.673358">
        <ele>49.721340</ele>
        <time>2025-03-18T15:33:26.990Z</time>
      </trkpt>
      <trkpt lat="50.721354" lon="3.673887">
        <ele>50.929713</ele>
        <time>2025-03-18T15:33:40.603Z</time>
      </trkpt>
      <trkpt lat="50.721066" lon="3.674444">
        <ele>51.820332</ele>
        <time>2025-03-18T15:33:52.241Z</time>
      </trkpt>
      <trkpt lat="50.720723" lon="3.675277">
        <ele>52.830354</ele>
        <time>2025-03-18T15:34:06.434Z</time>
      </trkpt>
      <trkpt lat="50.719754" lon="3.678438">
        <ele>55.672805</ele>
        <time>2025-03-18T15:34:47.943Z</time>
      </trkpt>
      <trkpt lat="50.719579" lon="3.678945">
        <ele>56.056502</ele>
        <time>2025-03-18T15:34:55.525Z</time>
      </trkpt>
      <trkpt lat="50.719503" lon="3.679099">
        <ele>56.186245</ele>
        <time>2025-03-18T15:34:58.174Z</time>
      </trkpt>
      <trkpt lat="50.718679" lon="3.677579">
        <ele>58.232805</ele>
        <time>2025-03-18T15:35:21.154Z</time>
      </trkpt>
      <trkpt lat="50.718248" lon="3.676967">
        <ele>59.115712</ele>
        <time>2025-03-18T15:35:30.702Z</time>
      </trkpt>
      <trkpt lat="50.717760" lon="3.675830">
        <ele>59.522623</ele>
        <time>2025-03-18T15:35:42.484Z</time>
      </trkpt>
      <trkpt lat="50.717574" lon="3.675390">
        <ele>59.679347</ele>
        <time>2025-03-18T15:35:46.594Z</time>
      </trkpt>
      <trkpt lat="50.717518" lon="3.675202">
        <ele>59.740895</ele>
        <time>2025-03-18T15:35:48.181Z</time>
      </trkpt>
      <trkpt lat="50.717488" lon="3.674887">
        <ele>59.835258</ele>
        <time>2025-03-18T15:35:50.608Z</time>
      </trkpt>
      <trkpt lat="50.717495" lon="3.674432">
        <ele>59.951467</ele>
        <time>2025-03-18T15:35:54.063Z</time>
      </trkpt>
      <trkpt lat="50.717531" lon="3.674120">
        <ele>59.994977</ele>
        <time>2025-03-18T15:35:56.467Z</time>
      </trkpt>
      <trkpt lat="50.717623" lon="3.673712">
        <ele>60.054395</ele>
        <time>2025-03-18T15:35:59.880Z</time>
      </trkpt>
      <trkpt lat="50.718031" lon="3.672417">
        <ele>60.252841</ele>
        <time>2025-03-18T15:36:12.469Z</time>
      </trkpt>
      <trkpt lat="50.718139" lon="3.671955">
        <ele>60.320406</ele>
        <time>2025-03-18T15:36:16.423Z</time>
      </trkpt>
      <trkpt lat="50.718191" lon="3.671499">
        <ele>59.680070</ele>
        <time>2025-03-18T15:36:19.599Z</time>
      </trkpt>
      <trkpt lat="50.718179" lon="3.671110">
        <ele>59.094131</ele>
        <time>2025-03-18T15:36:22.038Z</time>
      </trkpt>
      <trkpt lat="50.718134" lon="3.670644">
        <ele>58.384933</ele>
        <time>2025-03-18T15:36:24.781Z</time>
      </trkpt>
      <trkpt lat="50.716667" lon="3.671458">
        <ele>55.267871</ele>
        <time>2025-03-18T15:36:42.362Z</time>
      </trkpt>
      <trkpt lat="50.716313" lon="3.671588">
        <ele>54.770854</ele>
        <time>2025-03-18T15:36:46.755Z</time>
      </trkpt>
      <trkpt lat="50.716123" lon="3.671585">
        <ele>54.511012</ele>
        <time>2025-03-18T15:36:49.302Z</time>
      </trkpt>
      <trkpt lat="50.715933" lon="3.671395">
        <ele>54.203479</ele>
        <time>2025-03-18T15:36:52.762Z</time>
      </trkpt>
      <trkpt lat="50.715491" lon="3.670781">
        <ele>54.086690</ele>
        <time>2025-03-18T15:37:04.374Z</time>
      </trkpt>
      <trkpt lat="50.715123" lon="3.670209">
        <ele>55.898982</ele>
        <time>2025-03-18T15:37:18.979Z</time>
      </trkpt>
      <trkpt lat="50.715098" lon="3.670167">
        <ele>56.027093</ele>
        <time>2025-03-18T15:37:20.054Z</time>
      </trkpt>
      <trkpt lat="50.714903" lon="3.669833">
        <ele>57.036775</ele>
        <time>2025-03-18T15:37:28.577Z</time>
      </trkpt>
      <trkpt lat="50.714709" lon="3.669499">
        <ele>58.044083</ele>
        <time>2025-03-18T15:37:37.049Z</time>
      </trkpt>
      <trkpt lat="50.714003" lon="3.668334">
        <ele>62.273942</ele>
        <time>2025-03-18T15:38:06.799Z</time>
      </trkpt>
      <trkpt lat="50.713573" lon="3.667730">
        <ele>65.050905</ele>
        <time>2025-03-18T15:38:24.945Z</time>
      </trkpt>
      <trkpt lat="50.712554" lon="3.666479">
        <ele>71.616807</ele>
        <time>2025-03-18T15:39:08.097Z</time>
      </trkpt>
      <trkpt lat="50.712159" lon="3.666007">
        <ele>74.306540</ele>
        <time>2025-03-18T15:39:25.035Z</time>
      </trkpt>
      <trkpt lat="50.711930" lon="3.665782">
        <ele>75.771077</ele>
        <time>2025-03-18T15:39:34.098Z</time>
      </trkpt>
      <trkpt lat="50.711500" lon="3.665424">
        <ele>78.415389</ele>
        <time>2025-03-18T15:39:50.244Z</time>
      </trkpt>
      <trkpt lat="50.710879" lon="3.665032">
        <ele>82.334273</ele>
        <time>2025-03-18T15:40:12.408Z</time>
      </trkpt>
      <trkpt lat="50.710644" lon="3.664823">
        <ele>83.914690</ele>
        <time>2025-03-18T15:40:21.519Z</time>
      </trkpt>
      <trkpt lat="50.709944" lon="3.664118">
        <ele>88.779762</ele>
        <time>2025-03-18T15:40:51.311Z</time>
      </trkpt>
      <trkpt lat="50.708948" lon="3.662939">
        <ele>97.606102</ele>
        <time>2025-03-18T15:41:40.549Z</time>
      </trkpt>
      <trkpt lat="50.708722" lon="3.662821">
        <ele>99.298467</ele>
        <time>2025-03-18T15:41:50.070Z</time>
      </trkpt>
      <trkpt lat="50.708373" lon="3.662780">
        <ele>101.772405</ele>
        <time>2025-03-18T15:42:03.694Z</time>
      </trkpt>
      <trkpt lat="50.708268" lon="3.662761">
        <ele>102.424747</ele>
        <time>2025-03-18T15:42:07.781Z</time>
      </trkpt>
      <trkpt lat="50.707951" lon="3.662615">
        <ele>104.462919</ele>
        <time>2025-03-18T15:42:20.324Z</time>
      </trkpt>
      <trkpt lat="50.707622" lon="3.662409">
        <ele>106.647451</ele>
        <time>2025-03-18T15:42:33.573Z</time>
      </trkpt>
      <trkpt lat="50.706661" lon="3.661737">
        <ele>113.010011</ele>
        <time>2025-03-18T15:43:10.207Z</time>
      </trkpt>
      <trkpt lat="50.706347" lon="3.661728">
        <ele>114.265862</ele>
        <time>2025-03-18T15:43:20.321Z</time>
      </trkpt>
      <trkpt lat="50.706145" lon="3.661654">
        <ele>115.095086</ele>
        <time>2025-03-18T15:43:26.788Z</time>
      </trkpt>
      <trkpt lat="50.705420" lon="3.660983">
        <ele>118.455571</ele>
        <time>2025-03-18T15:43:50.876Z</time>
      </trkpt>
      <trkpt lat="50.704996" lon="3.660668">
        <ele>120.105877</ele>
        <time>2025-03-18T15:44:02.452Z</time>
      </trkpt>
      <trkpt lat="50.704915" lon="3.660611">
        <ele>120.238018</ele>
        <time>2025-03-18T15:44:04.555Z</time>
      </trkpt>
      <trkpt lat="50.704530" lon="3.660282">
        <ele>120.890333</ele>
        <time>2025-03-18T15:44:14.523Z</time>
      </trkpt>
      <trkpt lat="50.704149" lon="3.659893">
        <ele>121.566409</ele>
        <time>2025-03-18T15:44:24.113Z</time>
      </trkpt>
      <trkpt lat="50.702604" lon="3.658146">
        <ele>122.373233</ele>
        <time>2025-03-18T15:44:58.496Z</time>
      </trkpt>
      <trkpt lat="50.702365" lon="3.658847">
        <ele>122.252643</ele>
        <time>2025-03-18T15:45:03.357Z</time>
      </trkpt>
      <trkpt lat="50.701831" lon="3.660920">
        <ele>119.281072</ele>
        <time>2025-03-18T15:45:15.313Z</time>
      </trkpt>
      <trkpt lat="50.701560" lon="3.661973">
        <ele>117.714313</ele>
        <time>2025-03-18T15:45:21.513Z</time>
      </trkpt>
      <trkpt lat="50.701183" lon="3.663432">
        <ele>115.770273</ele>
        <time>2025-03-18T15:45:30.368Z</time>
      </trkpt>
      <trkpt lat="50.700960" lon="3.664292">
        <ele>114.627259</ele>
        <time>2025-03-18T15:45:37.734Z</time>
      </trkpt>
      <trkpt lat="50.700904" lon="3.664623">
        <ele>114.449197</ele>
        <time>2025-03-18T15:45:40.423Z</time>
      </trkpt>
      <trkpt lat="50.700906" lon="3.667408">
        <ele>113.454268</ele>
        <time>2025-03-18T15:46:05.276Z</time>
      </trkpt>
      <trkpt lat="50.702176" lon="3.667976">
        <ele>115.593505</ele>
        <time>2025-03-18T15:46:38.117Z</time>
      </trkpt>
      <trkpt lat="50.702781" lon="3.668582">
        <ele>115.568945</ele>
        <time>2025-03-18T15:46:52.391Z</time>
      </trkpt>
      <trkpt lat="50.703110" lon="3.669145">
        <ele>114.995778</ele>
        <time>2025-03-18T15:46:58.991Z</time>
      </trkpt>
      <trkpt lat="50.704146" lon="3.670458">
        <ele>112.598425</ele>
        <time>2025-03-18T15:47:14.955Z</time>
      </trkpt>
      <trkpt lat="50.704299" lon="3.671785">
        <ele>109.975044</ele>
        <time>2025-03-18T15:47:25.159Z</time>
      </trkpt>
      <trkpt lat="50.704366" lon="3.673437">
        <ele>105.665473</ele>
        <time>2025-03-18T15:47:37.079Z</time>
      </trkpt>
      <trkpt lat="50.704422" lon="3.673585">
        <ele>105.110642</ele>
        <time>2025-03-18T15:47:38.260Z</time>
      </trkpt>
      <trkpt lat="50.704674" lon="3.673813">
        <ele>103.634776</ele>
        <time>2025-03-18T15:47:41.374Z</time>
      </trkpt>
      <trkpt lat="50.704715" lon="3.673991">
        <ele>103.025224</ele>
        <time>2025-03-18T15:47:42.646Z</time>
      </trkpt>
      <trkpt lat="50.704710" lon="3.674349">
        <ele>101.872825</ele>
        <time>2025-03-18T15:47:45.041Z</time>
      </trkpt>
      <trkpt lat="50.704750" lon="3.674588">
        <ele>101.077269</ele>
        <time>2025-03-18T15:47:46.682Z</time>
      </trkpt>
      <trkpt lat="50.705429" lon="3.675635">
        <ele>95.909473</ele>
        <time>2025-03-18T15:47:56.582Z</time>
      </trkpt>
      <trkpt lat="50.705630" lon="3.676162">
        <ele>93.703870</ele>
        <time>2025-03-18T15:48:00.698Z</time>
      </trkpt>
      <trkpt lat="50.706019" lon="3.677553">
        <ele>88.497713</ele>
        <time>2025-03-18T15:48:11.027Z</time>
      </trkpt>
      <trkpt lat="50.706286" lon="3.678444">
        <ele>85.989275</ele>
        <time>2025-03-18T15:48:17.831Z</time>
      </trkpt>
      <trkpt lat="50.706734" lon="3.679636">
        <ele>82.461936</ele>
        <time>2025-03-18T15:48:27.821Z</time>
      </trkpt>
      <trkpt lat="50.706628" lon="3.679723">
        <ele>81.981892</ele>
        <time>2025-03-18T15:48:28.805Z</time>
      </trkpt>
      <trkpt lat="50.706580" lon="3.679836">
        <ele>81.746199</ele>
        <time>2025-03-18T15:48:29.520Z</time>
      </trkpt>
      <trkpt lat="50.706563" lon="3.680009">
        <ele>81.510364</ele>
        <time>2025-03-18T15:48:30.854Z</time>
      </trkpt>
      <trkpt lat="50.706618" lon="3.683715">
        <ele>76.644014</ele>
        <time>2025-03-18T15:49:00.695Z</time>
      </trkpt>
      <trkpt lat="50.706739" lon="3.683845">
        <ele>76.358648</ele>
        <time>2025-03-18T15:49:01.956Z</time>
      </trkpt>
      <trkpt lat="50.707149" lon="3.684691">
        <ele>75.043188</ele>
        <time>2025-03-18T15:49:07.813Z</time>
      </trkpt>
      <trkpt lat="50.707285" lon="3.684924">
        <ele>74.651907</ele>
        <time>2025-03-18T15:49:09.572Z</time>
      </trkpt>
      <trkpt lat="50.707458" lon="3.685146">
        <ele>74.337493</ele>
        <time>2025-03-18T15:49:11.549Z</time>
      </trkpt>
      <trkpt lat="50.708118" lon="3.685809">
        <ele>73.384933</ele>
        <time>2025-03-18T15:49:18.925Z</time>
      </trkpt>
      <trkpt lat="50.708499" lon="3.686275">
        <ele>72.798076</ele>
        <time>2025-03-18T15:49:23.808Z</time>
      </trkpt>
      <trkpt lat="50.708736" lon="3.686479">
        <ele>72.469379</ele>
        <time>2025-03-18T15:49:26.522Z</time>
      </trkpt>
      <trkpt lat="50.709082" lon="3.686671">
        <ele>71.992248</ele>
        <time>2025-03-18T15:49:30.151Z</time>
      </trkpt>
      <trkpt lat="50.709211" lon="3.686797">
        <ele>71.790154</ele>
        <time>2025-03-18T15:49:31.630Z</time>
      </trkpt>
      <trkpt lat="50.709359" lon="3.687001">
        <ele>71.528415</ele>
        <time>2025-03-18T15:49:33.519Z</time>
      </trkpt>
      <trkpt lat="50.709516" lon="3.687302">
        <ele>71.199400</ele>
        <time>2025-03-18T15:49:35.840Z</time>
      </trkpt>
      <trkpt lat="50.709681" lon="3.687699">
        <ele>70.798748</ele>
        <time>2025-03-18T15:49:38.578Z</time>
      </trkpt>
      <trkpt lat="50.709706" lon="3.687946">
        <ele>70.587706</ele>
        <time>2025-03-18T15:49:40.018Z</time>
      </trkpt>
      <trkpt lat="50.709648" lon="3.688267">
        <ele>70.306067</ele>
        <time>2025-03-18T15:49:41.927Z</time>
      </trkpt>
      <trkpt lat="50.709644" lon="3.688445">
        <ele>70.155792</ele>
        <time>2025-03-18T15:49:42.937Z</time>
      </trkpt>
      <trkpt lat="50.709689" lon="3.688570">
        <ele>70.034477</ele>
        <time>2025-03-18T15:49:43.764Z</time>
      </trkpt>
      <trkpt lat="50.709798" lon="3.688749">
        <ele>69.839878</ele>
        <time>2025-03-18T15:49:45.183Z</time>
      </trkpt>
      <trkpt lat="50.709987" lon="3.688963">
        <ele>69.566765</ele>
        <time>2025-03-18T15:49:48.212Z</time>
      </trkpt>
      <trkpt lat="50.710541" lon="3.689701">
        <ele>68.715600</ele>
        <time>2025-03-18T15:49:57.991Z</time>
      </trkpt>
      <trkpt lat="50.710720" lon="3.689889">
        <ele>68.463142</ele>
        <time>2025-03-18T15:50:01.021Z</time>
      </trkpt>
      <trkpt lat="50.710908" lon="3.690012">
        <ele>68.224164</ele>
        <time>2025-03-18T15:50:03.956Z</time>
      </trkpt>
      <trkpt lat="50.711833" lon="3.690426">
        <ele>67.230103</ele>
        <time>2025-03-18T15:50:17.514Z</time>
      </trkpt>
      <trkpt lat="50.711860" lon="3.690441">
        <ele>67.202595</ele>
        <time>2025-03-18T15:50:17.908Z</time>
      </trkpt>
      <trkpt lat="50.712649" lon="3.690967">
        <ele>66.379491</ele>
        <time>2025-03-18T15:50:29.595Z</time>
      </trkpt>
      <trkpt lat="50.712868" lon="3.691183">
        <ele>66.131335</ele>
        <time>2025-03-18T15:50:33.083Z</time>
      </trkpt>
      <trkpt lat="50.713525" lon="3.691973">
        <ele>66.569241</ele>
        <time>2025-03-18T15:50:45.457Z</time>
      </trkpt>
      <trkpt lat="50.714003" lon="3.692429">
        <ele>66.888545</ele>
        <time>2025-03-18T15:50:57.471Z</time>
      </trkpt>
      <trkpt lat="50.714087" lon="3.692612">
        <ele>66.970377</ele>
        <time>2025-03-18T15:51:00.661Z</time>
      </trkpt>
      <trkpt lat="50.714211" lon="3.693141">
        <ele>67.081238</ele>
        <time>2025-03-18T15:51:08.443Z</time>
      </trkpt>
      <trkpt lat="50.714213" lon="3.693247">
        <ele>67.020910</ele>
        <time>2025-03-18T15:51:09.845Z</time>
      </trkpt>
      <trkpt lat="50.714266" lon="3.693677">
        <ele>66.771704</ele>
        <time>2025-03-18T15:51:15.525Z</time>
      </trkpt>
      <trkpt lat="50.714360" lon="3.693993">
        <ele>66.573092</ele>
        <time>2025-03-18T15:51:19.606Z</time>
      </trkpt>
      <trkpt lat="50.714793" lon="3.695002">
        <ele>65.879697</ele>
        <time>2025-03-18T15:51:30.280Z</time>
      </trkpt>
      <trkpt lat="50.715013" lon="3.695600">
        <ele>65.394136</ele>
        <time>2025-03-18T15:51:35.277Z</time>
      </trkpt>
      <trkpt lat="50.715064" lon="3.695879">
        <ele>64.807169</ele>
        <time>2025-03-18T15:51:37.335Z</time>
      </trkpt>
      <trkpt lat="50.715144" lon="3.696731">
        <ele>63.066210</ele>
        <time>2025-03-18T15:51:43.436Z</time>
      </trkpt>
      <trkpt lat="50.715295" lon="3.697417">
        <ele>61.598221</ele>
        <time>2025-03-18T15:51:48.667Z</time>
      </trkpt>
      <trkpt lat="50.715372" lon="3.699089">
        <ele>59.486870</ele>
        <time>2025-03-18T15:52:01.761Z</time>
      </trkpt>
      <trkpt lat="50.715411" lon="3.699550">
        <ele>59.311095</ele>
        <time>2025-03-18T15:52:05.882Z</time>
      </trkpt>
      <trkpt lat="50.715747" lon="3.701968">
        <ele>59.003467</ele>
        <time>2025-03-18T15:52:33.292Z</time>
      </trkpt>
      <trkpt lat="50.715842" lon="3.703088">
        <ele>59.385410</ele>
        <time>2025-03-18T15:52:46.933Z</time>
      </trkpt>
      <trkpt lat="50.715888" lon="3.703619">
        <ele>59.566560</ele>
        <time>2025-03-18T15:52:52.934Z</time>
      </trkpt>
      <trkpt lat="50.715933" lon="3.704226">
        <ele>59.664730</ele>
        <time>2025-03-18T15:52:59.410Z</time>
      </trkpt>
      <trkpt lat="50.715972" lon="3.705669">
        <ele>59.653529</ele>
        <time>2025-03-18T15:53:13.853Z</time>
      </trkpt>
      <trkpt lat="50.716200" lon="3.707699">
        <ele>59.435761</ele>
        <time>2025-03-18T15:53:34.643Z</time>
      </trkpt>
      <trkpt lat="50.716341" lon="3.708442">
        <ele>59.269845</ele>
        <time>2025-03-18T15:53:42.361Z</time>
      </trkpt>
      <trkpt lat="50.716495" lon="3.708880">
        <ele>59.162679</ele>
        <time>2025-03-18T15:53:47.129Z</time>
      </trkpt>
      <trkpt lat="50.716659" lon="3.709206">
        <ele>59.073615</ele>
        <time>2025-03-18T15:53:50.955Z</time>
      </trkpt>
      <trkpt lat="50.717124" lon="3.709769">
        <ele>58.629562</ele>
        <time>2025-03-18T15:53:59.180Z</time>
      </trkpt>
      <trkpt lat="50.717193" lon="3.709970">
        <ele>58.506269</ele>
        <time>2025-03-18T15:54:01.186Z</time>
      </trkpt>
      <trkpt lat="50.717326" lon="3.710190">
        <ele>58.342243</ele>
        <time>2025-03-18T15:54:03.844Z</time>
      </trkpt>
      <trkpt lat="50.717719" lon="3.710517">
        <ele>57.963927</ele>
        <time>2025-03-18T15:54:09.924Z</time>
      </trkpt>
      <trkpt lat="50.717443" lon="3.712627">
        <ele>57.756477</ele>
        <time>2025-03-18T15:54:24.097Z</time>
      </trkpt>
      <trkpt lat="50.717384" lon="3.713232">
        <ele>57.874180</ele>
        <time>2025-03-18T15:54:29.512Z</time>
      </trkpt>
      <trkpt lat="50.717384" lon="3.713648">
        <ele>57.954170</ele>
        <time>2025-03-18T15:54:33.611Z</time>
      </trkpt>
      <trkpt lat="50.717530" lon="3.715473">
        <ele>58.662172</ele>
        <time>2025-03-18T15:54:53.200Z</time>
      </trkpt>
      <trkpt lat="50.717573" lon="3.715792">
        <ele>58.811671</ele>
        <time>2025-03-18T15:54:56.367Z</time>
      </trkpt>
      <trkpt lat="50.717894" lon="3.717367">
        <ele>58.986188</ele>
        <time>2025-03-18T15:55:08.420Z</time>
      </trkpt>
      <trkpt lat="50.717952" lon="3.718220">
        <ele>58.316768</ele>
        <time>2025-03-18T15:55:13.553Z</time>
      </trkpt>
      <trkpt lat="50.718092" lon="3.718239">
        <ele>58.143593</ele>
        <time>2025-03-18T15:55:14.857Z</time>
      </trkpt>
      <trkpt lat="50.718448" lon="3.721597">
        <ele>54.854607</ele>
        <time>2025-03-18T15:55:34.313Z</time>
      </trkpt>
      <trkpt lat="50.718759" lon="3.724915">
        <ele>51.283850</ele>
        <time>2025-03-18T15:55:53.317Z</time>
      </trkpt>
      <trkpt lat="50.718790" lon="3.725400">
        <ele>50.929662</ele>
        <time>2025-03-18T15:55:56.216Z</time>
      </trkpt>
      <trkpt lat="50.718746" lon="3.725722">
        <ele>50.775278</ele>
        <time>2025-03-18T15:55:58.217Z</time>
      </trkpt>
      <trkpt lat="50.718345" lon="3.727739">
        <ele>49.784474</ele>
        <time>2025-03-18T15:56:12.377Z</time>
      </trkpt>
      <trkpt lat="50.718290" lon="3.727929">
        <ele>49.694772</ele>
        <time>2025-03-18T15:56:13.833Z</time>
      </trkpt>
      <trkpt lat="50.718195" lon="3.728112">
        <ele>49.606300</ele>
        <time>2025-03-18T15:56:15.433Z</time>
      </trkpt>
      <trkpt lat="50.718046" lon="3.728464">
        <ele>49.448002</ele>
        <time>2025-03-18T15:56:18.200Z</time>
      </trkpt>
      <trkpt lat="50.717853" lon="3.729137">
        <ele>49.171792</ele>
        <time>2025-03-18T15:56:23.014Z</time>
      </trkpt>
      <trkpt lat="50.717743" lon="3.729573">
        <ele>48.996327</ele>
        <time>2025-03-18T15:56:26.068Z</time>
      </trkpt>
      <trkpt lat="50.717704" lon="3.729913">
        <ele>48.867147</ele>
        <time>2025-03-18T15:56:28.271Z</time>
      </trkpt>
      <trkpt lat="50.718270" lon="3.730801">
        <ele>48.463787</ele>
        <time>2025-03-18T15:56:36.742Z</time>
      </trkpt>
      <trkpt lat="50.718531" lon="3.731628">
        <ele>48.205285</ele>
        <time>2025-03-18T15:56:43.144Z</time>
      </trkpt>
      <trkpt lat="50.718337" lon="3.733305">
        <ele>47.590039</ele>
        <time>2025-03-18T15:56:54.844Z</time>
      </trkpt>
      <trkpt lat="50.718259" lon="3.733780">
        <ele>47.319000</ele>
        <time>2025-03-18T15:56:57.990Z</time>
      </trkpt>
      <trkpt lat="50.718161" lon="3.734258">
        <ele>47.041487</ele>
        <time>2025-03-18T15:57:01.194Z</time>
      </trkpt>
      <trkpt lat="50.718086" lon="3.734762">
        <ele>46.755524</ele>
        <time>2025-03-18T15:57:04.469Z</time>
      </trkpt>
      <trkpt lat="50.717473" lon="3.739973">
        <ele>42.074236</ele>
        <time>2025-03-18T15:57:36.004Z</time>
      </trkpt>
      <trkpt lat="50.717274" lon="3.741018">
        <ele>40.817817</ele>
        <time>2025-03-18T15:57:41.901Z</time>
      </trkpt>
      <trkpt lat="50.717244" lon="3.741142">
        <ele>40.660845</ele>
        <time>2025-03-18T15:57:42.601Z</time>
      </trkpt>
      <trkpt lat="50.716797" lon="3.742338">
        <ele>38.775766</ele>
        <time>2025-03-18T15:57:49.975Z</time>
      </trkpt>
      <trkpt lat="50.716769" lon="3.742524">
        <ele>38.516266</ele>
        <time>2025-03-18T15:57:51.015Z</time>
      </trkpt>
      <trkpt lat="50.716762" lon="3.742678">
        <ele>38.306700</ele>
        <time>2025-03-18T15:57:51.858Z</time>
      </trkpt>
      <trkpt lat="50.716823" lon="3.742926">
        <ele>37.945576</ele>
        <time>2025-03-18T15:57:53.325Z</time>
      </trkpt>
      <trkpt lat="50.717174" lon="3.743846">
        <ele>36.606836</ele>
        <time>2025-03-18T15:57:59.569Z</time>
      </trkpt>
      <trkpt lat="50.717619" lon="3.744938">
        <ele>35.453787</ele>
        <time>2025-03-18T15:58:07.361Z</time>
      </trkpt>
      <trkpt lat="50.717877" lon="3.745413">
        <ele>34.898112</ele>
        <time>2025-03-18T15:58:10.937Z</time>
      </trkpt>
      <trkpt lat="50.718109" lon="3.745614">
        <ele>34.527034</ele>
        <time>2025-03-18T15:58:13.364Z</time>
      </trkpt>
      <trkpt lat="50.718370" lon="3.745768">
        <ele>34.246406</ele>
        <time>2025-03-18T15:58:15.945Z</time>
      </trkpt>
      <trkpt lat="50.718534" lon="3.745809">
        <ele>34.161214</ele>
        <time>2025-03-18T15:58:17.502Z</time>
      </trkpt>
      <trkpt lat="50.718590" lon="3.745744">
        <ele>34.125557</ele>
        <time>2025-03-18T15:58:18.424Z</time>
      </trkpt>
      <trkpt lat="50.719278" lon="3.743518">
        <ele>33.460125</ele>
        <time>2025-03-18T15:58:42.402Z</time>
      </trkpt>
      <trkpt lat="50.719744" lon="3.742014">
        <ele>34.060431</ele>
        <time>2025-03-18T15:59:01.572Z</time>
      </trkpt>
      <trkpt lat="50.720265" lon="3.740833">
        <ele>34.476294</ele>
        <time>2025-03-18T15:59:19.249Z</time>
      </trkpt>
      <trkpt lat="50.721123" lon="3.738904">
        <ele>34.826004</ele>
        <time>2025-03-18T15:59:45.148Z</time>
      </trkpt>
      <trkpt lat="50.721524" lon="3.737910">
        <ele>33.668553</ele>
        <time>2025-03-18T15:59:54.702Z</time>
      </trkpt>
      <trkpt lat="50.722197" lon="3.736252">
        <ele>32.087141</ele>
        <time>2025-03-18T16:00:10.274Z</time>
      </trkpt>
      <trkpt lat="50.722333" lon="3.735853">
        <ele>32.190938</ele>
        <time>2025-03-18T16:00:14.549Z</time>
      </trkpt>
      <trkpt lat="50.722860" lon="3.734546">
        <ele>32.545875</ele>
        <time>2025-03-18T16:00:32.644Z</time>
      </trkpt>
      <trkpt lat="50.723204" lon="3.733399">
        <ele>33.912798</ele>
        <time>2025-03-18T16:00:50.438Z</time>
      </trkpt>
      <trkpt lat="50.723356" lon="3.733014">
        <ele>34.684626</ele>
        <time>2025-03-18T16:00:57.356Z</time>
      </trkpt>
      <trkpt lat="50.723494" lon="3.732772">
        <ele>35.238665</ele>
        <time>2025-03-18T16:01:02.549Z</time>
      </trkpt>
      <trkpt lat="50.723650" lon="3.732500">
        <ele>35.862993</ele>
        <time>2025-03-18T16:01:08.595Z</time>
      </trkpt>
      <trkpt lat="50.724317" lon="3.731570">
        <ele>38.022993</ele>
        <time>2025-03-18T16:01:33.103Z</time>
      </trkpt>
      <trkpt lat="50.724685" lon="3.730820">
        <ele>39.141867</ele>
        <time>2025-03-18T16:01:48.774Z</time>
      </trkpt>
      <trkpt lat="50.725176" lon="3.729670">
        <ele>40.777423</ele>
        <time>2025-03-18T16:02:06.125Z</time>
      </trkpt>
      <trkpt lat="50.725647" lon="3.730344">
        <ele>39.466433</ele>
        <time>2025-03-18T16:02:12.313Z</time>
      </trkpt>
      <trkpt lat="50.726097" lon="3.731143">
        <ele>37.890517</ele>
        <time>2025-03-18T16:02:17.936Z</time>
      </trkpt>
      <trkpt lat="50.726254" lon="3.731378">
        <ele>37.387050</ele>
        <time>2025-03-18T16:02:19.652Z</time>
      </trkpt>
      <trkpt lat="50.726820" lon="3.732105">
        <ele>35.317657</ele>
        <time>2025-03-18T16:02:25.325Z</time>
      </trkpt>
      <trkpt lat="50.727304" lon="3.732571">
        <ele>33.496509</ele>
        <time>2025-03-18T16:02:29.747Z</time>
      </trkpt>
      <trkpt lat="50.727395" lon="3.732703">
        <ele>33.099567</ele>
        <time>2025-03-18T16:02:30.739Z</time>
      </trkpt>
      <trkpt lat="50.727640" lon="3.733209">
        <ele>31.803899</ele>
        <time>2025-03-18T16:02:34.058Z</time>
      </trkpt>
      <trkpt lat="50.727777" lon="3.733374">
        <ele>31.250389</ele>
        <time>2025-03-18T16:02:35.537Z</time>
      </trkpt>
      <trkpt lat="50.727918" lon="3.733448">
        <ele>30.893445</ele>
        <time>2025-03-18T16:02:36.850Z</time>
      </trkpt>
      <trkpt lat="50.727962" lon="3.733464">
        <ele>30.902501</ele>
        <time>2025-03-18T16:02:38.000Z</time>
      </trkpt>
      <trkpt lat="50.728716" lon="3.733750">
        <ele>31.058032</ele>
        <time>2025-03-18T16:02:59.133Z</time>
      </trkpt>
      <trkpt lat="50.729264" lon="3.734025">
        <ele>31.173358</ele>
        <time>2025-03-18T16:03:17.222Z</time>
      </trkpt>
      <trkpt lat="50.729442" lon="3.733968">
        <ele>31.209786</ele>
        <time>2025-03-18T16:03:21.066Z</time>
      </trkpt>
      <trkpt lat="50.729588" lon="3.733856">
        <ele>31.242340</ele>
        <time>2025-03-18T16:03:24.823Z</time>
      </trkpt>
      <trkpt lat="50.729910" lon="3.733469">
        <ele>33.396223</ele>
        <time>2025-03-18T16:03:35.593Z</time>
      </trkpt>
      <trkpt lat="50.730143" lon="3.733293">
        <ele>34.854112</ele>
        <time>2025-03-18T16:03:43.472Z</time>
      </trkpt>
      <trkpt lat="50.730413" lon="3.733204">
        <ele>36.411077</ele>
        <time>2025-03-18T16:03:52.846Z</time>
      </trkpt>
      <trkpt lat="50.731030" lon="3.733156">
        <ele>39.898248</ele>
        <time>2025-03-18T16:04:17.089Z</time>
      </trkpt>
      <trkpt lat="50.731250" lon="3.733210">
        <ele>41.155041</ele>
        <time>2025-03-18T16:04:26.557Z</time>
      </trkpt>
      <trkpt lat="50.731417" lon="3.733334">
        <ele>42.345753</ele>
        <time>2025-03-18T16:04:34.393Z</time>
      </trkpt>
      <trkpt lat="50.731862" lon="3.733944">
        <ele>46.294159</ele>
        <time>2025-03-18T16:04:59.053Z</time>
      </trkpt>
      <trkpt lat="50.732070" lon="3.734171">
        <ele>47.988386</ele>
        <time>2025-03-18T16:05:09.185Z</time>
      </trkpt>
      <trkpt lat="50.731934" lon="3.734850">
        <ele>51.009428</ele>
        <time>2025-03-18T16:05:26.191Z</time>
      </trkpt>
      <trkpt lat="50.731994" lon="3.735031">
        <ele>51.876142</ele>
        <time>2025-03-18T16:05:30.669Z</time>
      </trkpt>
      <trkpt lat="50.732039" lon="3.735105">
        <ele>52.311444</ele>
        <time>2025-03-18T16:05:32.507Z</time>
      </trkpt>
      <trkpt lat="50.732167" lon="3.735282">
        <ele>53.451450</ele>
        <time>2025-03-18T16:05:37.165Z</time>
      </trkpt>
      <trkpt lat="50.732389" lon="3.735524">
        <ele>53.790375</ele>
        <time>2025-03-18T16:05:43.723Z</time>
      </trkpt>
      <trkpt lat="50.732498" lon="3.735646">
        <ele>53.956935</ele>
        <time>2025-03-18T16:05:46.593Z</time>
      </trkpt>
      <trkpt lat="50.732566" lon="3.735724">
        <ele>54.061714</ele>
        <time>2025-03-18T16:05:48.322Z</time>
      </trkpt>
      <trkpt lat="50.732724" lon="3.735895">
        <ele>54.300514</ele>
        <time>2025-03-18T16:05:52.002Z</time>
      </trkpt>
      <trkpt lat="50.733160" lon="3.736376">
        <ele>54.963577</ele>
        <time>2025-03-18T16:06:00.154Z</time>
      </trkpt>
      <trkpt lat="50.734326" lon="3.737914">
        <ele>53.755386</ele>
        <time>2025-03-18T16:06:14.060Z</time>
      </trkpt>
      <trkpt lat="50.734482" lon="3.738161">
        <ele>53.294418</ele>
        <time>2025-03-18T16:06:15.896Z</time>
      </trkpt>
      <trkpt lat="50.734829" lon="3.738844">
        <ele>52.137415</ele>
        <time>2025-03-18T16:06:20.491Z</time>
      </trkpt>
      <trkpt lat="50.735268" lon="3.739498">
        <ele>50.878946</ele>
        <time>2025-03-18T16:06:25.486Z</time>
      </trkpt>
      <trkpt lat="50.735425" lon="3.739728">
        <ele>50.432446</ele>
        <time>2025-03-18T16:06:27.349Z</time>
      </trkpt>
      <trkpt lat="50.735819" lon="3.740130">
        <ele>49.454344</ele>
        <time>2025-03-18T16:06:31.528Z</time>
      </trkpt>
      <trkpt lat="50.735983" lon="3.740273">
        <ele>49.063704</ele>
        <time>2025-03-18T16:06:33.220Z</time>
      </trkpt>
      <trkpt lat="50.736052" lon="3.740117">
        <ele>48.812503</ele>
        <time>2025-03-18T16:06:34.329Z</time>
      </trkpt>
      <trkpt lat="50.736345" lon="3.740376">
        <ele>48.099098</ele>
        <time>2025-03-18T16:06:38.738Z</time>
      </trkpt>
      <trkpt lat="50.736382" lon="3.740410">
        <ele>47.995035</ele>
        <time>2025-03-18T16:06:39.289Z</time>
      </trkpt>
      <trkpt lat="50.736507" lon="3.740757">
        <ele>47.380671</ele>
        <time>2025-03-18T16:06:42.615Z</time>
      </trkpt>
      <trkpt lat="50.736877" lon="3.741866">
        <ele>45.451659</ele>
        <time>2025-03-18T16:06:49.689Z</time>
      </trkpt>
      <trkpt lat="50.737038" lon="3.742411">
        <ele>44.526214</ele>
        <time>2025-03-18T16:06:52.762Z</time>
      </trkpt>
      <trkpt lat="50.737156" lon="3.743061">
        <ele>43.333620</ele>
        <time>2025-03-18T16:06:56.148Z</time>
      </trkpt>
      <trkpt lat="50.737315" lon="3.744188">
        <ele>40.746584</ele>
        <time>2025-03-18T16:07:01.892Z</time>
      </trkpt>
      <trkpt lat="50.737467" lon="3.744821">
        <ele>39.229692</ele>
        <time>2025-03-18T16:07:06.730Z</time>
      </trkpt>
      <trkpt lat="50.737527" lon="3.744970">
        <ele>38.834010</ele>
        <time>2025-03-18T16:07:07.999Z</time>
      </trkpt>
      <trkpt lat="50.737544" lon="3.745178">
        <ele>38.364117</ele>
        <time>2025-03-18T16:07:09.532Z</time>
      </trkpt>
      <trkpt lat="50.737681" lon="3.745792">
        <ele>37.106400</ele>
        <time>2025-03-18T16:07:14.399Z</time>
      </trkpt>
      <trkpt lat="50.737809" lon="3.746386">
        <ele>36.217709</ele>
        <time>2025-03-18T16:07:19.259Z</time>
      </trkpt>
      <trkpt lat="50.737893" lon="3.746554">
        <ele>35.914480</ele>
        <time>2025-03-18T16:07:20.422Z</time>
      </trkpt>
      <trkpt lat="50.738112" lon="3.747166">
        <ele>34.918768</ele>
        <time>2025-03-18T16:07:24.266Z</time>
      </trkpt>
      <trkpt lat="50.738730" lon="3.748729">
        <ele>32.893080</ele>
        <time>2025-03-18T16:07:34.674Z</time>
      </trkpt>
      <trkpt lat="50.738786" lon="3.748822">
        <ele>32.806318</ele>
        <time>2025-03-18T16:07:35.756Z</time>
      </trkpt>
      <trkpt lat="50.738835" lon="3.748881">
        <ele>32.740525</ele>
        <time>2025-03-18T16:07:36.595Z</time>
      </trkpt>
      <trkpt lat="50.739191" lon="3.749128">
        <ele>32.325290</ele>
        <time>2025-03-18T16:07:40.345Z</time>
      </trkpt>
      <trkpt lat="50.738515" lon="3.751762">
        <ele>31.425032</ele>
        <time>2025-03-18T16:07:59.813Z</time>
      </trkpt>
      <trkpt lat="50.738463" lon="3.752083">
        <ele>31.408633</ele>
        <time>2025-03-18T16:08:02.460Z</time>
      </trkpt>
      <trkpt lat="50.738453" lon="3.752349">
        <ele>31.395444</ele>
        <time>2025-03-18T16:08:04.611Z</time>
      </trkpt>
      <trkpt lat="50.738536" lon="3.752712">
        <ele>31.376342</ele>
        <time>2025-03-18T16:08:07.779Z</time>
      </trkpt>
      <trkpt lat="50.738765" lon="3.753270">
        <ele>31.325745</ele>
        <time>2025-03-18T16:08:13.316Z</time>
      </trkpt>
      <trkpt lat="50.738803" lon="3.753474">
        <ele>31.306605</ele>
        <time>2025-03-18T16:08:15.119Z</time>
      </trkpt>
      <trkpt lat="50.738804" lon="3.755205">
        <ele>31.150806</ele>
        <time>2025-03-18T16:08:27.621Z</time>
      </trkpt>
      <trkpt lat="50.738827" lon="3.755678">
        <ele>31.117198</ele>
        <time>2025-03-18T16:08:30.630Z</time>
      </trkpt>
      <trkpt lat="50.738902" lon="3.756765">
        <ele>31.821110</ele>
        <time>2025-03-18T16:08:37.635Z</time>
      </trkpt>
      <trkpt lat="50.739036" lon="3.758401">
        <ele>32.883082</ele>
        <time>2025-03-18T16:08:54.946Z</time>
      </trkpt>
      <trkpt lat="50.739255" lon="3.759392">
        <ele>35.265248</ele>
        <time>2025-03-18T16:09:12.087Z</time>
      </trkpt>
      <trkpt lat="50.739340" lon="3.759657">
        <ele>35.982925</ele>
        <time>2025-03-18T16:09:17.301Z</time>
      </trkpt>
      <trkpt lat="50.739360" lon="3.759690">
        <ele>36.093300</ele>
        <time>2025-03-18T16:09:18.095Z</time>
      </trkpt>
      <trkpt lat="50.739803" lon="3.760434">
        <ele>38.560981</ele>
        <time>2025-03-18T16:09:35.746Z</time>
      </trkpt>
      <trkpt lat="50.740060" lon="3.761064">
        <ele>39.914388</ele>
        <time>2025-03-18T16:09:46.167Z</time>
      </trkpt>
      <trkpt lat="50.740198" lon="3.761510">
        <ele>40.146840</ele>
        <time>2025-03-18T16:09:51.675Z</time>
      </trkpt>
      <trkpt lat="50.740374" lon="3.762255">
        <ele>40.519179</ele>
        <time>2025-03-18T16:09:58.414Z</time>
      </trkpt>
      <trkpt lat="50.740533" lon="3.762618">
        <ele>40.725884</ele>
        <time>2025-03-18T16:10:01.478Z</time>
      </trkpt>
      <trkpt lat="50.741324" lon="3.764106">
        <ele>41.381711</ele>
        <time>2025-03-18T16:10:14.442Z</time>
      </trkpt>
      <trkpt lat="50.741586" lon="3.764527">
        <ele>41.517847</ele>
        <time>2025-03-18T16:10:19.186Z</time>
      </trkpt>
      <trkpt lat="50.742238" lon="3.765252">
        <ele>41.874115</ele>
        <time>2025-03-18T16:10:31.325Z</time>
      </trkpt>
      <trkpt lat="50.742919" lon="3.765841">
        <ele>43.204274</ele>
        <time>2025-03-18T16:10:44.583Z</time>
      </trkpt>
      <trkpt lat="50.743104" lon="3.765782">
        <ele>43.527644</ele>
        <time>2025-03-18T16:10:47.799Z</time>
      </trkpt>
      <trkpt lat="50.744156" lon="3.765113">
        <ele>45.794907</ele>
        <time>2025-03-18T16:11:08.346Z</time>
      </trkpt>
      <trkpt lat="50.744260" lon="3.765099">
        <ele>46.070684</ele>
        <time>2025-03-18T16:11:10.352Z</time>
      </trkpt>
      <trkpt lat="50.744384" lon="3.765163">
        <ele>46.415339</ele>
        <time>2025-03-18T16:11:12.918Z</time>
      </trkpt>
      <trkpt lat="50.744651" lon="3.765513">
        <ele>47.331895</ele>
        <time>2025-03-18T16:11:19.986Z</time>
      </trkpt>
      <trkpt lat="50.746092" lon="3.767591">
        <ele>52.187753</ele>
        <time>2025-03-18T16:12:10.394Z</time>
      </trkpt>
      <trkpt lat="50.746663" lon="3.768453">
        <ele>53.918620</ele>
        <time>2025-03-18T16:12:27.394Z</time>
      </trkpt>
      <trkpt lat="50.747259" lon="3.769792">
        <ele>54.438739</ele>
        <time>2025-03-18T16:12:46.272Z</time>
      </trkpt>
      <trkpt lat="50.747356" lon="3.769944">
        <ele>54.507325</ele>
        <time>2025-03-18T16:12:48.561Z</time>
      </trkpt>
      <trkpt lat="50.747940" lon="3.770521">
        <ele>54.844650</ele>
        <time>2025-03-18T16:12:59.529Z</time>
      </trkpt>
      <trkpt lat="50.748103" lon="3.770568">
        <ele>54.917545</ele>
        <time>2025-03-18T16:13:02.072Z</time>
      </trkpt>
      <trkpt lat="50.748476" lon="3.770510">
        <ele>55.082440</ele>
        <time>2025-03-18T16:13:07.748Z</time>
      </trkpt>
      <trkpt lat="50.748714" lon="3.770534">
        <ele>55.187361</ele>
        <time>2025-03-18T16:13:11.379Z</time>
      </trkpt>
      <trkpt lat="50.748924" lon="3.770638">
        <ele>55.284180</ele>
        <time>2025-03-18T16:13:14.899Z</time>
      </trkpt>
      <trkpt lat="50.749182" lon="3.770942">
        <ele>55.425761</ele>
        <time>2025-03-18T16:13:20.628Z</time>
      </trkpt>
      <trkpt lat="50.749528" lon="3.771434">
        <ele>55.860692</ele>
        <time>2025-03-18T16:13:30.321Z</time>
      </trkpt>
      <trkpt lat="50.749623" lon="3.771617">
        <ele>56.204131</ele>
        <time>2025-03-18T16:13:33.892Z</time>
      </trkpt>
      <trkpt lat="50.750518" lon="3.771777">
        <ele>58.269534</ele>
        <time>2025-03-18T16:13:54.136Z</time>
      </trkpt>
      <trkpt lat="50.750952" lon="3.771996">
        <ele>59.314224</ele>
        <time>2025-03-18T16:14:03.619Z</time>
      </trkpt>
      <trkpt lat="50.751746" lon="3.772614">
        <ele>59.925387</ele>
        <time>2025-03-18T16:14:15.488Z</time>
      </trkpt>
      <trkpt lat="50.752554" lon="3.773258">
        <ele>60.209555</ele>
        <time>2025-03-18T16:14:24.534Z</time>
      </trkpt>
      <trkpt lat="50.755473" lon="3.775590">
        <ele>64.222575</ele>
        <time>2025-03-18T16:15:18.093Z</time>
      </trkpt>
      <trkpt lat="50.756092" lon="3.776101">
        <ele>65.072051</ele>
        <time>2025-03-18T16:15:29.333Z</time>
      </trkpt>
      <trkpt lat="50.756309" lon="3.776355">
        <ele>65.309523</ele>
        <time>2025-03-18T16:15:33.387Z</time>
      </trkpt>
      <trkpt lat="50.756492" lon="3.776664">
        <ele>65.545020</ele>
        <time>2025-03-18T16:15:37.365Z</time>
      </trkpt>
      <trkpt lat="50.756946" lon="3.777586">
        <ele>66.195070</ele>
        <time>2025-03-18T16:15:48.121Z</time>
      </trkpt>
      <trkpt lat="50.757740" lon="3.779220">
        <ele>66.567016</ele>
        <time>2025-03-18T16:16:05.950Z</time>
      </trkpt>
      <trkpt lat="50.757879" lon="3.779558">
        <ele>66.589034</ele>
        <time>2025-03-18T16:16:08.859Z</time>
      </trkpt>
      <trkpt lat="50.757731" lon="3.780292">
        <ele>66.631109</ele>
        <time>2025-03-18T16:16:13.977Z</time>
      </trkpt>
      <trkpt lat="50.757112" lon="3.783348">
        <ele>65.010214</ele>
        <time>2025-03-18T16:16:34.264Z</time>
      </trkpt>
      <trkpt lat="50.757050" lon="3.784045">
        <ele>64.565970</ele>
        <time>2025-03-18T16:16:38.832Z</time>
      </trkpt>
      <trkpt lat="50.757055" lon="3.785083">
        <ele>63.910810</ele>
        <time>2025-03-18T16:16:45.298Z</time>
      </trkpt>
      <trkpt lat="50.757153" lon="3.786095">
        <ele>63.195333</ele>
        <time>2025-03-18T16:16:51.423Z</time>
      </trkpt>
      <trkpt lat="50.757140" lon="3.786832">
        <ele>62.414039</ele>
        <time>2025-03-18T16:16:55.765Z</time>
      </trkpt>
      <trkpt lat="50.757069" lon="3.787223">
        <ele>61.982970</ele>
        <time>2025-03-18T16:16:58.099Z</time>
      </trkpt>
      <trkpt lat="50.756949" lon="3.787596">
        <ele>61.539528</ele>
        <time>2025-03-18T16:17:00.479Z</time>
      </trkpt>
      <trkpt lat="50.756769" lon="3.788160">
        <ele>60.870110</ele>
        <time>2025-03-18T16:17:04.007Z</time>
      </trkpt>
      <trkpt lat="50.756484" lon="3.789212">
        <ele>59.667069</ele>
        <time>2025-03-18T16:17:10.346Z</time>
      </trkpt>
      <trkpt lat="50.756311" lon="3.789866">
        <ele>58.926319</ele>
        <time>2025-03-18T16:17:14.260Z</time>
      </trkpt>
      <trkpt lat="50.756259" lon="3.790169">
        <ele>58.598249</ele>
        <time>2025-03-18T16:17:16.032Z</time>
      </trkpt>
      <trkpt lat="50.756272" lon="3.790323">
        <ele>58.435897</ele>
        <time>2025-03-18T16:17:16.923Z</time>
      </trkpt>
      <trkpt lat="50.756312" lon="3.790864">
        <ele>57.866720</ele>
        <time>2025-03-18T16:17:20.107Z</time>
      </trkpt>
      <trkpt lat="50.756276" lon="3.792025">
        <ele>57.004458</ele>
        <time>2025-03-18T16:17:27.388Z</time>
      </trkpt>
      <trkpt lat="50.756009" lon="3.794931">
        <ele>55.186560</ele>
        <time>2025-03-18T16:17:46.285Z</time>
      </trkpt>
      <trkpt lat="50.755863" lon="3.796801">
        <ele>53.622283</ele>
        <time>2025-03-18T16:17:57.193Z</time>
      </trkpt>
      <trkpt lat="50.756349" lon="3.799074">
        <ele>50.959871</ele>
        <time>2025-03-18T16:18:10.893Z</time>
      </trkpt>
      <trkpt lat="50.756925" lon="3.800395">
        <ele>48.887927</ele>
        <time>2025-03-18T16:18:19.787Z</time>
      </trkpt>
      <trkpt lat="50.756961" lon="3.800658">
        <ele>48.513841</ele>
        <time>2025-03-18T16:18:21.256Z</time>
      </trkpt>
      <trkpt lat="50.756975" lon="3.801098">
        <ele>47.901377</ele>
        <time>2025-03-18T16:18:23.653Z</time>
      </trkpt>
      <trkpt lat="50.756991" lon="3.801358">
        <ele>47.538217</ele>
        <time>2025-03-18T16:18:25.072Z</time>
      </trkpt>
      <trkpt lat="50.757027" lon="3.801513">
        <ele>47.308671</ele>
        <time>2025-03-18T16:18:25.966Z</time>
      </trkpt>
      <trkpt lat="50.757360" lon="3.802122">
        <ele>46.188288</ele>
        <time>2025-03-18T16:18:30.299Z</time>
      </trkpt>
      <trkpt lat="50.757403" lon="3.802193">
        <ele>46.050232</ele>
        <time>2025-03-18T16:18:30.831Z</time>
      </trkpt>
      <trkpt lat="50.758168" lon="3.802886">
        <ele>44.092607</ele>
        <time>2025-03-18T16:18:38.381Z</time>
      </trkpt>
      <trkpt lat="50.758356" lon="3.803088">
        <ele>43.587906</ele>
        <time>2025-03-18T16:18:40.334Z</time>
      </trkpt>
      <trkpt lat="50.758903" lon="3.804012">
        <ele>41.835657</ele>
        <time>2025-03-18T16:18:47.342Z</time>
      </trkpt>
      <trkpt lat="50.759168" lon="3.804319">
        <ele>41.141946</ele>
        <time>2025-03-18T16:18:50.233Z</time>
      </trkpt>
      <trkpt lat="50.759429" lon="3.804540">
        <ele>40.516771</ele>
        <time>2025-03-18T16:18:52.830Z</time>
      </trkpt>
      <trkpt lat="50.760695" lon="3.805422">
        <ele>37.836360</ele>
        <time>2025-03-18T16:19:04.805Z</time>
      </trkpt>
      <trkpt lat="50.760929" lon="3.805567">
        <ele>37.442993</ele>
        <time>2025-03-18T16:19:07.038Z</time>
      </trkpt>
      <trkpt lat="50.761242" lon="3.805707">
        <ele>36.933880</ele>
        <time>2025-03-18T16:19:10.007Z</time>
      </trkpt>
      <trkpt lat="50.761369" lon="3.805681">
        <ele>36.733450</ele>
        <time>2025-03-18T16:19:11.192Z</time>
      </trkpt>
      <trkpt lat="50.761890" lon="3.805397">
        <ele>35.870910</ele>
        <time>2025-03-18T16:19:16.428Z</time>
      </trkpt>
      <trkpt lat="50.762007" lon="3.805387">
        <ele>35.710126</ele>
        <time>2025-03-18T16:19:17.578Z</time>
      </trkpt>
      <trkpt lat="50.762130" lon="3.805434">
        <ele>35.702194</ele>
        <time>2025-03-18T16:19:18.823Z</time>
      </trkpt>
      <trkpt lat="50.762282" lon="3.805576">
        <ele>35.691128</ele>
        <time>2025-03-18T16:19:20.595Z</time>
      </trkpt>
      <trkpt lat="50.762386" lon="3.805802">
        <ele>35.680048</ele>
        <time>2025-03-18T16:19:23.125Z</time>
      </trkpt>
      <trkpt lat="50.762422" lon="3.806142">
        <ele>35.666381</ele>
        <time>2025-03-18T16:19:26.344Z</time>
      </trkpt>
      <trkpt lat="50.762328" lon="3.806969">
        <ele>35.633068</ele>
        <time>2025-03-18T16:19:34.825Z</time>
      </trkpt>
      <trkpt lat="50.762340" lon="3.807138">
        <ele>35.626326</ele>
        <time>2025-03-18T16:19:36.648Z</time>
      </trkpt>
      <trkpt lat="50.762450" lon="3.807361">
        <ele>35.615114</ele>
        <time>2025-03-18T16:19:39.760Z</time>
      </trkpt>
      <trkpt lat="50.762610" lon="3.807585">
        <ele>35.601719</ele>
        <time>2025-03-18T16:19:43.690Z</time>
      </trkpt>
      <trkpt lat="50.762640" lon="3.807584">
        <ele>35.599838</ele>
        <time>2025-03-18T16:19:44.281Z</time>
      </trkpt>
      <trkpt lat="50.763524" lon="3.806311">
        <ele>37.562295</ele>
        <time>2025-03-18T16:20:04.949Z</time>
      </trkpt>
      <trkpt lat="50.763743" lon="3.806082">
        <ele>38.002385</ele>
        <time>2025-03-18T16:20:09.916Z</time>
      </trkpt>
      <trkpt lat="50.763957" lon="3.805791">
        <ele>38.475495</ele>
        <time>2025-03-18T16:20:15.144Z</time>
      </trkpt>
      <trkpt lat="50.764212" lon="3.805376">
        <ele>39.120298</ele>
        <time>2025-03-18T16:20:21.745Z</time>
      </trkpt>
      <trkpt lat="50.764390" lon="3.805087">
        <ele>39.576177</ele>
        <time>2025-03-18T16:20:26.308Z</time>
      </trkpt>
      <trkpt lat="50.764501" lon="3.804946">
        <ele>39.830592</ele>
        <time>2025-03-18T16:20:28.859Z</time>
      </trkpt>
      <trkpt lat="50.764517" lon="3.804918">
        <ele>39.873237</ele>
        <time>2025-03-18T16:20:29.291Z</time>
      </trkpt>
      <trkpt lat="50.764848" lon="3.804533">
        <ele>40.607462</ele>
        <time>2025-03-18T16:20:36.581Z</time>
      </trkpt>
      <trkpt lat="50.765129" lon="3.804289">
        <ele>41.180280</ele>
        <time>2025-03-18T16:20:42.207Z</time>
      </trkpt>
      <trkpt lat="50.765254" lon="3.804137">
        <ele>41.462043</ele>
        <time>2025-03-18T16:20:44.973Z</time>
      </trkpt>
      <trkpt lat="50.765594" lon="3.803639">
        <ele>42.023037</ele>
        <time>2025-03-18T16:20:52.814Z</time>
      </trkpt>
      <trkpt lat="50.766087" lon="3.802766">
        <ele>42.583197</ele>
        <time>2025-03-18T16:21:04.348Z</time>
      </trkpt>
      <trkpt lat="50.766376" lon="3.802377">
        <ele>42.870415</ele>
        <time>2025-03-18T16:21:09.515Z</time>
      </trkpt>
      <trkpt lat="50.766556" lon="3.802194">
        <ele>43.032359</ele>
        <time>2025-03-18T16:21:11.965Z</time>
      </trkpt>
      <trkpt lat="50.766943" lon="3.801945">
        <ele>43.054220</ele>
        <time>2025-03-18T16:21:16.474Z</time>
      </trkpt>
      <trkpt lat="50.766987" lon="3.801889">
        <ele>43.018657</ele>
        <time>2025-03-18T16:21:17.059Z</time>
      </trkpt>
      <trkpt lat="50.767071" lon="3.801664">
        <ele>42.914613</ele>
        <time>2025-03-18T16:21:18.756Z</time>
      </trkpt>
      <trkpt lat="50.767149" lon="3.801261">
        <ele>42.746787</ele>
        <time>2025-03-18T16:21:21.489Z</time>
      </trkpt>
      <trkpt lat="50.767142" lon="3.801149">
        <ele>42.701970</ele>
        <time>2025-03-18T16:21:22.235Z</time>
      </trkpt>
      <trkpt lat="50.767095" lon="3.801039">
        <ele>42.649108</ele>
        <time>2025-03-18T16:21:23.101Z</time>
      </trkpt>
      <trkpt lat="50.766566" lon="3.800387">
        <ele>42.226800</ele>
        <time>2025-03-18T16:21:29.927Z</time>
      </trkpt>
      <trkpt lat="50.766467" lon="3.800168">
        <ele>42.119604</ele>
        <time>2025-03-18T16:21:31.618Z</time>
      </trkpt>
      <trkpt lat="50.766406" lon="3.799905">
        <ele>41.973955</ele>
        <time>2025-03-18T16:21:33.417Z</time>
      </trkpt>
      <trkpt lat="50.766072" lon="3.799505">
        <ele>41.520305</ele>
        <time>2025-03-18T16:21:37.779Z</time>
      </trkpt>
      <trkpt lat="50.765065" lon="3.797961">
        <ele>39.980342</ele>
        <time>2025-03-18T16:21:51.198Z</time>
      </trkpt>
      <trkpt lat="50.764785" lon="3.797596">
        <ele>39.509226</ele>
        <time>2025-03-18T16:21:54.447Z</time>
      </trkpt>
      <trkpt lat="50.764243" lon="3.797075">
        <ele>38.685762</ele>
        <time>2025-03-18T16:22:00.105Z</time>
      </trkpt>
      <trkpt lat="50.764044" lon="3.796845">
        <ele>38.365752</ele>
        <time>2025-03-18T16:22:02.389Z</time>
      </trkpt>
      <trkpt lat="50.763776" lon="3.796223">
        <ele>37.774401</ele>
        <time>2025-03-18T16:22:07.171Z</time>
      </trkpt>
      <trkpt lat="50.763757" lon="3.795916">
        <ele>37.787657</ele>
        <time>2025-03-18T16:22:09.337Z</time>
      </trkpt>
      <trkpt lat="50.763800" lon="3.795699">
        <ele>37.797430</ele>
        <time>2025-03-18T16:22:10.997Z</time>
      </trkpt>
      <trkpt lat="50.763873" lon="3.795422">
        <ele>37.810326</ele>
        <time>2025-03-18T16:22:13.282Z</time>
      </trkpt>
      <trkpt lat="50.763982" lon="3.794512">
        <ele>37.850129</ele>
        <time>2025-03-18T16:22:20.810Z</time>
      </trkpt>
      <trkpt lat="50.764228" lon="3.793670">
        <ele>37.889988</ele>
        <time>2025-03-18T16:22:28.499Z</time>
      </trkpt>
      <trkpt lat="50.764410" lon="3.792278">
        <ele>38.216463</ele>
        <time>2025-03-18T16:22:39.739Z</time>
      </trkpt>
      <trkpt lat="50.764541" lon="3.791837">
        <ele>38.336999</ele>
        <time>2025-03-18T16:22:43.618Z</time>
      </trkpt>
      <trkpt lat="50.764406" lon="3.791068">
        <ele>38.534441</ele>
        <time>2025-03-18T16:22:50.388Z</time>
      </trkpt>
      <trkpt lat="50.764380" lon="3.790682">
        <ele>38.666783</ele>
        <time>2025-03-18T16:22:53.895Z</time>
      </trkpt>
      <trkpt lat="50.764304" lon="3.790133">
        <ele>38.965189</ele>
        <time>2025-03-18T16:22:59.099Z</time>
      </trkpt>
      <trkpt lat="50.764300" lon="3.789925">
        <ele>39.075683</ele>
        <time>2025-03-18T16:23:00.972Z</time>
      </trkpt>
      <trkpt lat="50.764338" lon="3.789521">
        <ele>39.292556</ele>
        <time>2025-03-18T16:23:04.671Z</time>
      </trkpt>
      <trkpt lat="50.764315" lon="3.788924">
        <ele>39.610136</ele>
        <time>2025-03-18T16:23:10.120Z</time>
      </trkpt>
      <trkpt lat="50.764228" lon="3.788043">
        <ele>40.083593</ele>
        <time>2025-03-18T16:23:18.535Z</time>
      </trkpt>
      <trkpt lat="50.764223" lon="3.786994">
        <ele>41.002522</ele>
        <time>2025-03-18T16:23:28.883Z</time>
      </trkpt>
      <trkpt lat="50.764144" lon="3.786311">
        <ele>41.622052</ele>
        <time>2025-03-18T16:23:35.993Z</time>
      </trkpt>
      <trkpt lat="50.764098" lon="3.785912">
        <ele>41.983936</ele>
        <time>2025-03-18T16:23:40.365Z</time>
      </trkpt>
      <trkpt lat="50.764052" lon="3.785513">
        <ele>42.345820</ele>
        <time>2025-03-18T16:23:44.860Z</time>
      </trkpt>
      <trkpt lat="50.764004" lon="3.785257">
        <ele>42.584068</ele>
        <time>2025-03-18T16:23:47.830Z</time>
      </trkpt>
      <trkpt lat="50.763858" lon="3.784809">
        <ele>43.107009</ele>
        <time>2025-03-18T16:23:53.416Z</time>
      </trkpt>
      <trkpt lat="50.763758" lon="3.784216">
        <ele>43.758084</ele>
        <time>2025-03-18T16:24:00.157Z</time>
      </trkpt>
      <trkpt lat="50.763769" lon="3.783894">
        <ele>44.100186</ele>
        <time>2025-03-18T16:24:03.667Z</time>
      </trkpt>
      <trkpt lat="50.763660" lon="3.783399">
        <ele>44.656234</ele>
        <time>2025-03-18T16:24:09.378Z</time>
      </trkpt>
      <trkpt lat="50.763038" lon="3.781571">
        <ele>47.470142</ele>
        <time>2025-03-18T16:24:31.659Z</time>
      </trkpt>
      <trkpt lat="50.763094" lon="3.781327">
        <ele>47.886429</ele>
        <time>2025-03-18T16:24:34.850Z</time>
      </trkpt>
      <trkpt lat="50.763183" lon="3.781147">
        <ele>48.252843</ele>
        <time>2025-03-18T16:24:37.753Z</time>
      </trkpt>
      <trkpt lat="50.764045" lon="3.780338">
        <ele>51.188857</ele>
        <time>2025-03-18T16:25:00.033Z</time>
      </trkpt>
      <trkpt lat="50.764351" lon="3.779515">
        <ele>53.776593</ele>
        <time>2025-03-18T16:25:15.529Z</time>
      </trkpt>
      <trkpt lat="50.764533" lon="3.778778">
        <ele>55.921180</ele>
        <time>2025-03-18T16:25:28.601Z</time>
      </trkpt>
      <trkpt lat="50.764637" lon="3.778252">
        <ele>57.415000</ele>
        <time>2025-03-18T16:25:37.865Z</time>
      </trkpt>
      <trkpt lat="50.764826" lon="3.776965">
        <ele>62.291250</ele>
        <time>2025-03-18T16:26:01.502Z</time>
      </trkpt>
      <trkpt lat="50.764892" lon="3.776693">
        <ele>63.414547</ele>
        <time>2025-03-18T16:26:07.183Z</time>
      </trkpt>
      <trkpt lat="50.765018" lon="3.776336">
        <ele>64.990858</ele>
        <time>2025-03-18T16:26:15.475Z</time>
      </trkpt>
      <trkpt lat="50.765148" lon="3.776075">
        <ele>66.271786</ele>
        <time>2025-03-18T16:26:22.392Z</time>
      </trkpt>
      <trkpt lat="50.765307" lon="3.775885">
        <ele>67.486765</ele>
        <time>2025-03-18T16:26:29.166Z</time>
      </trkpt>
      <trkpt lat="50.765782" lon="3.775361">
        <ele>71.696501</ele>
        <time>2025-03-18T16:26:49.970Z</time>
      </trkpt>
      <trkpt lat="50.765839" lon="3.775278">
        <ele>72.320057</ele>
        <time>2025-03-18T16:26:52.882Z</time>
      </trkpt>
      <trkpt lat="50.765982" lon="3.774932">
        <ele>74.423649</ele>
        <time>2025-03-18T16:27:02.920Z</time>
      </trkpt>
      <trkpt lat="50.766120" lon="3.774736">
        <ele>75.916364</ele>
        <time>2025-03-18T16:27:10.179Z</time>
      </trkpt>
      <trkpt lat="50.766240" lon="3.774674">
        <ele>76.932227</ele>
        <time>2025-03-18T16:27:15.157Z</time>
      </trkpt>
      <trkpt lat="50.766523" lon="3.774646">
        <ele>79.213919</ele>
        <time>2025-03-18T16:27:26.391Z</time>
      </trkpt>
      <trkpt lat="50.766668" lon="3.774519">
        <ele>80.547771</ele>
        <time>2025-03-18T16:27:32.858Z</time>
      </trkpt>
      <trkpt lat="50.766732" lon="3.774339">
        <ele>81.598699</ele>
        <time>2025-03-18T16:27:37.896Z</time>
      </trkpt>
      <trkpt lat="50.766752" lon="3.773678">
        <ele>84.665538</ele>
        <time>2025-03-18T16:27:53.639Z</time>
      </trkpt>
      <trkpt lat="50.766785" lon="3.773487">
        <ele>85.483285</ele>
        <time>2025-03-18T16:27:58.177Z</time>
      </trkpt>
      <trkpt lat="50.766881" lon="3.773202">
        <ele>86.816877</ele>
        <time>2025-03-18T16:28:05.323Z</time>
      </trkpt>
      <trkpt lat="50.767028" lon="3.772886">
        <ele>88.436969</ele>
        <time>2025-03-18T16:28:13.708Z</time>
      </trkpt>
      <trkpt lat="50.767338" lon="3.772363">
        <ele>91.397274</ele>
        <time>2025-03-18T16:28:28.316Z</time>
      </trkpt>
      <trkpt lat="50.767663" lon="3.771725">
        <ele>94.780593</ele>
        <time>2025-03-18T16:28:43.621Z</time>
      </trkpt>
      <trkpt lat="50.767985" lon="3.771006">
        <ele>97.626749</ele>
        <time>2025-03-18T16:28:59.224Z</time>
      </trkpt>
      <trkpt lat="50.768449" lon="3.769582">
        <ele>102.656233</ele>
        <time>2025-03-18T16:29:27.394Z</time>
      </trkpt>
      <trkpt lat="50.768622" lon="3.768870">
        <ele>104.791073</ele>
        <time>2025-03-18T16:29:40.485Z</time>
      </trkpt>
      <trkpt lat="50.769057" lon="3.767505">
        <ele>108.352066</ele>
        <time>2025-03-18T16:30:04.913Z</time>
      </trkpt>
      <trkpt lat="50.769252" lon="3.767120">
        <ele>109.501190</ele>
        <time>2025-03-18T16:30:12.144Z</time>
      </trkpt>
      <trkpt lat="50.769801" lon="3.766286">
        <ele>110.594358</ele>
        <time>2025-03-18T16:30:25.987Z</time>
      </trkpt>
      <trkpt lat="50.770025" lon="3.766350">
        <ele>110.556115</ele>
        <time>2025-03-18T16:30:28.990Z</time>
      </trkpt>
      <trkpt lat="50.770159" lon="3.766441">
        <ele>110.531614</ele>
        <time>2025-03-18T16:30:30.733Z</time>
      </trkpt>
      <trkpt lat="50.770252" lon="3.766567">
        <ele>110.511038</ele>
        <time>2025-03-18T16:30:32.081Z</time>
      </trkpt>
      <trkpt lat="50.770888" lon="3.767583">
        <ele>110.257856</ele>
        <time>2025-03-18T16:30:40.397Z</time>
      </trkpt>
      <trkpt lat="50.771009" lon="3.767777">
        <ele>109.846707</ele>
        <time>2025-03-18T16:30:41.853Z</time>
      </trkpt>
      <trkpt lat="50.771209" lon="3.768186">
        <ele>109.066582</ele>
        <time>2025-03-18T16:30:44.608Z</time>
      </trkpt>
      <trkpt lat="50.771473" lon="3.768822">
        <ele>107.918647</ele>
        <time>2025-03-18T16:30:48.691Z</time>
      </trkpt>
      <trkpt lat="50.771956" lon="3.769999">
        <ele>105.774523</ele>
        <time>2025-03-18T16:30:56.170Z</time>
      </trkpt>
      <trkpt lat="50.772010" lon="3.770130">
        <ele>105.515310</ele>
        <time>2025-03-18T16:30:57.000Z</time>
      </trkpt>
      <trkpt lat="50.772045" lon="3.770213">
        <ele>105.349942</ele>
        <time>2025-03-18T16:30:57.529Z</time>
      </trkpt>
      <trkpt lat="50.772346" lon="3.770941">
        <ele>103.908137</ele>
        <time>2025-03-18T16:31:02.174Z</time>
      </trkpt>
      <trkpt lat="50.772535" lon="3.771365">
        <ele>103.048243</ele>
        <time>2025-03-18T16:31:04.938Z</time>
      </trkpt>
      <trkpt lat="50.772608" lon="3.771479">
        <ele>102.779311</ele>
        <time>2025-03-18T16:31:05.805Z</time>
      </trkpt>
      <trkpt lat="50.772802" lon="3.771778">
        <ele>102.069213</ele>
        <time>2025-03-18T16:31:08.055Z</time>
      </trkpt>
      <trkpt lat="50.773287" lon="3.772381">
        <ele>100.551239</ele>
        <time>2025-03-18T16:31:13.158Z</time>
      </trkpt>
      <trkpt lat="50.773476" lon="3.772762">
        <ele>99.836195</ele>
        <time>2025-03-18T16:31:15.736Z</time>
      </trkpt>
      <trkpt lat="50.773519" lon="3.772955">
        <ele>99.534033</ele>
        <time>2025-03-18T16:31:16.817Z</time>
      </trkpt>
      <trkpt lat="50.773547" lon="3.773233">
        <ele>99.118351</ele>
        <time>2025-03-18T16:31:18.304Z</time>
      </trkpt>
      <trkpt lat="50.773577" lon="3.774218">
        <ele>97.662171</ele>
        <time>2025-03-18T16:31:23.657Z</time>
      </trkpt>
      <trkpt lat="50.773628" lon="3.774601">
        <ele>97.136909</ele>
        <time>2025-03-18T16:31:25.921Z</time>
      </trkpt>
      <trkpt lat="50.773790" lon="3.775293">
        <ele>96.796913</ele>
        <time>2025-03-18T16:31:30.437Z</time>
      </trkpt>
      <trkpt lat="50.773977" lon="3.775794">
        <ele>96.528860</ele>
        <time>2025-03-18T16:31:34.150Z</time>
      </trkpt>
      <trkpt lat="50.774037" lon="3.775916">
        <ele>96.457649</ele>
        <time>2025-03-18T16:31:35.143Z</time>
      </trkpt>
      <trkpt lat="50.774110" lon="3.775998">
        <ele>96.392407</ele>
        <time>2025-03-18T16:31:36.057Z</time>
      </trkpt>
      <trkpt lat="50.774254" lon="3.775884">
        <ele>96.275072</ele>
        <time>2025-03-18T16:31:37.727Z</time>
      </trkpt>
      <trkpt lat="50.774339" lon="3.775813">
        <ele>96.205031</ele>
        <time>2025-03-18T16:31:38.740Z</time>
      </trkpt>
      <trkpt lat="50.774408" lon="3.775753">
        <ele>96.147657</ele>
        <time>2025-03-18T16:31:39.570Z</time>
      </trkpt>
      <trkpt lat="50.774661" lon="3.775519">
        <ele>95.934102</ele>
        <time>2025-03-18T16:31:42.819Z</time>
      </trkpt>
      <trkpt lat="50.774786" lon="3.775393">
        <ele>95.873171</ele>
        <time>2025-03-18T16:31:44.600Z</time>
      </trkpt>
      <trkpt lat="50.775028" lon="3.775102">
        <ele>96.082623</ele>
        <time>2025-03-18T16:31:48.397Z</time>
      </trkpt>
      <trkpt lat="50.775175" lon="3.774730">
        <ele>96.273731</ele>
        <time>2025-03-18T16:31:51.946Z</time>
      </trkpt>
      <trkpt lat="50.775231" lon="3.774445">
        <ele>96.403751</ele>
        <time>2025-03-18T16:31:54.470Z</time>
      </trkpt>
      <trkpt lat="50.775249" lon="3.774176">
        <ele>96.521599</ele>
        <time>2025-03-18T16:31:56.930Z</time>
      </trkpt>
      <trkpt lat="50.775239" lon="3.773880">
        <ele>96.650739</ele>
        <time>2025-03-18T16:31:59.780Z</time>
      </trkpt>
      <trkpt lat="50.775239" lon="3.773878">
        <ele>96.651610</ele>
        <time>2025-03-18T16:31:59.801Z</time>
      </trkpt>
      <trkpt lat="50.774955" lon="3.770710">
        <ele>98.289847</ele>
        <time>2025-03-18T16:32:31.895Z</time>
      </trkpt>
      <trkpt lat="50.775051" lon="3.770468">
        <ele>98.446100</ele>
        <time>2025-03-18T16:32:34.092Z</time>
      </trkpt>
      <trkpt lat="50.775208" lon="3.770267">
        <ele>98.620819</ele>
        <time>2025-03-18T16:32:36.489Z</time>
      </trkpt>
      <trkpt lat="50.775273" lon="3.770240">
        <ele>98.626187</ele>
        <time>2025-03-18T16:32:37.307Z</time>
      </trkpt>
      <trkpt lat="50.775738" lon="3.770231">
        <ele>98.400095</ele>
        <time>2025-03-18T16:32:42.349Z</time>
      </trkpt>
      <trkpt lat="50.775939" lon="3.770115">
        <ele>98.296068</ele>
        <time>2025-03-18T16:32:44.499Z</time>
      </trkpt>
      <trkpt lat="50.776189" lon="3.769827">
        <ele>98.145692</ele>
        <time>2025-03-18T16:32:47.651Z</time>
      </trkpt>
      <trkpt lat="50.776666" lon="3.769071">
        <ele>97.817360</ele>
        <time>2025-03-18T16:32:54.702Z</time>
      </trkpt>
      <trkpt lat="50.776817" lon="3.768766">
        <ele>97.614958</ele>
        <time>2025-03-18T16:32:57.238Z</time>
      </trkpt>
      <trkpt lat="50.776965" lon="3.768461">
        <ele>97.360811</ele>
        <time>2025-03-18T16:32:59.684Z</time>
      </trkpt>
      <trkpt lat="50.777060" lon="3.768320">
        <ele>97.224608</ele>
        <time>2025-03-18T16:33:00.975Z</time>
      </trkpt>
      <trkpt lat="50.777567" lon="3.767525">
        <ele>96.478206</ele>
        <time>2025-03-18T16:33:07.787Z</time>
      </trkpt>
      <trkpt lat="50.777752" lon="3.767222">
        <ele>96.199775</ele>
        <time>2025-03-18T16:33:10.244Z</time>
      </trkpt>
      <trkpt lat="50.778098" lon="3.766527">
        <ele>95.741696</ele>
        <time>2025-03-18T16:33:15.537Z</time>
      </trkpt>
      <trkpt lat="50.778372" lon="3.766110">
        <ele>95.527025</ele>
        <time>2025-03-18T16:33:19.370Z</time>
      </trkpt>
      <trkpt lat="50.778393" lon="3.766072">
        <ele>95.509010</ele>
        <time>2025-03-18T16:33:19.689Z</time>
      </trkpt>
      <trkpt lat="50.778688" lon="3.765429">
        <ele>95.225431</ele>
        <time>2025-03-18T16:33:25.127Z</time>
      </trkpt>
      <trkpt lat="50.778750" lon="3.765344">
        <ele>95.179110</ele>
        <time>2025-03-18T16:33:26.103Z</time>
      </trkpt>
      <trkpt lat="50.778852" lon="3.765356">
        <ele>95.121369</ele>
        <time>2025-03-18T16:33:27.321Z</time>
      </trkpt>
      <trkpt lat="50.780074" lon="3.766666">
        <ele>93.558012</ele>
        <time>2025-03-18T16:33:44.454Z</time>
      </trkpt>
      <trkpt lat="50.780353" lon="3.766949">
        <ele>93.138224</ele>
        <time>2025-03-18T16:33:47.474Z</time>
      </trkpt>
      <trkpt lat="50.781030" lon="3.767483">
        <ele>90.861305</ele>
        <time>2025-03-18T16:33:53.597Z</time>
      </trkpt>
      <trkpt lat="50.781276" lon="3.767714">
        <ele>89.352820</ele>
        <time>2025-03-18T16:33:55.764Z</time>
      </trkpt>
      <trkpt lat="50.782636" lon="3.769391">
        <ele>79.809136</ele>
        <time>2025-03-18T16:34:08.375Z</time>
      </trkpt>
      <trkpt lat="50.782822" lon="3.769558">
        <ele>78.503184</ele>
        <time>2025-03-18T16:34:09.930Z</time>
      </trkpt>
      <trkpt lat="50.783130" lon="3.769674">
        <ele>76.569954</ele>
        <time>2025-03-18T16:34:12.236Z</time>
      </trkpt>
      <trkpt lat="50.783328" lon="3.769644">
        <ele>75.355433</ele>
        <time>2025-03-18T16:34:13.694Z</time>
      </trkpt>
      <trkpt lat="50.783943" lon="3.769380">
        <ele>71.554021</ele>
        <time>2025-03-18T16:34:18.389Z</time>
      </trkpt>
      <trkpt lat="50.784645" lon="3.769062">
        <ele>67.694976</ele>
        <time>2025-03-18T16:34:23.781Z</time>
      </trkpt>
      <trkpt lat="50.784754" lon="3.769067">
        <ele>67.118696</ele>
        <time>2025-03-18T16:34:24.585Z</time>
      </trkpt>
      <trkpt lat="50.785086" lon="3.769729">
        <ele>64.295443</ele>
        <time>2025-03-18T16:34:30.333Z</time>
      </trkpt>
      <trkpt lat="50.785290" lon="3.769901">
        <ele>63.073750</ele>
        <time>2025-03-18T16:34:32.844Z</time>
      </trkpt>
      <trkpt lat="50.785679" lon="3.770040">
        <ele>61.757863</ele>
        <time>2025-03-18T16:34:37.270Z</time>
      </trkpt>
      <trkpt lat="50.786194" lon="3.770000">
        <ele>60.333140</ele>
        <time>2025-03-18T16:34:43.260Z</time>
      </trkpt>
      <trkpt lat="50.786416" lon="3.770024">
        <ele>59.718295</ele>
        <time>2025-03-18T16:34:45.957Z</time>
      </trkpt>
      <trkpt lat="50.786563" lon="3.770084">
        <ele>59.298811</ele>
        <time>2025-03-18T16:34:47.854Z</time>
      </trkpt>
      <trkpt lat="50.787330" lon="3.770633">
        <ele>57.453701</ele>
        <time>2025-03-18T16:34:58.890Z</time>
      </trkpt>
      <trkpt lat="50.787793" lon="3.770779">
        <ele>57.068220</ele>
        <time>2025-03-18T16:35:05.442Z</time>
      </trkpt>
      <trkpt lat="50.787996" lon="3.770804">
        <ele>56.901967</ele>
        <time>2025-03-18T16:35:08.331Z</time>
      </trkpt>
      <trkpt lat="50.788167" lon="3.770799">
        <ele>56.762321</ele>
        <time>2025-03-18T16:35:10.772Z</time>
      </trkpt>
      <trkpt lat="50.788400" lon="3.770740">
        <ele>56.569653</ele>
        <time>2025-03-18T16:35:14.183Z</time>
      </trkpt>
      <trkpt lat="50.788529" lon="3.770672">
        <ele>56.458629</ele>
        <time>2025-03-18T16:35:16.172Z</time>
      </trkpt>
      <trkpt lat="50.788750" lon="3.770492">
        <ele>56.255665</ele>
        <time>2025-03-18T16:35:19.839Z</time>
      </trkpt>
      <trkpt lat="50.789619" lon="3.769259">
        <ele>56.841931</ele>
        <time>2025-03-18T16:35:39.611Z</time>
      </trkpt>
      <trkpt lat="50.789795" lon="3.769174">
        <ele>56.953219</ele>
        <time>2025-03-18T16:35:43.184Z</time>
      </trkpt>
      <trkpt lat="50.789914" lon="3.769177">
        <ele>57.025194</ele>
        <time>2025-03-18T16:35:45.546Z</time>
      </trkpt>
      <trkpt lat="50.790028" lon="3.769236">
        <ele>57.097733</ele>
        <time>2025-03-18T16:35:47.947Z</time>
      </trkpt>
      <trkpt lat="50.790205" lon="3.769440">
        <ele>57.230174</ele>
        <time>2025-03-18T16:35:51.459Z</time>
      </trkpt>
      <trkpt lat="50.790525" lon="3.769953">
        <ele>57.882061</ele>
        <time>2025-03-18T16:35:59.133Z</time>
      </trkpt>
      <trkpt lat="50.791095" lon="3.770827">
        <ele>59.144095</ele>
        <time>2025-03-18T16:36:12.947Z</time>
      </trkpt>
      <trkpt lat="50.792055" lon="3.772785">
        <ele>61.780281</ele>
        <time>2025-03-18T16:36:39.743Z</time>
      </trkpt>
      <trkpt lat="50.792153" lon="3.772981">
        <ele>62.055852</ele>
        <time>2025-03-18T16:36:42.536Z</time>
      </trkpt>
      <trkpt lat="50.792169" lon="3.773028">
        <ele>62.114717</ele>
        <time>2025-03-18T16:36:43.256Z</time>
      </trkpt>
      <trkpt lat="50.792206" lon="3.772934">
        <ele>62.236826</ele>
        <time>2025-03-18T16:36:44.856Z</time>
      </trkpt>
      <trkpt lat="50.793166" lon="3.771617">
        <ele>64.432567</ele>
        <time>2025-03-18T16:37:12.822Z</time>
      </trkpt>
      <trkpt lat="50.793354" lon="3.771285">
        <ele>64.915375</ele>
        <time>2025-03-18T16:37:18.987Z</time>
      </trkpt>
      <trkpt lat="50.793461" lon="3.771060">
        <ele>65.220358</ele>
        <time>2025-03-18T16:37:22.821Z</time>
      </trkpt>
      <trkpt lat="50.793664" lon="3.770503">
        <ele>65.916780</ele>
        <time>2025-03-18T16:37:31.627Z</time>
      </trkpt>
      <trkpt lat="50.794362" lon="3.770905">
        <ele>66.961581</ele>
        <time>2025-03-18T16:37:43.985Z</time>
      </trkpt>
      <trkpt lat="50.794636" lon="3.771154">
        <ele>67.355296</ele>
        <time>2025-03-18T16:37:50.485Z</time>
      </trkpt>
      <trkpt lat="50.795510" lon="3.772228">
        <ele>68.585761</ele>
        <time>2025-03-18T16:38:12.394Z</time>
      </trkpt>
      <trkpt lat="50.795605" lon="3.772305">
        <ele>68.577001</ele>
        <time>2025-03-18T16:38:14.367Z</time>
      </trkpt>
      <trkpt lat="50.795752" lon="3.772328">
        <ele>68.564879</ele>
        <time>2025-03-18T16:38:16.495Z</time>
      </trkpt>
      <trkpt lat="50.795907" lon="3.772265">
        <ele>68.551745</ele>
        <time>2025-03-18T16:38:18.821Z</time>
      </trkpt>
      <trkpt lat="50.796887" lon="3.771282">
        <ele>68.456517</ele>
        <time>2025-03-18T16:38:32.675Z</time>
      </trkpt>
      <trkpt lat="50.797051" lon="3.771137">
        <ele>68.198972</ele>
        <time>2025-03-18T16:38:34.369Z</time>
      </trkpt>
      <trkpt lat="50.797215" lon="3.770993">
        <ele>67.584928</ele>
        <time>2025-03-18T16:38:35.974Z</time>
      </trkpt>
      <trkpt lat="50.797289" lon="3.771112">
        <ele>67.239495</ele>
        <time>2025-03-18T16:38:36.867Z</time>
      </trkpt>
      <trkpt lat="50.797355" lon="3.771307">
        <ele>66.781783</ele>
        <time>2025-03-18T16:38:38.021Z</time>
      </trkpt>
      <trkpt lat="50.797664" lon="3.772414">
        <ele>64.277710</ele>
        <time>2025-03-18T16:38:43.986Z</time>
      </trkpt>
      <trkpt lat="50.797889" lon="3.773391">
        <ele>62.443762</ele>
        <time>2025-03-18T16:38:49.052Z</time>
      </trkpt>
      <trkpt lat="50.797899" lon="3.773553">
        <ele>62.354134</ele>
        <time>2025-03-18T16:38:50.219Z</time>
      </trkpt>
      <trkpt lat="50.797939" lon="3.774015">
        <ele>62.097361</ele>
        <time>2025-03-18T16:38:53.669Z</time>
      </trkpt>
      <trkpt lat="50.798078" lon="3.774526">
        <ele>61.791032</ele>
        <time>2025-03-18T16:38:58.169Z</time>
      </trkpt>
      <trkpt lat="50.798190" lon="3.774846">
        <ele>61.589615</ele>
        <time>2025-03-18T16:39:01.567Z</time>
      </trkpt>
      <trkpt lat="50.798333" lon="3.775082">
        <ele>61.409595</ele>
        <time>2025-03-18T16:39:05.178Z</time>
      </trkpt>
      <trkpt lat="50.798526" lon="3.775242">
        <ele>61.219771</ele>
        <time>2025-03-18T16:39:09.528Z</time>
      </trkpt>
      <trkpt lat="50.798729" lon="3.775426">
        <ele>61.015954</ele>
        <time>2025-03-18T16:39:14.598Z</time>
      </trkpt>
      <trkpt lat="50.798851" lon="3.775687">
        <ele>61.632523</ele>
        <time>2025-03-18T16:39:19.621Z</time>
      </trkpt>
      <trkpt lat="50.798935" lon="3.776134">
        <ele>62.695066</ele>
        <time>2025-03-18T16:39:27.724Z</time>
      </trkpt>
      <trkpt lat="50.798997" lon="3.776442">
        <ele>63.431569</ele>
        <time>2025-03-18T16:39:33.832Z</time>
      </trkpt>
      <trkpt lat="50.799106" lon="3.776749">
        <ele>64.233869</ele>
        <time>2025-03-18T16:39:40.720Z</time>
      </trkpt>
      <trkpt lat="50.799478" lon="3.777487">
        <ele>66.384642</ele>
        <time>2025-03-18T16:39:58.917Z</time>
      </trkpt>
      <trkpt lat="50.799687" lon="3.778100">
        <ele>67.583640</ele>
        <time>2025-03-18T16:40:11.362Z</time>
      </trkpt>
      <trkpt lat="50.800059" lon="3.778812">
        <ele>68.040828</ele>
        <time>2025-03-18T16:40:25.804Z</time>
      </trkpt>
      <trkpt lat="50.800359" lon="3.779384">
        <ele>68.408690</ele>
        <time>2025-03-18T16:40:34.002Z</time>
      </trkpt>
      <trkpt lat="50.800691" lon="3.780085">
        <ele>68.842215</ele>
        <time>2025-03-18T16:40:41.393Z</time>
      </trkpt>
      <trkpt lat="50.800995" lon="3.780785">
        <ele>67.778744</ele>
        <time>2025-03-18T16:40:47.981Z</time>
      </trkpt>
      <trkpt lat="50.801314" lon="3.781629">
        <ele>66.355682</ele>
        <time>2025-03-18T16:40:55.472Z</time>
      </trkpt>
      <trkpt lat="50.801581" lon="3.782395">
        <ele>65.089830</ele>
        <time>2025-03-18T16:41:02.133Z</time>
      </trkpt>
      <trkpt lat="50.801707" lon="3.782873">
        <ele>64.487318</ele>
        <time>2025-03-18T16:41:06.212Z</time>
      </trkpt>
      <trkpt lat="50.801740" lon="3.783137">
        <ele>64.232268</ele>
        <time>2025-03-18T16:41:08.418Z</time>
      </trkpt>
      <trkpt lat="50.801763" lon="3.784098">
        <ele>63.320842</ele>
        <time>2025-03-18T16:41:16.698Z</time>
      </trkpt>
      <trkpt lat="50.802245" lon="3.784607">
        <ele>62.451858</ele>
        <time>2025-03-18T16:41:22.167Z</time>
      </trkpt>
      <trkpt lat="50.802418" lon="3.784823">
        <ele>62.121393</ele>
        <time>2025-03-18T16:41:24.224Z</time>
      </trkpt>
      <trkpt lat="50.802582" lon="3.785261">
        <ele>61.510003</ele>
        <time>2025-03-18T16:41:27.288Z</time>
      </trkpt>
      <trkpt lat="50.803427" lon="3.787804">
        <ele>57.997579</ele>
        <time>2025-03-18T16:41:43.042Z</time>
      </trkpt>
      <trkpt lat="50.804134" lon="3.789194">
        <ele>55.898083</ele>
        <time>2025-03-18T16:41:52.957Z</time>
      </trkpt>
      <trkpt lat="50.804382" lon="3.789575">
        <ele>55.254507</ele>
        <time>2025-03-18T16:41:56.107Z</time>
      </trkpt>
      <trkpt lat="50.804435" lon="3.789640">
        <ele>55.199168</ele>
        <time>2025-03-18T16:41:56.730Z</time>
      </trkpt>
      <trkpt lat="50.805186" lon="3.790551">
        <ele>54.879274</ele>
        <time>2025-03-18T16:42:06.162Z</time>
      </trkpt>
      <trkpt lat="50.805603" lon="3.790140">
        <ele>54.713197</ele>
        <time>2025-03-18T16:42:12.184Z</time>
      </trkpt>
      <trkpt lat="50.806032" lon="3.789774">
        <ele>54.571298</ele>
        <time>2025-03-18T16:42:19.426Z</time>
      </trkpt>
      <trkpt lat="50.806140" lon="3.789616">
        <ele>54.541134</ele>
        <time>2025-03-18T16:42:21.865Z</time>
      </trkpt>
      <trkpt lat="50.806243" lon="3.789400">
        <ele>54.506066</ele>
        <time>2025-03-18T16:42:24.742Z</time>
      </trkpt>
      <trkpt lat="50.806673" lon="3.788119">
        <ele>54.318087</ele>
        <time>2025-03-18T16:42:37.058Z</time>
      </trkpt>
      <trkpt lat="50.806831" lon="3.787744">
        <ele>54.259677</ele>
        <time>2025-03-18T16:42:39.693Z</time>
      </trkpt>
      <trkpt lat="50.807022" lon="3.787468">
        <ele>53.621603</ele>
        <time>2025-03-18T16:42:41.877Z</time>
      </trkpt>
      <trkpt lat="50.807860" lon="3.786650">
        <ele>49.616464</ele>
        <time>2025-03-18T16:42:49.384Z</time>
      </trkpt>
      <trkpt lat="50.807930" lon="3.786548">
        <ele>49.229393</ele>
        <time>2025-03-18T16:42:50.093Z</time>
      </trkpt>
      <trkpt lat="50.808182" lon="3.785956">
        <ele>47.394601</ele>
        <time>2025-03-18T16:42:53.501Z</time>
      </trkpt>
      <trkpt lat="50.808449" lon="3.785408">
        <ele>45.907530</ele>
        <time>2025-03-18T16:42:56.916Z</time>
      </trkpt>
      <trkpt lat="50.808803" lon="3.784848">
        <ele>44.326354</ele>
        <time>2025-03-18T16:43:00.942Z</time>
      </trkpt>
      <trkpt lat="50.809353" lon="3.784909">
        <ele>42.584677</ele>
        <time>2025-03-18T16:43:05.523Z</time>
      </trkpt>
      <trkpt lat="50.809519" lon="3.784993">
        <ele>42.034138</ele>
        <time>2025-03-18T16:43:06.995Z</time>
      </trkpt>
      <trkpt lat="50.809713" lon="3.785243">
        <ele>41.243822</ele>
        <time>2025-03-18T16:43:09.105Z</time>
      </trkpt>
      <trkpt lat="50.810054" lon="3.785491">
        <ele>40.829218</ele>
        <time>2025-03-18T16:43:12.334Z</time>
      </trkpt>
      <trkpt lat="50.810419" lon="3.786029">
        <ele>40.281965</ele>
        <time>2025-03-18T16:43:16.808Z</time>
      </trkpt>
      <trkpt lat="50.810544" lon="3.786136">
        <ele>40.126044</ele>
        <time>2025-03-18T16:43:18.167Z</time>
      </trkpt>
      <trkpt lat="50.811366" lon="3.786316">
        <ele>39.342583</ele>
        <time>2025-03-18T16:43:27.297Z</time>
      </trkpt>
      <trkpt lat="50.811761" lon="3.786456">
        <ele>40.016050</ele>
        <time>2025-03-18T16:43:33.103Z</time>
      </trkpt>
      <trkpt lat="50.812340" lon="3.786702">
        <ele>41.013481</ele>
        <time>2025-03-18T16:43:43.447Z</time>
      </trkpt>
      <trkpt lat="50.812582" lon="3.786865">
        <ele>41.451060</ele>
        <time>2025-03-18T16:43:48.765Z</time>
      </trkpt>
      <trkpt lat="50.812768" lon="3.787082">
        <ele>41.835516</ele>
        <time>2025-03-18T16:43:53.885Z</time>
      </trkpt>
      <trkpt lat="50.812827" lon="3.787222">
        <ele>42.012425</ele>
        <time>2025-03-18T16:43:56.257Z</time>
      </trkpt>
      <trkpt lat="50.812876" lon="3.788029">
        <ele>42.041355</ele>
        <time>2025-03-18T16:44:06.395Z</time>
      </trkpt>
      <trkpt lat="50.812962" lon="3.788396">
        <ele>41.893882</ele>
        <time>2025-03-18T16:44:10.294Z</time>
      </trkpt>
      <trkpt lat="50.813087" lon="3.788660">
        <ele>41.769591</ele>
        <time>2025-03-18T16:44:13.031Z</time>
      </trkpt>
      <trkpt lat="50.813202" lon="3.788657">
        <ele>41.701010</ele>
        <time>2025-03-18T16:44:14.298Z</time>
      </trkpt>
      <trkpt lat="50.813282" lon="3.788600">
        <ele>41.648698</ele>
        <time>2025-03-18T16:44:15.185Z</time>
      </trkpt>
      <trkpt lat="50.814325" lon="3.787646">
        <ele>40.405332</ele>
        <time>2025-03-18T16:44:25.021Z</time>
      </trkpt>
      <trkpt lat="50.814581" lon="3.787489">
        <ele>39.905472</ele>
        <time>2025-03-18T16:44:27.193Z</time>
      </trkpt>
      <trkpt lat="50.815013" lon="3.787299">
        <ele>39.089141</ele>
        <time>2025-03-18T16:44:30.959Z</time>
      </trkpt>
      <trkpt lat="50.815365" lon="3.787198">
        <ele>38.437820</ele>
        <time>2025-03-18T16:44:34.381Z</time>
      </trkpt>
      <trkpt lat="50.815579" lon="3.787187">
        <ele>38.047992</ele>
        <time>2025-03-18T16:44:36.934Z</time>
      </trkpt>
      <trkpt lat="50.815824" lon="3.787247">
        <ele>38.366517</ele>
        <time>2025-03-18T16:44:40.737Z</time>
      </trkpt>
      <trkpt lat="50.815983" lon="3.787265">
        <ele>38.786199</ele>
        <time>2025-03-18T16:44:43.419Z</time>
      </trkpt>
      <trkpt lat="50.816566" lon="3.787172">
        <ele>40.328889</ele>
        <time>2025-03-18T16:44:54.777Z</time>
      </trkpt>
      <trkpt lat="50.816841" lon="3.787176">
        <ele>41.052936</ele>
        <time>2025-03-18T16:45:00.895Z</time>
      </trkpt>
      <trkpt lat="50.816780" lon="3.787803">
        <ele>42.108179</ele>
        <time>2025-03-18T16:45:10.549Z</time>
      </trkpt>
      <trkpt lat="50.816791" lon="3.788239">
        <ele>42.940483</ele>
        <time>2025-03-18T16:45:17.642Z</time>
      </trkpt>
      <trkpt lat="50.816959" lon="3.789092">
        <ele>45.272149</ele>
        <time>2025-03-18T16:45:32.386Z</time>
      </trkpt>
      <trkpt lat="50.817008" lon="3.789590">
        <ele>46.587408</ele>
        <time>2025-03-18T16:45:40.742Z</time>
      </trkpt>
      <trkpt lat="50.817031" lon="3.790646">
        <ele>49.344807</ele>
        <time>2025-03-18T16:45:58.368Z</time>
      </trkpt>
      <trkpt lat="50.816957" lon="3.791912">
        <ele>51.227633</ele>
        <time>2025-03-18T16:46:15.439Z</time>
      </trkpt>
      <trkpt lat="50.816988" lon="3.792016">
        <ele>51.361234</ele>
        <time>2025-03-18T16:46:16.699Z</time>
      </trkpt>
      <trkpt lat="50.817288" lon="3.792417">
        <ele>52.083306</ele>
        <time>2025-03-18T16:46:22.978Z</time>
      </trkpt>
      <trkpt lat="50.817832" lon="3.792932">
        <ele>53.248946</ele>
        <time>2025-03-18T16:46:32.337Z</time>
      </trkpt>
      <trkpt lat="50.817920" lon="3.793015">
        <ele>53.462688</ele>
        <time>2025-03-18T16:46:33.661Z</time>
      </trkpt>
      <trkpt lat="50.818149" lon="3.793475">
        <ele>54.464137</ele>
        <time>2025-03-18T16:46:38.555Z</time>
      </trkpt>
      <trkpt lat="50.818330" lon="3.794151">
        <ele>55.719612</ele>
        <time>2025-03-18T16:46:46.108Z</time>
      </trkpt>
      <trkpt lat="50.818453" lon="3.794196">
        <ele>56.061301</ele>
        <time>2025-03-18T16:46:48.588Z</time>
      </trkpt>
      <trkpt lat="50.818824" lon="3.794181">
        <ele>57.065778</ele>
        <time>2025-03-18T16:46:57.137Z</time>
      </trkpt>
      <trkpt lat="50.818985" lon="3.794231">
        <ele>57.509850</ele>
        <time>2025-03-18T16:47:01.551Z</time>
      </trkpt>
      <trkpt lat="50.819217" lon="3.794385">
        <ele>58.190763</ele>
        <time>2025-03-18T16:47:08.855Z</time>
      </trkpt>
      <trkpt lat="50.819514" lon="3.794775">
        <ele>60.838979</ele>
        <time>2025-03-18T16:47:19.961Z</time>
      </trkpt>
      <trkpt lat="50.820084" lon="3.794823">
        <ele>64.903304</ele>
        <time>2025-03-18T16:47:37.999Z</time>
      </trkpt>
      <trkpt lat="50.820142" lon="3.794893">
        <ele>65.422633</ele>
        <time>2025-03-18T16:47:40.589Z</time>
      </trkpt>
      <trkpt lat="50.820179" lon="3.794999">
        <ele>65.967395</ele>
        <time>2025-03-18T16:47:43.307Z</time>
      </trkpt>
      <trkpt lat="50.820167" lon="3.796047">
        <ele>70.682400</ele>
        <time>2025-03-18T16:48:10.024Z</time>
      </trkpt>
      <trkpt lat="50.820194" lon="3.796162">
        <ele>71.214407</ele>
        <time>2025-03-18T16:48:13.470Z</time>
      </trkpt>
      <trkpt lat="50.820255" lon="3.796241">
        <ele>71.712095</ele>
        <time>2025-03-18T16:48:16.807Z</time>
      </trkpt>
      <trkpt lat="50.820328" lon="3.796268">
        <ele>72.185478</ele>
        <time>2025-03-18T16:48:20.013Z</time>
      </trkpt>
      <trkpt lat="50.820710" lon="3.796202">
        <ele>74.611985</ele>
        <time>2025-03-18T16:48:35.514Z</time>
      </trkpt>
      <trkpt lat="50.821238" lon="3.796057">
        <ele>77.995902</ele>
        <time>2025-03-18T16:48:56.546Z</time>
      </trkpt>
      <trkpt lat="50.822021" lon="3.795791">
        <ele>81.942705</ele>
        <time>2025-03-18T16:49:17.068Z</time>
      </trkpt>
      <trkpt lat="50.822109" lon="3.795803">
        <ele>81.527529</ele>
        <time>2025-03-18T16:49:18.012Z</time>
      </trkpt>
      <trkpt lat="50.822170" lon="3.795887">
        <ele>81.147488</ele>
        <time>2025-03-18T16:49:18.743Z</time>
      </trkpt>
      <trkpt lat="50.822176" lon="3.795686">
        <ele>80.549964</ele>
        <time>2025-03-18T16:49:19.813Z</time>
      </trkpt>
      <trkpt lat="50.822215" lon="3.795558">
        <ele>80.127976</ele>
        <time>2025-03-18T16:49:20.518Z</time>
      </trkpt>
      <trkpt lat="50.822268" lon="3.795509">
        <ele>79.839471</ele>
        <time>2025-03-18T16:49:20.996Z</time>
      </trkpt>
      <trkpt lat="50.822915" lon="3.795567">
        <ele>76.793374</ele>
        <time>2025-03-18T16:49:25.746Z</time>
      </trkpt>
      <trkpt lat="50.823197" lon="3.795521">
        <ele>75.460814</ele>
        <time>2025-03-18T16:49:27.741Z</time>
      </trkpt>
      <trkpt lat="50.824473" lon="3.794964">
        <ele>66.426011</ele>
        <time>2025-03-18T16:49:36.989Z</time>
      </trkpt>
      <trkpt lat="50.825271" lon="3.794773">
        <ele>60.469056</ele>
        <time>2025-03-18T16:49:42.800Z</time>
      </trkpt>
      <trkpt lat="50.825449" lon="3.794829">
        <ele>60.435565</ele>
        <time>2025-03-18T16:49:44.180Z</time>
      </trkpt>
      <trkpt lat="50.825806" lon="3.795161">
        <ele>60.359158</ele>
        <time>2025-03-18T16:49:47.552Z</time>
      </trkpt>
      <trkpt lat="50.826035" lon="3.795277">
        <ele>60.314788</ele>
        <time>2025-03-18T16:49:49.876Z</time>
      </trkpt>
      <trkpt lat="50.826753" lon="3.795236">
        <ele>60.182203</ele>
        <time>2025-03-18T16:50:03.154Z</time>
      </trkpt>
      <trkpt lat="50.826864" lon="3.795128">
        <ele>60.158159</ele>
        <time>2025-03-18T16:50:06.211Z</time>
      </trkpt>
      <trkpt lat="50.826974" lon="3.795019">
        <ele>60.328593</ele>
        <time>2025-03-18T16:50:09.340Z</time>
      </trkpt>
      <trkpt lat="50.827368" lon="3.794599">
        <ele>63.423498</ele>
        <time>2025-03-18T16:50:22.846Z</time>
      </trkpt>
      <trkpt lat="50.827556" lon="3.794303">
        <ele>65.151099</ele>
        <time>2025-03-18T16:50:31.718Z</time>
      </trkpt>
      <trkpt lat="50.827760" lon="3.793734">
        <ele>67.843839</ele>
        <time>2025-03-18T16:50:46.416Z</time>
      </trkpt>
      <trkpt lat="50.827801" lon="3.793679">
        <ele>68.193988</ele>
        <time>2025-03-18T16:50:48.385Z</time>
      </trkpt>
      <trkpt lat="50.827900" lon="3.793596">
        <ele>68.923907</ele>
        <time>2025-03-18T16:50:52.516Z</time>
      </trkpt>
      <trkpt lat="50.828024" lon="3.793553">
        <ele>69.751006</ele>
        <time>2025-03-18T16:50:57.254Z</time>
      </trkpt>
      <trkpt lat="50.828365" lon="3.793496">
        <ele>71.975266</ele>
        <time>2025-03-18T16:51:09.994Z</time>
      </trkpt>
      <trkpt lat="50.828800" lon="3.793185">
        <ele>74.840440</ele>
        <time>2025-03-18T16:51:27.848Z</time>
      </trkpt>
      <trkpt lat="50.828951" lon="3.793085">
        <ele>75.822986</ele>
        <time>2025-03-18T16:51:34.041Z</time>
      </trkpt>
      <trkpt lat="50.829213" lon="3.792977">
        <ele>77.448181</ele>
        <time>2025-03-18T16:51:43.256Z</time>
      </trkpt>
      <trkpt lat="50.830146" lon="3.792770">
        <ele>82.827088</ele>
        <time>2025-03-18T16:52:08.557Z</time>
      </trkpt>
      <trkpt lat="50.830685" lon="3.792690">
        <ele>84.069164</ele>
        <time>2025-03-18T16:52:19.552Z</time>
      </trkpt>
      <trkpt lat="50.830717" lon="3.792672">
        <ele>84.147079</ele>
        <time>2025-03-18T16:52:20.230Z</time>
      </trkpt>
      <trkpt lat="50.830954" lon="3.792560">
        <ele>84.714546</ele>
        <time>2025-03-18T16:52:25.046Z</time>
      </trkpt>
      <trkpt lat="50.831422" lon="3.792422">
        <ele>85.806764</ele>
        <time>2025-03-18T16:52:32.757Z</time>
      </trkpt>
      <trkpt lat="50.831496" lon="3.792430">
        <ele>85.976942</ele>
        <time>2025-03-18T16:52:33.835Z</time>
      </trkpt>
      <trkpt lat="50.831644" lon="3.792518">
        <ele>86.339661</ele>
        <time>2025-03-18T16:52:36.273Z</time>
      </trkpt>
      <trkpt lat="50.831850" lon="3.792710">
        <ele>86.893974</ele>
        <time>2025-03-18T16:52:40.134Z</time>
      </trkpt>
      <trkpt lat="50.832040" lon="3.792412">
        <ele>87.541723</ele>
        <time>2025-03-18T16:52:45.906Z</time>
      </trkpt>
      <trkpt lat="50.832248" lon="3.792145">
        <ele>88.190273</ele>
        <time>2025-03-18T16:52:52.066Z</time>
      </trkpt>
      <trkpt lat="50.832396" lon="3.792041">
        <ele>88.582450</ele>
        <time>2025-03-18T16:52:55.926Z</time>
      </trkpt>
      <trkpt lat="50.832741" lon="3.791875">
        <ele>89.455779</ele>
        <time>2025-03-18T16:53:04.871Z</time>
      </trkpt>
      <trkpt lat="50.833061" lon="3.791618">
        <ele>90.324831</ele>
        <time>2025-03-18T16:53:14.018Z</time>
      </trkpt>
      <trkpt lat="50.833061" lon="3.791492">
        <ele>90.517574</ele>
        <time>2025-03-18T16:53:15.771Z</time>
      </trkpt>
      <trkpt lat="50.833824" lon="3.790686">
        <ele>92.402235</ele>
        <time>2025-03-18T16:53:35.456Z</time>
      </trkpt>
      <trkpt lat="50.833900" lon="3.790681">
        <ele>92.547679</ele>
        <time>2025-03-18T16:53:36.882Z</time>
      </trkpt>
      <trkpt lat="50.833931" lon="3.790693">
        <ele>92.608699</ele>
        <time>2025-03-18T16:53:37.453Z</time>
      </trkpt>
      <trkpt lat="50.834155" lon="3.791137">
        <ele>93.294946</ele>
        <time>2025-03-18T16:53:43.728Z</time>
      </trkpt>
      <trkpt lat="50.834420" lon="3.791573">
        <ele>94.025675</ele>
        <time>2025-03-18T16:53:49.842Z</time>
      </trkpt>
      <trkpt lat="50.834543" lon="3.791673">
        <ele>94.290052</ele>
        <time>2025-03-18T16:53:51.872Z</time>
      </trkpt>
      <trkpt lat="50.834623" lon="3.791284">
        <ele>94.632485</ele>
        <time>2025-03-18T16:53:56.509Z</time>
      </trkpt>
      <trkpt lat="50.834804" lon="3.790807">
        <ele>94.809601</ele>
        <time>2025-03-18T16:54:02.563Z</time>
      </trkpt>
      <trkpt lat="50.835467" lon="3.789910">
        <ele>95.249087</ele>
        <time>2025-03-18T16:54:18.549Z</time>
      </trkpt>
      <trkpt lat="50.835531" lon="3.789850">
        <ele>95.286570</ele>
        <time>2025-03-18T16:54:19.877Z</time>
      </trkpt>
      <trkpt lat="50.835936" lon="3.789512">
        <ele>95.443527</ele>
        <time>2025-03-18T16:54:25.809Z</time>
      </trkpt>
      <trkpt lat="50.836888" lon="3.789035">
        <ele>94.808662</ele>
        <time>2025-03-18T16:54:37.036Z</time>
      </trkpt>
      <trkpt lat="50.837273" lon="3.788743">
        <ele>94.537248</ele>
        <time>2025-03-18T16:54:41.168Z</time>
      </trkpt>
      <trkpt lat="50.837995" lon="3.788117">
        <ele>93.456785</ele>
        <time>2025-03-18T16:54:48.548Z</time>
      </trkpt>
      <trkpt lat="50.838717" lon="3.787699">
        <ele>92.135828</ele>
        <time>2025-03-18T16:54:55.310Z</time>
      </trkpt>
      <trkpt lat="50.839407" lon="3.787352">
        <ele>91.047386</ele>
        <time>2025-03-18T16:55:01.911Z</time>
      </trkpt>
      <trkpt lat="50.840418" lon="3.786956">
        <ele>90.034139</ele>
        <time>2025-03-18T16:55:12.158Z</time>
      </trkpt>
      <trkpt lat="50.841301" lon="3.786701">
        <ele>89.212793</ele>
        <time>2025-03-18T16:55:21.453Z</time>
      </trkpt>
      <trkpt lat="50.842225" lon="3.786751">
        <ele>88.450753</ele>
        <time>2025-03-18T16:55:31.062Z</time>
      </trkpt>
      <trkpt lat="50.842779" lon="3.786846">
        <ele>87.954146</ele>
        <time>2025-03-18T16:55:36.478Z</time>
      </trkpt>
      <trkpt lat="50.842957" lon="3.787106">
        <ele>87.474073</ele>
        <time>2025-03-18T16:55:38.749Z</time>
      </trkpt>
      <trkpt lat="50.843037" lon="3.787302">
        <ele>87.181913</ele>
        <time>2025-03-18T16:55:40.102Z</time>
      </trkpt>
      <trkpt lat="50.843999" lon="3.789221">
        <ele>83.979018</ele>
        <time>2025-03-18T16:55:53.461Z</time>
      </trkpt>
      <trkpt lat="50.844233" lon="3.789394">
        <ele>83.261388</ele>
        <time>2025-03-18T16:55:56.527Z</time>
      </trkpt>
      <trkpt lat="50.844471" lon="3.789522">
        <ele>82.562911</ele>
        <time>2025-03-18T16:55:59.494Z</time>
      </trkpt>
      <trkpt lat="50.844538" lon="3.789596">
        <ele>82.335919</ele>
        <time>2025-03-18T16:56:00.454Z</time>
      </trkpt>
      <trkpt lat="50.844883" lon="3.790175">
        <ele>80.939024</ele>
        <time>2025-03-18T16:56:06.370Z</time>
      </trkpt>
      <trkpt lat="50.845060" lon="3.790419">
        <ele>80.286924</ele>
        <time>2025-03-18T16:56:09.141Z</time>
      </trkpt>
      <trkpt lat="50.845578" lon="3.791021">
        <ele>78.510449</ele>
        <time>2025-03-18T16:56:16.878Z</time>
      </trkpt>
      <trkpt lat="50.845722" lon="3.791324">
        <ele>77.851302</ele>
        <time>2025-03-18T16:56:19.801Z</time>
      </trkpt>
      <trkpt lat="50.845851" lon="3.791866">
        <ele>76.844556</ele>
        <time>2025-03-18T16:56:24.242Z</time>
      </trkpt>
      <trkpt lat="50.845961" lon="3.792334">
        <ele>75.976604</ele>
        <time>2025-03-18T16:56:28.057Z</time>
      </trkpt>
      <trkpt lat="50.846123" lon="3.793005">
        <ele>74.728007</ele>
        <time>2025-03-18T16:56:33.456Z</time>
      </trkpt>
      <trkpt lat="50.846196" lon="3.793173">
        <ele>74.336969</ele>
        <time>2025-03-18T16:56:34.966Z</time>
      </trkpt>
      <trkpt lat="50.846377" lon="3.793466">
        <ele>73.422841</ele>
        <time>2025-03-18T16:56:37.973Z</time>
      </trkpt>
      <trkpt lat="50.846648" lon="3.793712">
        <ele>72.319616</ele>
        <time>2025-03-18T16:56:41.523Z</time>
      </trkpt>
      <trkpt lat="50.846829" lon="3.793948">
        <ele>71.491567</ele>
        <time>2025-03-18T16:56:44.165Z</time>
      </trkpt>
      <trkpt lat="50.846948" lon="3.794217">
        <ele>70.759097</ele>
        <time>2025-03-18T16:56:46.512Z</time>
      </trkpt>
      <trkpt lat="50.847130" lon="3.794768">
        <ele>69.372358</ele>
        <time>2025-03-18T16:56:51.039Z</time>
      </trkpt>
      <trkpt lat="50.847146" lon="3.794810">
        <ele>69.262969</ele>
        <time>2025-03-18T16:56:51.396Z</time>
      </trkpt>
      <trkpt lat="50.847487" lon="3.795701">
        <ele>66.790277</ele>
        <time>2025-03-18T16:56:58.924Z</time>
      </trkpt>
      <trkpt lat="50.847726" lon="3.796278">
        <ele>65.061696</ele>
        <time>2025-03-18T16:57:03.819Z</time>
      </trkpt>
      <trkpt lat="50.847786" lon="3.796358">
        <ele>64.750541</ele>
        <time>2025-03-18T16:57:04.695Z</time>
      </trkpt>
      <trkpt lat="50.847921" lon="3.796418">
        <ele>64.194270</ele>
        <time>2025-03-18T16:57:06.273Z</time>
      </trkpt>
      <trkpt lat="50.848009" lon="3.796402">
        <ele>63.842856</ele>
        <time>2025-03-18T16:57:07.254Z</time>
      </trkpt>
      <trkpt lat="50.848389" lon="3.796178">
        <ele>62.234261</ele>
        <time>2025-03-18T16:57:11.761Z</time>
      </trkpt>
      <trkpt lat="50.848603" lon="3.796008">
        <ele>61.284459</ele>
        <time>2025-03-18T16:57:14.397Z</time>
      </trkpt>
      <trkpt lat="50.848821" lon="3.795728">
        <ele>60.494543</ele>
        <time>2025-03-18T16:57:17.461Z</time>
      </trkpt>
      <trkpt lat="50.849592" lon="3.794400">
        <ele>57.709422</ele>
        <time>2025-03-18T16:57:30.704Z</time>
      </trkpt>
      <trkpt lat="50.849744" lon="3.794208">
        <ele>57.234046</ele>
        <time>2025-03-18T16:57:33.449Z</time>
      </trkpt>
      <trkpt lat="50.850346" lon="3.793620">
        <ele>57.587322</ele>
        <time>2025-03-18T16:57:46.585Z</time>
      </trkpt>
      <trkpt lat="50.850375" lon="3.793583">
        <ele>57.666838</ele>
        <time>2025-03-18T16:57:47.459Z</time>
      </trkpt>
      <trkpt lat="50.850658" lon="3.793206">
        <ele>58.456458</ele>
        <time>2025-03-18T16:57:55.000Z</time>
      </trkpt>
      <trkpt lat="50.851168" lon="3.792231">
        <ele>60.163412</ele>
        <time>2025-03-18T16:58:12.774Z</time>
      </trkpt>
      <trkpt lat="50.851877" lon="3.791415">
        <ele>62.258779</ele>
        <time>2025-03-18T16:58:30.724Z</time>
      </trkpt>
      <trkpt lat="50.852067" lon="3.791124">
        <ele>62.903249</ele>
        <time>2025-03-18T16:58:35.657Z</time>
      </trkpt>
      <trkpt lat="50.852181" lon="3.790889">
        <ele>63.359488</ele>
        <time>2025-03-18T16:58:39.088Z</time>
      </trkpt>
      <trkpt lat="50.852320" lon="3.790492">
        <ele>64.058347</ele>
        <time>2025-03-18T16:58:44.393Z</time>
      </trkpt>
      <trkpt lat="50.852425" lon="3.790043">
        <ele>64.795456</ele>
        <time>2025-03-18T16:58:50.081Z</time>
      </trkpt>
      <trkpt lat="50.852626" lon="3.788347">
        <ele>64.843073</ele>
        <time>2025-03-18T16:59:11.669Z</time>
      </trkpt>
      <trkpt lat="50.852655" lon="3.788089">
        <ele>64.843073</ele>
        <time>2025-03-18T16:59:14.749Z</time>
      </trkpt>
      <trkpt lat="50.852749" lon="3.787413">
        <ele>64.843073</ele>
        <time>2025-03-18T16:59:22.432Z</time>
      </trkpt>
      <trkpt lat="50.852763" lon="3.787364">
        <ele>64.843073</ele>
        <time>2025-03-18T16:59:23.006Z</time>
      </trkpt>
    </trkseg>
  </trk>
</gpx>